[[{"header":{"parameterUnit":"m.s-1","parameterCategory":1,"la1":30.6,"la2":29.2853,"lo1":-89.7004,"lo2":-87.6739,"dy":0.0162,"dx":0.0183,"nx":112,"ny":82,"refTime":"2024-05-02T00:00:00:Z","depth":0,"parameterNumber":2,"parameterNumberName":"U-component_of_WINDS"},"data":[0.0,0.0,0.0,0.0,0.0,0.0,0.0,0.0,0.0,0.0,0.0,0.0,0.0,0.0,0.0,0.0,0.0,0.0,0.0,0.0,0.0,0.0,0.0,0.0,0.0,0.0,0.0,0.0,0.0,0.0,0.0,0.0,0.0,0.0,0.0,0.0,0.0,0.0,0.0,0.0,0.0,0.0,0.0,0.0,0.0,0.0,0.0,0.0,0.0,0.0,0.0,0.0,0.0,0.0,0.0,0.0,0.0,0.0,0.0,0.0,0.0,0.0,0.0,0.0,0.0,0.0,0.0,0.0,0.0,0.0,0.0,0.0,0.0,0.0,0.0,0.0,0.0,0.0,0.0,0.0,0.0,0.0,0.0,0.0,0.0,0.0,0.0,0.0,0.0,0.0,-5.6012,-5.6012,-5.6102,-5.62,-5.6281,-5.629,-5.6332,-5.6484,0.0,0.0,0.0,0.0,0.0,0.0,0.0,0.0,0.0,0.0,0.0,0.0,0.0,0.0,0.0,0.0,0.0,0.0,0.0,0.0,0.0,0.0,0.0,0.0,0.0,0.0,0.0,0.0,0.0,0.0,0.0,0.0,0.0,0.0,0.0,0.0,0.0,0.0,0.0,0.0,0.0,0.0,0.0,0.0,0.0,0.0,0.0,0.0,0.0,0.0,0.0,0.0,0.0,0.0,0.0,0.0,0.0,0.0,0.0,0.0,0.0,0.0,0.0,0.0,0.0,0.0,0.0,0.0,0.0,0.0,0.0,0.0,0.0,0.0,0.0,0.0,0.0,0.0,0.0,0.0,0.0,0.0,0.0,0.0,0.0,0.0,0.0,0.0,0.0,0.0,0.0,0.0,0.0,0.0,0.0,0.0,0.0,0.0,0.0,0.0,0.0,0.0,0.0,0.0,-5.6012,-5.6012,-5.6029,-5.6079,-5.6194,-5.6206,-5.63,-5.6482,0.0,0.0,0.0,0.0,0.0,0.0,0.0,0.0,0.0,0.0,0.0,0.0,0.0,0.0,0.0,0.0,0.0,0.0,0.0,0.0,0.0,0.0,0.0,0.0,0.0,0.0,0.0,0.0,0.0,0.0,0.0,0.0,0.0,0.0,0.0,0.0,0.0,0.0,0.0,0.0,0.0,0.0,0.0,0.0,0.0,0.0,0.0,0.0,0.0,0.0,0.0,0.0,0.0,0.0,0.0,0.0,0.0,0.0,0.0,0.0,0.0,0.0,0.0,0.0,0.0,0.0,0.0,0.0,0.0,0.0,0.0,0.0,0.0,0.0,0.0,0.0,0.0,0.0,0.0,0.0,0.0,0.0,0.0,0.0,0.0,0.0,0.0,0.0,0.0,0.0,0.0,0.0,0.0,0.0,0.0,0.0,0.0,0.0,0.0,0.0,0.0,0.0,0.0,-5.6012,-5.6012,-5.6012,-5.6012,-5.6007,-5.6087,-5.6087,-5.6149,-5.6324,-5.6351,0.0,0.0,0.0,0.0,0.0,0.0,0.0,0.0,0.0,0.0,0.0,0.0,0.0,0.0,0.0,0.0,0.0,0.0,0.0,0.0,0.0,0.0,0.0,0.0,0.0,0.0,0.0,0.0,0.0,0.0,0.0,0.0,0.0,0.0,0.0,0.0,0.0,0.0,0.0,0.0,0.0,0.0,0.0,0.0,0.0,0.0,0.0,0.0,0.0,0.0,0.0,0.0,0.0,0.0,0.0,0.0,0.0,0.0,0.0,0.0,0.0,0.0,0.0,0.0,0.0,0.0,0.0,0.0,0.0,0.0,0.0,0.0,0.0,0.0,0.0,0.0,0.0,0.0,0.0,0.0,0.0,0.0,0.0,0.0,0.0,0.0,0.0,0.0,0.0,0.0,0.0,0.0,0.0,0.0,0.0,0.0,0.0,0.0,0.0,0.0,0.0,0.0,-5.6012,-5.6012,-5.6012,-5.6012,-5.6012,-5.6012,-5.6012,-5.6048,-5.6207,-5.6269,0.0,0.0,0.0,0.0,0.0,0.0,0.0,0.0,0.0,0.0,0.0,0.0,0.0,0.0,0.0,0.0,0.0,0.0,0.0,0.0,0.0,0.0,0.0,0.0,0.0,0.0,0.0,0.0,0.0,0.0,0.0,0.0,0.0,0.0,0.0,0.0,0.0,0.0,0.0,0.0,0.0,0.0,0.0,0.0,0.0,0.0,0.0,0.0,0.0,0.0,0.0,0.0,0.0,0.0,0.0,0.0,0.0,0.0,0.0,0.0,0.0,0.0,0.0,0.0,0.0,0.0,0.0,0.0,0.0,0.0,0.0,0.0,0.0,0.0,0.0,0.0,0.0,0.0,0.0,0.0,0.0,0.0,0.0,0.0,0.0,0.0,0.0,0.0,0.0,0.0,0.0,0.0,0.0,0.0,0.0,0.0,0.0,0.0,0.0,0.0,0.0,0.0,-5.6012,-5.6012,-5.6012,-5.6012,-5.6012,-5.6012,-5.6012,-5.6048,-5.6207,-5.6188,0.0,0.0,0.0,0.0,0.0,0.0,0.0,0.0,0.0,0.0,0.0,0.0,0.0,0.0,0.0,0.0,0.0,0.0,0.0,0.0,0.0,0.0,0.0,0.0,0.0,0.0,0.0,0.0,0.0,0.0,0.0,0.0,0.0,0.0,0.0,0.0,0.0,0.0,0.0,0.0,0.0,0.0,0.0,0.0,0.0,0.0,0.0,0.0,0.0,0.0,0.0,0.0,0.0,0.0,0.0,0.0,0.0,0.0,0.0,0.0,0.0,0.0,0.0,0.0,0.0,0.0,0.0,0.0,0.0,0.0,0.0,0.0,0.0,0.0,0.0,0.0,0.0,0.0,0.0,0.0,0.0,0.0,0.0,0.0,0.0,0.0,0.0,0.0,0.0,0.0,0.0,0.0,0.0,0.0,0.0,0.0,0.0,0.0,0.0,0.0,0.0,0.0,-5.598,-5.5775,-5.5272,-5.5685,-5.5818,-5.5277,-5.5702,-5.6037,-5.6064,0.0,0.0,0.0,0.0,0.0,0.0,0.0,0.0,0.0,0.0,0.0,0.0,0.0,0.0,0.0,0.0,0.0,0.0,0.0,0.0,0.0,0.0,0.0,0.0,0.0,0.0,0.0,0.0,0.0,0.0,0.0,0.0,0.0,0.0,0.0,0.0,0.0,0.0,0.0,0.0,0.0,0.0,0.0,0.0,0.0,0.0,0.0,0.0,0.0,0.0,0.0,0.0,0.0,0.0,0.0,0.0,0.0,0.0,0.0,0.0,0.0,0.0,0.0,0.0,0.0,0.0,0.0,0.0,0.0,0.0,0.0,0.0,0.0,0.0,0.0,0.0,0.0,0.0,0.0,0.0,0.0,0.0,0.0,0.0,0.0,0.0,0.0,0.0,0.0,0.0,0.0,0.0,0.0,0.0,0.0,0.0,0.0,0.0,0.0,0.0,0.0,0.0,-5.5133,-5.5161,-5.4957,-5.4348,-5.5079,-5.5376,-5.4851,-5.5548,-5.6012,-5.6012,0.0,0.0,0.0,0.0,0.0,0.0,0.0,0.0,0.0,0.0,0.0,0.0,0.0,0.0,0.0,0.0,0.0,0.0,0.0,0.0,0.0,0.0,0.0,0.0,0.0,0.0,0.0,0.0,0.0,0.0,0.0,0.0,0.0,0.0,0.0,0.0,0.0,0.0,0.0,0.0,0.0,0.0,0.0,0.0,0.0,0.0,0.0,0.0,0.0,0.0,0.0,0.0,0.0,0.0,0.0,0.0,0.0,0.0,0.0,0.0,0.0,0.0,0.0,0.0,0.0,0.0,0.0,0.0,0.0,0.0,0.0,0.0,0.0,0.0,0.0,0.0,0.0,0.0,0.0,0.0,0.0,0.0,0.0,0.0,0.0,0.0,0.0,0.0,0.0,0.0,0.0,0.0,0.0,0.0,0.0,0.0,0.0,0.0,0.0,0.0,0.0,0.0,-5.3474,-5.3397,-5.3377,-5.3383,-5.4164,-5.4693,-5.4774,-5.5509,-5.5965,0.0,0.0,0.0,0.0,0.0,0.0,0.0,0.0,0.0,0.0,0.0,0.0,0.0,0.0,0.0,0.0,0.0,0.0,0.0,0.0,0.0,0.0,0.0,0.0,0.0,0.0,0.0,0.0,0.0,0.0,0.0,0.0,0.0,0.0,0.0,0.0,0.0,0.0,0.0,0.0,0.0,0.0,0.0,0.0,0.0,0.0,0.0,0.0,0.0,0.0,0.0,0.0,0.0,0.0,0.0,0.0,0.0,0.0,0.0,0.0,0.0,0.0,0.0,0.0,0.0,0.0,0.0,0.0,0.0,0.0,0.0,0.0,0.0,0.0,0.0,0.0,0.0,0.0,0.0,0.0,0.0,0.0,0.0,0.0,0.0,0.0,0.0,0.0,0.0,0.0,0.0,0.0,0.0,0.0,0.0,0.0,0.0,0.0,0.0,0.0,0.0,0.0,0.0,-5.2654,-5.2847,-5.2752,-5.2176,-5.3128,-5.3519,-5.2945,-5.3679,-5.4199,-5.4233,0.0,0.0,0.0,0.0,0.0,0.0,0.0,0.0,0.0,0.0,0.0,0.0,0.0,0.0,0.0,0.0,0.0,0.0,0.0,0.0,0.0,0.0,0.0,0.0,0.0,0.0,0.0,0.0,0.0,0.0,0.0,0.0,0.0,0.0,0.0,0.0,0.0,0.0,0.0,0.0,0.0,0.0,0.0,0.0,0.0,0.0,0.0,0.0,0.0,0.0,0.0,0.0,0.0,0.0,0.0,0.0,0.0,0.0,0.0,0.0,0.0,0.0,0.0,0.0,0.0,0.0,0.0,0.0,0.0,0.0,0.0,0.0,0.0,0.0,0.0,0.0,0.0,0.0,0.0,0.0,0.0,0.0,0.0,0.0,0.0,0.0,0.0,0.0,0.0,0.0,0.0,0.0,0.0,0.0,0.0,0.0,0.0,0.0,0.0,0.0,0.0,0.0,-5.1347,-5.1497,-5.1433,-5.0949,-5.1863,-5.2302,-5.1777,-5.2546,-5.3067,-5.3107,0.0,0.0,0.0,0.0,0.0,0.0,0.0,0.0,0.0,0.0,0.0,0.0,0.0,0.0,0.0,0.0,0.0,0.0,0.0,0.0,0.0,0.0,0.0,0.0,0.0,0.0,0.0,0.0,0.0,0.0,0.0,0.0,0.0,0.0,0.0,0.0,0.0,0.0,0.0,0.0,0.0,0.0,0.0,0.0,0.0,0.0,0.0,0.0,0.0,0.0,0.0,0.0,0.0,0.0,0.0,0.0,0.0,0.0,0.0,0.0,0.0,0.0,0.0,0.0,0.0,0.0,0.0,0.0,0.0,0.0,0.0,0.0,0.0,0.0,0.0,0.0,0.0,0.0,0.0,0.0,0.0,0.0,0.0,0.0,0.0,0.0,0.0,0.0,0.0,0.0,0.0,0.0,0.0,0.0,0.0,0.0,0.0,0.0,0.0,0.0,0.0,0.0,-4.9797,-4.9749,-4.979,-4.9844,-5.0542,-5.1013,-5.1091,-5.1789,-5.2259,-5.2259,0.0,0.0,0.0,0.0,0.0,0.0,0.0,0.0,0.0,0.0,0.0,0.0,0.0,0.0,0.0,0.0,0.0,0.0,0.0,0.0,0.0,0.0,0.0,0.0,0.0,0.0,0.0,0.0,0.0,0.0,0.0,0.0,0.0,0.0,0.0,0.0,0.0,0.0,0.0,0.0,0.0,0.0,0.0,0.0,0.0,0.0,0.0,0.0,0.0,0.0,0.0,0.0,0.0,0.0,0.0,0.0,0.0,0.0,0.0,0.0,-6.2683,0.0,0.0,0.0,0.0,0.0,0.0,0.0,0.0,0.0,0.0,0.0,0.0,0.0,0.0,0.0,0.0,0.0,0.0,0.0,0.0,0.0,0.0,0.0,0.0,0.0,0.0,0.0,0.0,0.0,0.0,0.0,0.0,0.0,0.0,0.0,0.0,0.0,0.0,0.0,0.0,0.0,-4.9127,-4.9315,-4.9484,-4.9499,-4.9844,-5.0085,-5.0151,-5.0354,-5.0456,-5.0444,-5.0354,0.0,0.0,0.0,0.0,0.0,0.0,0.0,0.0,0.0,0.0,0.0,0.0,0.0,0.0,0.0,0.0,0.0,0.0,0.0,0.0,0.0,0.0,0.0,0.0,0.0,0.0,0.0,0.0,0.0,0.0,0.0,0.0,0.0,0.0,0.0,0.0,0.0,0.0,0.0,0.0,0.0,0.0,0.0,0.0,0.0,0.0,0.0,0.0,0.0,0.0,0.0,0.0,0.0,0.0,0.0,0.0,0.0,0.0,0.0,0.0,-6.2192,0.0,0.0,0.0,0.0,0.0,0.0,0.0,0.0,0.0,0.0,0.0,0.0,0.0,0.0,0.0,0.0,0.0,0.0,0.0,0.0,0.0,0.0,0.0,0.0,0.0,0.0,0.0,0.0,0.0,0.0,0.0,0.0,0.0,0.0,0.0,0.0,0.0,0.0,0.0,0.0,-4.889,-4.9044,-4.916,-4.916,-4.9283,-4.937,-4.9416,-4.9416,-4.9431,-4.9401,-4.9589,0.0,0.0,0.0,0.0,0.0,0.0,0.0,0.0,0.0,0.0,0.0,0.0,0.0,0.0,0.0,0.0,0.0,0.0,0.0,0.0,0.0,0.0,0.0,0.0,0.0,0.0,0.0,0.0,0.0,0.0,0.0,0.0,0.0,0.0,0.0,0.0,0.0,0.0,0.0,0.0,0.0,0.0,0.0,0.0,0.0,0.0,0.0,0.0,0.0,0.0,0.0,0.0,0.0,-6.029,-5.9929,-5.9442,-5.9442,-5.9015,-5.8452,-6.0274,-6.0553,-5.9718,-6.0318,0.0,0.0,0.0,0.0,0.0,0.0,0.0,0.0,0.0,0.0,0.0,0.0,0.0,0.0,0.0,0.0,0.0,0.0,0.0,0.0,0.0,0.0,0.0,0.0,-5.3069,-5.2754,0.0,0.0,0.0,0.0,0.0,0.0,0.0,0.0,0.0,0.0,0.0,0.0,-4.889,-4.889,-4.889,-4.889,-4.889,-4.889,-4.889,-4.889,-4.889,-4.889,-4.9166,-4.9333,0.0,0.0,0.0,0.0,0.0,0.0,0.0,0.0,0.0,0.0,0.0,0.0,0.0,0.0,0.0,0.0,0.0,0.0,0.0,0.0,0.0,0.0,0.0,0.0,0.0,0.0,0.0,0.0,0.0,0.0,0.0,0.0,-6.1033,-6.1033,0.0,0.0,0.0,0.0,0.0,0.0,0.0,0.0,0.0,0.0,0.0,0.0,0.0,-6.1003,-6.0879,-5.9734,-5.9174,-5.9143,-5.791,-5.7558,-5.7978,-5.7978,-5.7555,-5.6911,-5.7703,0.0,-5.9656,-5.904,0.0,0.0,0.0,0.0,0.0,0.0,0.0,0.0,0.0,0.0,0.0,0.0,0.0,0.0,0.0,0.0,0.0,0.0,0.0,0.0,0.0,0.0,-5.3528,-5.275,-5.2604,-5.2457,0.0,-5.1639,-5.1565,-5.1565,-5.0859,0.0,0.0,0.0,0.0,0.0,0.0,0.0,-4.889,-4.889,-4.889,-4.889,-4.889,-4.889,-4.889,-4.889,-4.889,-4.889,-4.8942,-4.9044,-4.9209,-4.9241,0.0,0.0,0.0,0.0,0.0,0.0,0.0,0.0,0.0,0.0,0.0,0.0,0.0,0.0,0.0,0.0,0.0,0.0,0.0,0.0,0.0,0.0,0.0,0.0,0.0,0.0,0.0,0.0,0.0,-6.0676,-6.0796,-6.0437,-6.13,-6.1723,0.0,0.0,0.0,0.0,0.0,0.0,0.0,0.0,0.0,-5.98,-5.934,-5.8945,-5.8608,-5.8012,-5.7712,-5.7712,-5.7107,-5.6692,-5.653,-5.653,-5.6112,-5.5444,-5.6041,-5.6709,-5.7295,-5.7306,-5.7688,-5.8213,0.0,0.0,0.0,0.0,-5.764,-5.7946,-5.79,-5.7839,0.0,-5.7322,0.0,0.0,0.0,0.0,0.0,0.0,0.0,0.0,0.0,0.0,-5.271,-5.1859,-5.1379,-5.1009,-5.0639,-5.0194,-4.999,0.0,-5.0005,-4.9447,-4.9447,0.0,0.0,0.0,0.0,-4.889,-4.889,-4.889,-4.889,-4.889,-4.889,-4.889,-4.889,-4.889,-4.889,-4.889,-4.889,-4.8925,-4.9047,-4.901,-4.901,0.0,0.0,0.0,0.0,0.0,0.0,0.0,0.0,0.0,0.0,0.0,0.0,0.0,0.0,0.0,0.0,0.0,0.0,0.0,0.0,0.0,0.0,0.0,0.0,0.0,0.0,0.0,0.0,-6.003,-6.0153,-5.9776,-6.0681,-6.1149,0.0,0.0,0.0,0.0,0.0,0.0,-6.0391,-5.9675,-5.8986,-5.8377,-5.7786,-5.7254,-5.6805,-5.6598,-5.6495,-5.6495,-5.6288,-5.5908,-5.5322,-5.5322,-5.5046,-5.4526,-5.4987,-5.5164,-5.5224,-5.5844,-5.6501,-5.7015,-5.6527,-5.6711,-5.718,-5.6701,-5.6696,-5.6939,-5.6914,-5.6755,-5.6544,-5.636,0.0,-5.5101,-5.4349,0.0,0.0,0.0,0.0,-5.2595,-5.1967,-5.1777,-5.1547,-5.0582,-5.0,-4.9655,-4.9434,-4.8863,-4.8679,0.0,-4.9228,-4.882,-4.8855,0.0,0.0,0.0,0.0,-4.889,-4.889,-4.889,-4.889,-4.889,-4.889,-4.889,-4.889,-4.889,-4.889,-4.889,-4.889,-4.889,-4.889,-4.889,-4.889,-4.889,0.0,0.0,0.0,0.0,0.0,0.0,0.0,0.0,0.0,0.0,0.0,0.0,0.0,0.0,0.0,0.0,0.0,0.0,0.0,0.0,0.0,0.0,0.0,0.0,0.0,0.0,0.0,0.0,0.0,-5.9012,-5.9515,0.0,0.0,0.0,0.0,-6.0879,-6.0266,-5.9609,-5.9042,-5.8237,-5.7541,-5.6905,-5.6871,-5.6838,-5.6805,-5.6046,-5.5667,-5.5635,-5.4943,-5.4598,-5.4563,-5.4563,-5.4563,-5.4494,-5.4526,-5.4526,-5.4589,-5.5194,-5.5801,-5.6303,-5.5823,-5.5956,-5.6438,-5.6411,-5.5972,-5.5388,-5.5257,-5.5101,-5.4785,-5.4036,-5.3624,-5.3309,-5.2769,-5.2688,0.0,0.0,-5.1287,-5.0713,-5.0533,-5.038,-4.9952,-4.8659,-4.8749,-4.8908,-4.8178,-4.7995,-4.8078,0.0,-4.8624,-4.866,-4.8787,0.0,-4.884,-4.8873,-4.889,-4.889,-4.889,-4.889,-4.889,-4.889,-4.889,-4.889,-4.889,-4.889,-4.889,-4.889,-4.889,-4.889,-4.889,-4.889,-4.889,-4.889,-4.889,0.0,0.0,0.0,0.0,0.0,0.0,0.0,0.0,0.0,0.0,0.0,0.0,0.0,0.0,0.0,0.0,0.0,0.0,0.0,0.0,0.0,0.0,0.0,0.0,0.0,0.0,0.0,0.0,-5.8632,-5.9181,0.0,-5.925,-5.9354,-5.9292,-5.901,-5.8279,-5.7764,-5.7543,-5.6814,-5.627,-5.6046,-5.5563,-5.5322,-5.5322,-5.5046,-5.4908,-5.4908,-5.4632,-5.4494,-5.4494,-5.4494,-5.4494,-5.4494,-5.4494,-5.4494,-5.4494,-5.471,-5.5164,-5.5658,-5.5104,-5.5254,-5.5638,-5.4776,-5.4506,-5.4528,-5.4005,-5.3682,-5.3394,-5.2579,-5.2258,-5.2185,-5.1958,-5.1598,-5.1167,-5.0927,-5.0342,-4.9627,-4.9079,-4.8885,-4.8605,-4.7612,-4.751,-4.7593,-4.7306,-4.727,-4.7313,-4.7485,-4.8097,-4.8624,-4.866,-4.866,-4.8587,-4.829,-4.8514,-4.8495,-4.7882,-4.8421,-4.8714,-4.8421,-4.8696,-4.8803,-4.8587,-4.8785,-4.8732,-4.8363,-4.8458,-4.8477,-4.8344,-4.8325,-4.8325,-4.8325,-4.8325,-4.8267,0.0,0.0,0.0,0.0,0.0,0.0,0.0,0.0,0.0,0.0,0.0,0.0,0.0,0.0,0.0,0.0,0.0,0.0,0.0,0.0,0.0,0.0,0.0,0.0,0.0,-5.8348,-5.8348,-5.849,-5.8806,-5.8806,-5.8358,-5.8252,-5.7936,-5.7395,-5.6674,-5.626,-5.6327,-5.557,-5.5154,-5.5253,-5.477,-5.4494,-5.4494,-5.4494,-5.4494,-5.4494,-5.4494,-5.4494,-5.4494,-5.4494,-5.4494,-5.4494,-5.4494,-5.4494,-5.4494,-5.4494,-5.4745,-5.5079,-5.4652,-5.4603,-5.4625,-5.3718,-5.3285,-5.3073,-5.2502,-5.2235,-5.2048,-5.1729,-5.1601,-5.1515,-5.1053,-5.0541,-5.0054,-4.9629,-4.8968,-4.8261,-4.7731,-4.7534,-4.7275,-4.6565,-4.6554,-4.6672,-4.6672,-4.6672,-4.6719,-4.6845,-4.7527,-4.8038,-4.8078,-4.8041,-4.8002,-4.7939,-4.8038,-4.7942,-4.7512,-4.7939,-4.8136,-4.7838,-4.8117,-4.8252,-4.7982,-4.8271,-4.8233,-4.7772,-4.8075,-4.8134,-4.7875,-4.7951,-4.7992,-4.7992,-4.7891,-4.7891,-4.7992,0.0,0.0,0.0,0.0,0.0,0.0,0.0,0.0,0.0,0.0,0.0,0.0,0.0,0.0,0.0,0.0,0.0,0.0,0.0,0.0,0.0,0.0,0.0,-5.8135,-5.8027,-5.8027,-5.8455,-5.8278,-5.7936,-5.743,-5.7363,-5.7021,-5.6303,-5.5517,-5.5173,-5.5339,-5.4619,-5.4303,-5.4494,-5.4494,-5.4494,-5.4494,-5.4494,-5.4494,-5.4494,-5.4494,-5.4494,-5.4494,-5.4494,-5.4494,-5.4494,-5.4494,-5.4494,-5.4494,-5.4494,-5.4494,-5.4494,-5.4494,-5.4046,-5.3391,-5.3356,-5.239,-5.1065,-5.0837,-5.0776,-5.0857,-5.1373,-5.1551,-5.1272,-4.9952,-4.9548,-4.9266,-4.801,-4.7148,-4.6562,-4.6562,-4.6369,-4.6055,-4.5528,-4.5803,-4.6204,-4.6204,-4.6204,-4.6291,-4.6753,-4.6845,-4.689,-4.6977,-4.6999,-4.7198,-4.7761,-4.7491,0.0,-4.7761,-4.747,-4.7176,-4.7154,-4.7176,-4.7176,-4.7176,-4.7428,-4.7449,-4.7176,-4.7653,-4.7834,-4.7569,-4.7813,-4.7972,-4.7972,-4.7642,-4.7642,-4.7972,0.0,0.0,0.0,0.0,0.0,0.0,0.0,0.0,0.0,0.0,0.0,0.0,0.0,0.0,0.0,0.0,0.0,0.0,0.0,0.0,0.0,-5.7881,-5.7918,-5.7954,-5.7918,-5.7918,-5.8027,-5.7516,-5.7179,-5.7187,-5.6166,-5.5485,-5.5415,-5.4731,-5.4353,-5.4516,-5.431,-5.4303,-5.4494,-5.4494,-5.4494,-5.4494,-5.4494,-5.4494,-5.4494,-5.4494,-5.4494,-5.4494,-5.4494,-5.4494,-5.4494,-5.4494,-5.4494,-5.446,-5.3942,-5.3701,-5.3701,-5.3701,-5.3598,-5.3253,-5.2149,-5.1149,-5.0316,-5.0218,-5.0206,-5.0235,-5.0369,-5.0042,-4.9493,-4.9118,-4.8266,-4.7365,-4.7003,-4.6328,-4.5707,-4.5707,-4.5701,-4.5572,-4.5423,-4.5528,-4.5598,-4.5598,-4.5598,-4.5649,-4.5803,-4.5829,-4.6045,-4.6822,-4.6936,-4.6868,-4.6683,-4.6845,0.0,-4.6158,-4.6635,-4.6932,-4.6601,-4.6932,-4.7124,-4.6855,-4.7124,-4.708,-4.6495,-4.6845,-4.6913,-4.659,-4.6835,-4.7098,-4.7254,-4.7165,-4.7165,0.0,0.0,0.0,0.0,0.0,0.0,0.0,0.0,0.0,0.0,0.0,0.0,0.0,0.0,0.0,0.0,0.0,0.0,0.0,0.0,0.0,0.0,-5.7881,-5.7881,-5.7881,-5.7881,-5.7881,-5.7881,-5.7239,-5.6733,-5.6535,-5.5416,-5.4635,-5.4431,-5.4328,-5.4326,-5.4424,-5.4765,-5.5069,-5.5331,-5.5331,-5.5396,-5.546,-5.515,-5.4977,-5.4977,-5.4667,-5.4494,-5.4494,-5.4494,-5.4494,-5.4494,-5.4494,-5.4494,-5.446,-5.3701,-5.3391,0.0,0.0,0.0,0.0,0.0,-5.039,-5.0011,-5.0011,-4.9804,-4.9528,-4.9528,-4.8947,-4.8258,-4.7948,-4.7286,-4.6527,-4.619,-4.5742,-4.5397,-4.5397,-4.5397,-4.5397,-4.5397,-4.5397,-4.5397,-4.5397,-4.5397,-4.5397,-4.5397,-4.5397,0.0,-4.6168,-4.6291,-4.6266,-4.6228,-4.6242,-4.6144,-4.5778,-4.6084,-4.622,-4.5935,-4.6255,-4.6365,-4.6158,-4.6448,0.0,0.0,0.0,-4.6411,-4.6228,-4.6374,0.0,0.0,0.0,-4.6661,-4.6661,0.0,0.0,0.0,-4.7276,-4.7276,0.0,0.0,0.0,0.0,0.0,0.0,0.0,0.0,0.0,0.0,0.0,0.0,0.0,0.0,0.0,0.0,-5.7881,-5.7881,-5.7881,-5.7881,-5.7848,-5.778,-5.7137,-5.6427,-5.5784,-5.504,-5.4363,-5.3788,-5.4363,-5.4805,-5.4941,0.0,0.0,0.0,0.0,-5.6538,-5.6772,-5.6083,-5.5669,-5.5566,-5.4943,-5.4598,-5.4494,-5.4494,-5.4494,-5.4494,-5.4494,-5.4494,-5.446,-5.3632,-5.3184,-5.2942,-5.2321,-5.1602,-5.0907,-5.0252,-5.0011,-5.0011,-5.0011,0.0,0.0,-4.881,-4.8224,-4.7431,-4.6803,-4.6562,-4.632,-4.5604,-4.5397,-4.5397,-4.5397,-4.5397,-4.5397,-4.5397,-4.5397,-4.5397,-4.5397,-4.5397,-4.5397,-4.5397,-4.5397,-4.5397,-4.5397,-4.5397,-4.5581,-4.6055,-4.5701,-4.5546,-4.6055,-4.5675,-4.5397,-4.5397,0.0,0.0,-4.5397,-4.5624,-4.5649,-4.5423,-4.5854,-4.6094,-4.6144,-4.6144,-4.6179,-4.6228,-4.6228,-4.6228,-4.6228,-4.6228,-4.6228,-4.6228,-4.6684,-4.6929,0.0,0.0,0.0,0.0,0.0,0.0,0.0,0.0,0.0,0.0,0.0,0.0,0.0,0.0,0.0,-5.7881,-5.7881,-5.7881,-5.7881,-5.7881,-5.7679,-5.707,-5.6359,-5.5886,-5.5681,-5.504,-5.4769,-5.5243,-5.5412,-5.5583,-5.5757,-5.5927,-5.6098,-5.6269,-5.6269,-5.6371,-5.6538,-5.6401,-5.6055,-5.5598,0.0,0.0,-5.4494,-5.4494,-5.4494,-5.4494,-5.4494,-5.4494,-5.4391,-5.298,-5.1735,-5.07,-5.1149,-5.0873,-5.0218,-5.0045,-5.0011,-5.0011,-5.0011,-4.9465,-4.881,-4.881,-4.7879,-4.6803,-4.6665,-4.6148,0.0,-4.5432,-4.5397,-4.5397,-4.5397,-4.5397,-4.5397,-4.5397,-4.5397,-4.5397,-4.5397,-4.5397,-4.5397,-4.5397,-4.5397,-4.5397,-4.5397,-4.5397,-4.5423,-4.5554,-4.5476,-4.545,-4.5554,-4.5476,-4.5397,-4.5397,-4.5397,-4.5397,-4.5397,-4.545,-4.545,-4.5397,-4.5502,-4.5649,-4.5879,-4.5905,-4.597,-4.6204,-4.6228,-4.6228,-4.6228,-4.6228,-4.6228,-4.6228,-4.6326,-4.6374,0.0,0.0,0.0,0.0,0.0,0.0,0.0,0.0,0.0,0.0,0.0,-5.7881,-5.7881,0.0,-5.7881,-5.7881,-5.7881,-5.7881,-5.7881,-5.7881,-5.7746,-5.7374,-5.6697,-5.6258,-5.6258,-5.5581,-5.531,-5.5683,-5.6055,-5.6293,-5.6399,-5.6738,-5.7012,-5.7223,-5.7223,-5.7363,-5.7638,-5.726,-5.6744,-5.6219,-5.5805,-5.5219,-5.4494,-5.4494,-5.4494,-5.4494,-5.4494,-5.4494,-5.4391,-5.2839,-5.1326,-5.0045,-5.0424,-5.0321,-5.0011,-5.0011,-5.0011,-5.0011,-5.0011,-4.9465,-4.881,-4.881,-4.7775,-4.6596,-4.6596,-4.6017,-4.5397,-4.5397,-4.5397,-4.5397,-4.5397,-4.5397,-4.5397,-4.5397,-4.5397,-4.5397,-4.5397,-4.5397,-4.5397,-4.5397,-4.5397,-4.5397,-4.5397,-4.5397,-4.5397,-4.5397,-4.5397,-4.5397,-4.5397,-4.5397,-4.5397,-4.5397,-4.5397,-4.5397,-4.5397,-4.5397,-4.5397,-4.5397,-4.5397,-4.5476,-4.5598,-4.5598,-4.5649,-4.5803,-4.5803,-4.5803,-4.5803,-4.5803,-4.5803,-4.5803,-4.5803,-4.5955,0.0,0.0,0.0,0.0,0.0,0.0,0.0,-5.7881,-5.7881,-5.7881,-5.7881,-5.7881,-5.7881,-5.7881,-5.7881,-5.7881,-5.7881,-5.7881,-5.7881,-5.7881,-5.7881,-5.7881,-5.7239,-5.6799,-5.6799,-5.6258,-5.5987,-5.6122,-5.6697,-5.7002,-5.7002,-5.7577,-5.7954,-5.8169,-5.8135,-5.8312,-5.8666,-5.8084,-5.7432,-5.6705,-5.6117,-5.5357,-5.4494,-5.4494,-5.4494,-5.4494,-5.4494,-5.4356,-5.3977,-5.2705,-5.1326,-5.0011,-5.0011,-5.0011,-5.0011,-5.0011,-5.0011,-5.0011,-5.0011,-4.9465,-4.881,-4.881,-4.7775,-4.6596,-4.6596,-4.6017,-4.5397,-4.5397,-4.5397,-4.5397,-4.5397,-4.5397,-4.5397,-4.5397,-4.5397,-4.5397,-4.5397,-4.5397,-4.5397,-4.5397,-4.5397,-4.5397,-4.5397,-4.5397,-4.5397,-4.5397,-4.5397,-4.5397,-4.5397,-4.5397,-4.5397,-4.5397,-4.5397,-4.5397,-4.5397,-4.5397,-4.5397,-4.5397,-4.5397,-4.5397,-4.5397,-4.5397,-4.5397,-4.5397,-4.5397,-4.5397,-4.5397,-4.5397,-4.5397,-4.5397,-4.5397,-4.5624,-5.7881,-5.7881,-5.7881,-5.7881,-5.7881,-5.7881,0.0,-5.7881,-5.7881,-5.7881,-5.7881,-5.7881,-5.7881,-5.7881,-5.7881,-5.7881,-5.7881,-5.7881,-5.7881,-5.7881,-5.7881,-5.7881,-5.7239,-5.6799,-5.6799,-5.6731,-5.6934,-5.7577,-5.7712,-5.778,-5.778,-5.7848,-5.7918,-5.7918,-5.7918,-5.8027,-5.8243,-5.8352,-5.7775,-5.6538,-5.6636,-5.5908,-5.4494,-5.4494,-5.4494,-5.4494,-5.4494,-5.3736,-5.2429,-5.2257,-5.1326,-5.0011,-5.0011,-5.0011,-5.0011,-5.0011,-5.0011,-5.0011,-5.0011,-4.9465,-4.881,-4.881,-4.7775,-4.6596,-4.6596,-4.6017,-4.5397,-4.5397,-4.5397,-4.5397,-4.5397,-4.5397,-4.5397,-4.5397,-4.5397,-4.5397,-4.5397,-4.5397,-4.5397,-4.5397,-4.5397,-4.5397,-4.5397,-4.5397,-4.5397,-4.5397,-4.5397,-4.5397,-4.5397,-4.5397,-4.5397,-4.5397,-4.5397,-4.5397,-4.5397,-4.5397,-4.5397,-4.5397,-4.5397,-4.5397,-4.5397,-4.5397,-4.5397,-4.5397,-4.5397,-4.5397,-4.5397,-4.5397,-4.5397,-4.5397,-4.5397,-4.5423,-5.7881,-5.7517,-5.7256,-5.7772,-5.7881,-5.7881,-5.7881,-5.7881,-5.7881,-5.7881,-5.7881,-5.7881,-5.7881,-5.7881,-5.7881,-5.7881,-5.7881,-5.7881,-5.7881,-5.7881,-5.7881,-5.7881,-5.7611,-5.7442,-5.7442,-5.7442,-5.7577,-5.7881,-5.7881,-5.7881,-5.7881,-5.7881,-5.7881,-5.7881,-5.7881,-5.7991,-5.8171,-5.7834,-5.7294,-5.6505,-5.6026,-5.5269,-5.4335,-5.4335,-5.4399,-5.4494,-5.4046,-5.3253,-5.2153,-5.174,-5.0942,-5.0011,-5.0011,-5.0011,-5.0011,-5.0011,-5.0011,-5.0011,-5.0011,-4.9804,-4.9528,-4.9528,-4.8493,-4.7251,-4.7251,-4.6362,-4.5397,-4.5397,-4.5397,-4.5397,-4.5397,-4.5397,-4.5397,-4.5397,-4.5397,-4.5397,-4.5397,-4.5397,-4.5397,-4.5397,-4.5397,-4.5397,-4.5397,-4.5397,-4.5397,-4.5397,-4.5397,-4.5397,-4.5397,-4.5397,-4.5397,-4.5397,-4.5397,-4.5397,-4.5397,-4.5397,-4.5397,-4.5397,-4.5397,-4.5397,-4.5397,-4.5397,-4.5397,-4.5397,-4.5397,-4.5397,-4.5397,-4.5397,-4.5264,-4.5015,-4.5015,-4.4852,-5.7256,-5.7072,-5.7034,-5.7443,-5.7735,-5.7881,-5.7881,-5.7881,-5.7881,-5.7881,-5.7881,-5.7881,-5.7881,-5.7881,-5.7881,-5.7881,-5.7881,-5.7881,-5.7881,-5.7881,-5.7881,-5.7881,-5.7881,-5.7881,-5.7881,-5.7881,-5.7881,-5.7881,-5.7881,-5.7881,-5.7881,-5.7881,-5.7881,-5.7881,-5.7881,-5.7954,-5.8099,-5.7421,-5.6848,-5.6337,-5.5483,-5.4764,-5.4143,-5.4207,-5.4303,-5.446,-5.3736,-5.2942,-5.2119,-5.1395,-5.0666,-5.0011,-5.0011,-5.0011,-5.0011,-5.0011,-5.0011,-5.0011,-5.0011,-5.0011,-5.0011,-5.0011,-4.8976,-4.7672,-4.7672,-4.6603,-4.5397,-4.5397,-4.5397,-4.5397,-4.5397,-4.5397,-4.5397,-4.5397,-4.5397,-4.5397,-4.5397,-4.5397,-4.5397,-4.5397,-4.5397,-4.5397,-4.5397,-4.5397,-4.5397,-4.5397,-4.5397,-4.5397,-4.5397,-4.5397,-4.5397,-4.5397,-4.5397,-4.5397,-4.5397,-4.5397,-4.5397,-4.5397,-4.5397,-4.5397,-4.5397,-4.5397,-4.5397,-4.5397,-4.5397,-4.5344,-4.5203,-4.5203,-4.4988,-4.4513,-4.4513,-4.4259,-5.5636,-5.6581,-5.7628,-5.6844,-5.7293,-5.7881,-5.7881,-5.7881,-5.7881,-5.7881,-5.7881,-5.7881,-5.7881,-5.7881,-5.7881,-5.7881,-5.7881,-5.7881,-5.7881,-5.7881,-5.7881,-5.7881,-5.7881,-5.7881,-5.7881,-5.7881,-5.7881,-5.7881,-5.7881,-5.7881,-5.7881,-5.7881,-5.7881,-5.7881,-5.7881,-5.7881,-5.7918,-5.7386,-5.6743,-5.5995,-5.5382,-5.4731,-5.4013,-5.4143,-5.4303,-5.446,-5.3736,-5.2942,-5.2119,-5.1395,-5.0666,-5.0011,-5.0011,-5.0011,-5.0011,-5.0011,-5.0011,-5.0011,-5.0011,-5.0011,-5.0011,-5.0011,-4.8976,-4.7672,-4.7672,-4.6603,-4.5397,-4.5397,-4.5397,-4.5397,-4.5397,-4.5397,-4.5397,-4.5397,-4.5397,-4.5397,-4.5397,-4.5397,-4.5397,-4.5397,-4.5397,-4.5397,-4.5397,-4.5397,-4.5397,-4.5397,-4.5397,-4.5397,-4.5397,-4.5397,-4.5397,-4.5397,-4.5397,-4.5397,-4.5397,-4.5397,-4.5397,-4.5397,-4.5397,-4.5397,-4.5397,-4.5397,-4.5397,-4.5397,-4.5397,-4.5177,-4.4708,-4.4708,-4.4485,-4.403,-4.403,-4.3768,-5.5915,-5.6152,-5.6387,-5.7256,-5.7698,-5.7881,-5.7881,-5.7881,-5.7881,-5.7881,-5.7881,-5.7881,-5.7881,-5.7881,-5.7881,-5.7881,-5.7881,-5.7881,-5.7881,-5.7881,-5.7881,-5.7881,-5.7881,-5.7881,-5.7881,-5.7881,-5.7881,-5.7881,-5.7881,-5.7881,-5.7881,-5.7881,-5.7881,-5.7881,-5.7881,-5.7881,-5.7881,-5.6769,-5.6094,-5.5995,-5.477,-5.4055,-5.3816,-5.398,-5.4143,-5.4235,-5.3087,-5.2429,-5.2084,-5.0907,-5.0218,-5.0011,-5.0011,-5.0011,-5.0011,-5.0011,-5.0011,-5.0011,-5.0011,-5.0011,-5.0011,-5.0011,-4.8976,-4.7672,-4.7672,-4.6603,-4.5397,-4.5397,-4.5397,-4.5397,-4.5397,-4.5397,-4.5397,-4.5397,-4.5397,-4.5397,-4.5397,-4.5397,-4.5397,-4.5397,-4.5397,-4.5397,-4.5397,-4.5397,-4.5397,-4.5397,-4.5397,-4.5397,-4.5397,-4.5397,-4.5397,-4.5397,-4.5397,-4.5397,-4.5397,-4.5397,-4.5397,-4.5397,-4.5397,-4.5397,-4.5397,-4.5397,-4.5397,-4.5397,-4.5096,-4.4845,-4.4708,-4.4401,-4.4001,-4.3562,-4.3562,-4.3292,-5.5836,-5.6192,-5.6426,-5.7256,-5.7698,-5.7881,-5.7881,-5.7881,-5.7881,-5.7881,-5.7881,-5.7881,-5.7881,-5.7881,-5.7881,-5.7881,-5.7881,-5.7881,-5.7881,-5.7881,-5.7881,-5.7881,-5.7881,-5.7881,-5.7881,-5.7881,-5.7881,-5.7881,-5.7881,-5.7881,-5.7881,-5.7881,-5.7881,-5.7881,-5.7881,-5.7746,-5.7509,-5.6325,-5.5481,-5.5077,-5.4092,-5.3651,-5.3717,-5.3849,-5.3876,-5.3759,-5.2616,-5.2019,-5.1735,-5.0493,-5.0011,-5.0011,-5.0011,-5.0011,-5.0011,-5.0011,-5.0011,-5.0011,-5.0011,-5.0011,-5.0011,-5.0011,-4.8976,-4.7672,-4.7672,-4.6603,-4.5397,-4.5397,-4.5397,-4.5397,-4.5397,-4.5397,-4.5397,-4.5397,-4.5397,-4.5397,-4.5397,-4.5397,-4.5397,-4.5397,-4.5397,-4.5397,-4.5397,-4.5397,-4.5397,-4.5397,-4.5397,-4.5397,-4.5397,-4.5397,-4.5397,-4.5397,-4.5397,-4.5397,-4.5397,-4.5397,-4.5397,-4.5397,-4.5397,-4.5397,-4.5397,-4.5397,-4.5318,-4.515,-4.4845,-4.4541,-4.4197,-4.3914,-4.3532,-4.305,-4.305,-4.2898,-5.5353,-5.6581,-5.7662,-5.6844,-5.7293,-5.7881,-5.7881,-5.7881,-5.7881,-5.7881,-5.7881,-5.7881,-5.7881,-5.7881,-5.7881,-5.7881,-5.7881,-5.7881,-5.7881,-5.7881,-5.7881,-5.7881,-5.7881,-5.7881,-5.7881,-5.7881,-5.7881,-5.7881,0.0,-5.7881,-5.7881,-5.7881,-5.7881,-5.7881,-5.7881,-5.7543,-5.6799,-5.6055,-5.4938,-5.3518,-5.3518,-5.3584,-5.3684,-5.3717,-5.3471,-5.3038,-5.2317,-5.1653,-5.1045,-5.0321,-5.0011,-5.0011,-5.0011,-5.0011,-5.0011,-5.0011,-5.0011,-5.0011,-5.0011,-5.0011,-5.0011,-5.0011,-4.8976,-4.7672,-4.7672,-4.6603,-4.5397,-4.5397,-4.5397,-4.5397,-4.5397,-4.5397,-4.5397,-4.5397,-4.5397,-4.5397,-4.5397,-4.5397,-4.5397,-4.5397,-4.5397,-4.5397,-4.5397,-4.5397,-4.5397,-4.5371,-4.5397,-4.5397,-4.5397,-4.5397,-4.5397,-4.5397,-4.5397,-4.5397,-4.5397,-4.5397,-4.5397,-4.5397,-4.5397,-4.5397,-4.5371,-4.5371,-4.515,-4.468,-4.4652,-4.4169,-4.3323,-4.3292,-4.305,-4.2586,-4.2586,-4.2586,-5.6074,-5.6614,-5.7034,-5.7443,-5.7735,-5.7881,-5.7881,-5.7881,-5.7881,-5.7881,-5.7881,-5.7881,-5.7881,-5.7881,-5.7881,-5.7881,-5.7881,-5.7881,-5.7881,-5.7881,-5.7881,-5.7881,-5.7881,-5.7881,-5.7881,-5.7881,-5.7881,-5.7881,-5.7881,-5.7881,-5.7881,-5.7881,-5.7881,-5.7881,-5.7881,-5.7543,-5.6799,-5.5513,-5.4431,-5.3518,-5.3518,-5.3551,-5.3551,-5.3651,-5.3374,-5.2848,-5.2286,-5.1653,-5.1045,-5.0321,-5.0011,-5.0011,-5.0011,-5.0011,-5.0011,-5.0011,-5.0011,-5.0011,-5.0011,-5.0011,-5.0011,-5.0011,-4.8976,-4.7672,-4.7672,-4.6603,-4.5397,-4.5397,-4.5397,-4.5397,-4.5397,-4.5397,-4.5397,-4.5397,-4.5397,-4.5397,-4.5397,-4.5397,-4.5397,-4.5397,-4.5397,-4.5371,-4.5291,-4.523,-4.5203,-4.513,-4.5211,-4.5291,-4.5397,-4.5397,-4.5397,-4.5397,-4.5397,-4.5397,-4.5397,-4.5397,-4.5397,-4.5397,-4.5397,-4.523,-4.4872,-4.4872,-4.4652,-4.4202,-4.3823,-4.3529,-4.3323,-4.2927,-4.2711,-4.2586,-4.2586,-4.2586,-5.692,-5.7181,-5.7293,-5.7772,-5.7881,-5.7881,-5.7881,-5.7881,-5.7881,-5.7881,-5.7881,-5.7881,-5.7881,-5.7881,-5.7881,-5.7881,-5.7881,-5.7881,-5.7881,-5.7881,-5.7881,-5.7881,-5.7881,-5.7881,-5.7881,-5.7881,-5.7881,-5.7881,-5.7881,-5.7881,-5.7881,-5.7881,-5.7881,-5.7881,-5.7577,-5.69,-5.5852,-5.4702,-5.3923,-5.3518,-5.3518,-5.3518,-5.3518,-5.3584,-5.3139,-5.2306,0.0,-5.136,-5.0568,-5.0061,-4.9918,-5.0011,-5.0011,-5.0011,-5.0011,-5.0011,-5.0011,-5.0011,-5.0011,-5.0011,-5.0011,-5.0011,-4.8976,-4.7672,-4.7672,-4.6603,-4.5397,-4.5397,-4.5397,-4.5397,-4.5397,-4.5397,-4.5397,-4.5397,-4.5397,-4.5397,-4.5397,-4.5397,-4.5397,-4.5397,-4.5371,-4.5291,-4.5203,-4.515,-4.5103,-4.5022,-4.5042,-4.5123,-4.5211,-4.5318,-4.5397,-4.5397,-4.5397,-4.5397,-4.5397,-4.5397,-4.5318,-4.5096,-4.5096,-4.4906,-4.4429,-4.4401,-4.4174,-4.371,-4.341,-4.3202,-4.2988,-4.2743,-4.2586,-4.2586,-4.2586,-4.2586,-5.7698,-5.7881,-5.7881,-5.7881,-5.7881,-5.7881,-5.7881,-5.7881,-5.7881,-5.7881,-5.7881,-5.7881,-5.7881,-5.7881,-5.7845,-5.7735,-5.7808,-5.7845,-5.7735,-5.7845,-5.7881,-5.7881,-5.7881,-5.7881,-5.7881,-5.7881,-5.7881,-5.7881,-5.7881,-5.7881,-5.7881,-5.7881,-5.7848,-5.7746,-5.7036,-5.5987,-5.46,-5.3856,-5.3518,-5.3518,-5.3518,-5.3518,-5.3518,-5.3518,-5.2837,-5.1663,-5.1537,0.0,-4.9923,-4.9772,-4.9801,-4.9982,-4.9982,-4.9982,-5.0011,-5.0011,-5.0011,-5.0011,-5.0011,-5.0011,-5.0011,-5.0011,-4.9045,-4.781,-4.7707,-4.6707,-4.5535,-4.5432,-4.5397,-4.5397,-4.5397,-4.5397,-4.5397,-4.5397,-4.5397,-4.5371,-4.5371,-4.5371,-4.5344,-4.5344,-4.5291,-4.5177,-4.515,-4.5076,-4.4995,-4.4968,-4.4968,-4.4995,-4.4995,-4.5211,-4.5371,-4.5371,-4.5397,-4.5371,-4.5318,-4.5318,-4.5096,-4.4652,-4.4625,-4.4401,-4.3943,-4.3914,-4.371,-4.3232,-4.3232,-4.2988,-4.2586,-4.2586,-4.2586,-4.2586,-4.2586,-4.2586,-5.7845,-5.7881,-5.7881,-5.7881,-5.7881,-5.7881,-5.7881,-5.7881,-5.7881,-5.7881,-5.7881,-5.7881,-5.7881,-5.7881,-5.7628,-5.692,-5.7443,-5.7662,-5.692,-5.7443,-5.7881,-5.7881,-5.7881,-5.7881,-5.7881,-5.7881,-5.7881,-5.7881,-5.7881,-5.7881,-5.7881,-5.7881,-5.7611,-5.7002,-5.6292,-5.548,-5.46,-5.3856,-5.3518,-5.3518,-5.3518,-5.3518,-5.3518,-5.3518,-5.2771,-5.1537,-5.1505,0.0,-4.956,-4.953,-4.9619,-4.9737,-4.9737,-4.986,-5.0011,-5.0011,-5.0011,-5.0011,-5.0011,-5.0011,-5.0011,-5.0011,-4.939,-4.8499,-4.7879,-4.7113,-4.6224,-4.5569,-4.5397,-4.5397,-4.5397,-4.5397,-4.5397,-4.5397,-4.5318,-4.523,-4.523,-4.5157,-4.5076,-4.5076,-4.5123,-4.5123,-4.4913,-4.494,-4.494,-4.4692,-4.4748,-4.4831,-4.4831,-4.5076,-4.523,-4.523,-4.5344,-4.523,-4.4845,-4.4818,-4.4625,-4.4145,-4.4117,-4.3914,-4.3443,-4.3443,-4.3202,-4.2743,-4.2711,-4.268,-4.2586,-4.2586,-4.2586,-4.2586,-4.2586,-4.2586,-5.7881,-5.7881,-5.7881,-5.7881,-5.7881,-5.7881,-5.7881,-5.7881,-5.7881,-5.7881,-5.7881,-5.7881,-5.7881,-5.7881,-5.7772,-5.7331,-5.7625,-5.7772,-5.7331,-5.7662,-5.7881,-5.7881,-5.7881,-5.7881,-5.7881,-5.7881,-5.7881,-5.7881,-5.7881,-5.7881,-5.7881,-5.7881,-5.7374,-5.6258,-5.5886,-5.5175,-5.4025,-5.3687,-5.3518,-5.3518,-5.3518,-5.3518,-5.3518,-5.3518,-5.2771,-5.1473,-5.1378,0.0,-4.9471,-4.9381,-4.9441,-4.959,-4.959,-4.9649,-4.9742,-4.983,-4.986,-4.986,-4.9982,-5.0011,-5.0011,-5.0011,-4.9459,-4.8637,-4.7913,-4.7155,-4.6431,-4.5638,-4.5397,-4.5397,-4.5397,-4.5397,-4.5371,-4.5318,-4.5177,-4.5096,-4.5096,-4.5076,-4.5022,-4.5022,-4.5022,-4.4968,-4.4831,-4.4803,-4.4748,-4.4643,-4.4637,-4.4726,-4.4726,-4.4575,-4.4652,-4.515,-4.4954,-4.4674,-4.4479,-4.4226,-4.3881,-4.341,-4.3529,-4.3443,-4.2958,-4.2927,-4.2836,-4.2586,-4.2586,-4.2586,-4.2586,-4.2586,-4.2586,-4.2586,-4.2586,-4.2586,-5.7881,-5.7881,-5.7881,-5.7881,-5.7881,-5.7881,-5.7881,-5.7881,-5.7881,-5.7881,-5.7881,-5.7845,-5.7662,-5.7772,-5.7772,-5.7406,-5.7662,-5.7845,-5.7662,-5.7772,-5.7881,-5.7881,-5.7881,-5.7881,-5.7881,-5.7881,-5.7881,-5.7881,-5.7881,-5.7881,-5.7881,-5.7746,-5.707,-5.575,-5.5547,-5.4837,-5.3518,-5.3518,-5.3518,-5.3518,-5.3518,-5.3518,-5.3518,-5.3518,-5.2738,-5.141,-5.1249,0.0,0.0,-4.9229,-4.926,-4.9441,-4.9441,-4.9441,-4.95,-4.9649,-4.9708,-4.9737,-4.9918,-4.9982,-4.9952,-4.9952,-4.9533,-4.8879,-4.7982,-4.732,-4.6603,-4.5673,-4.5397,-4.5397,-4.5397,-4.5371,-4.5318,-4.515,-4.5015,-4.4968,-4.4913,-4.4913,-4.4913,-4.4913,-4.4858,-4.4776,-4.4748,-4.4692,-4.4553,-4.4412,-4.4497,-4.4468,-4.4179,-4.3943,-4.4059,-4.4625,-4.422,-4.3872,-4.3818,-4.3525,-4.3136,-4.2678,-4.2956,-4.2988,-4.2618,-4.2586,-4.2586,-4.2586,-4.2586,-4.2586,-4.2586,-4.2586,-4.2586,-4.2586,-4.2586,-4.2586,-5.7881,-5.7881,-5.7881,-5.7881,-5.7881,-5.7881,-5.7881,-5.7881,-5.7881,-5.7881,-5.7881,-5.7662,-5.6844,-5.7368,-5.7368,-5.5796,-5.6882,-5.7625,-5.6806,-5.7406,-5.7881,-5.7881,-5.7881,-5.7881,-5.7881,-5.7881,-5.7881,-5.7881,-5.7881,-5.7881,-5.7881,-5.7273,-5.6528,-5.575,-5.504,-5.4296,-5.3518,-5.3518,-5.3518,-5.3518,-5.3518,-5.3518,-5.3518,-5.3518,-5.2672,-5.1217,-5.1217,0.0,0.0,-4.9049,-4.9077,-4.9229,-4.9229,-4.932,-4.95,-4.9649,-4.9708,-4.9737,-4.9918,-4.9889,-4.9737,-4.9737,-4.9791,-4.9631,-4.8148,-4.7638,-4.7293,-4.5811,-4.5397,-4.5397,-4.5397,-4.5318,-4.515,-4.4913,-4.4831,-4.4776,-4.4637,-4.4643,-4.4643,-4.4643,-4.472,-4.4748,-4.4643,-4.4692,-4.4519,-4.3735,-4.4179,-4.4121,-4.2862,-4.335,-4.3588,-4.3108,-4.3075,-4.2953,-4.2522,-4.2709,-4.2647,-4.2206,-4.2492,-4.2649,-4.2586,-4.2586,-4.2586,-4.2586,-4.2586,-4.2586,-4.2586,-4.2586,-4.2586,-4.2586,-4.2586,-4.2586,-5.7881,-5.7881,-5.7881,-5.7881,-5.7881,-5.7881,-5.7881,-5.7881,-5.7881,-5.7881,-5.748,-5.6996,-5.6652,-5.6426,-5.6113,-5.5434,-5.5876,-5.6387,-5.6575,-5.6882,-5.7331,-5.7845,-5.7881,-5.7881,-5.7881,-5.7881,-5.7881,-5.7881,-5.7881,-5.7712,-5.7273,-5.6968,-5.6461,-5.575,-5.4972,-5.4262,-5.3518,-5.3518,-5.3518,-5.3518,-5.3518,-5.3518,-5.3518,-5.3518,-5.2672,-5.1185,-5.1185,0.0,0.0,-4.9018,-4.9015,-4.9077,-4.9077,-4.9107,-4.9233,-4.935,-4.9411,-4.9441,-4.9654,-4.9654,-4.956,-4.956,-4.9619,-4.9507,-4.8529,-4.7995,-4.7465,-4.6397,-4.5776,-4.5397,-4.5397,-4.5238,-4.5049,-4.4831,-4.472,-4.4637,-4.4615,-4.4615,-4.4615,-4.4615,-4.4637,-4.4525,-4.403,-4.4001,-4.3764,-4.3015,-4.3136,-4.3139,-4.2583,-4.2458,-4.23,-4.2046,-4.2173,-4.2205,-4.2013,-4.1852,-4.1786,-4.1785,-4.2109,-4.2397,-4.2586,-4.2586,-4.2586,-4.2586,-4.2586,-4.2586,-4.2586,-4.2586,-4.2586,-4.2586,-4.2586,-4.2586,-5.7881,-5.7881,-5.7881,-5.7881,-5.7881,-5.7881,-5.7881,-5.7712,-5.7541,-5.7288,-5.6567,-5.5798,-5.5332,-5.51,-5.4907,-5.4663,-5.4987,-5.5515,-5.6113,-5.6192,-5.6536,-5.7406,-5.7293,-5.7331,-5.7845,-5.7881,-5.7881,-5.7881,-5.7881,-5.7577,-5.6833,-5.6596,-5.6156,-5.5412,-5.4668,-5.4025,-5.3518,-5.3518,-5.3518,-5.3518,-5.3518,-5.3518,-5.3518,-5.3518,-5.2672,-5.1185,-5.1185,0.0,0.0,-4.9018,-4.9018,-4.9018,-4.9018,-4.9018,-4.9018,-4.9138,-4.9199,-4.9229,-4.9411,-4.9441,-4.9411,-4.9411,-4.9411,-4.9308,-4.8915,-4.8266,-4.7479,-4.6721,-4.5929,-4.5379,-4.5566,-4.5302,-4.4913,-4.4776,-4.4699,-4.4615,-4.4615,-4.4615,-4.4615,-4.4615,-4.4615,-4.4384,-4.3647,-4.3495,-4.3196,-4.2332,-4.2363,-4.2363,-4.1949,-4.1689,-4.1426,-4.1258,-4.1358,-4.1425,-4.1425,-4.1223,-4.1223,-4.1588,-4.1916,-4.2238,-4.2586,-4.2586,-4.2586,-4.2586,-4.2586,-4.2586,-4.2586,-4.2586,-4.2586,-4.2586,-4.2586,-4.2586,-5.7881,-5.7881,-5.7881,-5.7881,-5.7881,-5.7881,-5.7881,-5.734,-5.6583,-5.578,-5.5032,-5.4015,-5.2363,-5.327,-5.4003,-5.3174,-5.4297,-5.5312,-5.5312,-5.5312,-5.5636,-5.6498,-5.5836,-5.5995,-5.7735,-5.7881,-5.7881,-5.7881,-5.7881,0.0,-5.6833,-5.6122,-5.5378,-5.4634,-5.389,-5.3518,-5.3518,-5.3518,-5.3518,-5.3518,-5.3518,-5.3518,-5.3518,-5.3518,-5.2672,-5.1185,0.0,0.0,0.0,-4.9018,-4.9018,-4.9018,-4.9018,-4.9018,-4.9018,-4.9138,-4.9199,-4.9229,-4.9411,-4.935,-4.9199,-4.9199,-4.9199,-4.9199,-4.9199,-4.8416,-4.7339,-4.6522,-4.576,-4.5321,-4.5939,-4.5459,-4.4776,-4.4643,-4.4615,-4.4615,-4.4615,-4.4615,-4.4615,-4.4615,-4.4615,-4.4384,-4.3647,-4.3495,-4.3045,-4.169,-4.2078,-4.2013,-4.0681,-4.1091,-4.1258,-4.0578,-4.0539,-4.0539,-4.0539,-4.0851,-4.1223,-4.1588,-4.1916,-4.2238,-4.2586,-4.2586,-4.2586,-4.2586,-4.2586,-4.2586,-4.2586,-4.2586,-4.2586,-4.2586,-4.2586,-4.2586,-5.7273,-5.7137,-5.7036,-5.6528,-5.6393,-5.6393,-5.6393,-5.6224,-5.5808,-5.5015,-5.4218,-5.3285,-5.22,-5.2272,-5.2403,-5.2175,-5.2909,-5.3707,-5.4317,-5.4401,-5.4736,-5.5636,-5.5995,-5.642,-5.6958,-5.7554,-5.7881,-5.7881,-5.7881,-5.734,-5.6122,-5.5852,-5.5378,-5.46,-5.389,-5.3518,-5.3518,-5.3518,-5.3518,-5.3518,-5.3518,-5.3518,-5.3518,-5.3518,-5.2672,0.0,0.0,0.0,0.0,-4.9018,-4.9018,-4.9018,-4.9018,-4.9018,-4.9018,-4.9046,-4.9046,-4.9046,-4.9172,-4.9107,-4.9046,-4.9046,-4.9046,-4.9046,-4.9046,-4.8609,-4.7951,-4.7136,-4.676,-4.6458,-4.6079,-4.5756,-4.5394,-4.4744,-4.4615,-4.4615,-4.4615,-4.4615,-4.444,-4.3943,-4.3856,-4.3499,-4.2332,-4.2141,-4.182,-4.0956,-4.099,-4.099,-4.0543,-4.0681,-4.0749,-4.0539,-4.0505,-4.0505,-4.0505,-4.0643,-4.0953,-4.1555,-4.1687,-4.2013,-4.2555,-4.2586,-4.2586,-4.2586,-4.2586,-4.2586,-4.2586,-4.2586,-4.2586,-4.2586,-4.2586,-4.2586,-5.6934,-5.6596,-5.6292,-5.5818,-5.5681,-5.5681,-5.5681,-5.5269,-5.4606,-5.3808,-5.2746,-5.1694,-5.0879,-5.0836,-5.1036,-5.1282,-5.1898,-5.2613,-5.3403,-5.3521,-5.3707,-5.4232,-5.5676,-5.6459,-5.6113,-5.7218,-5.7881,-5.7881,-5.7645,-5.6968,-5.5784,-5.5446,-5.4938,-5.4194,-5.3754,-5.3518,-5.3518,-5.3518,-5.3518,-5.3518,-5.3518,-5.3518,-5.3518,-5.3518,-5.2672,0.0,0.0,0.0,0.0,-4.9018,-4.9018,-4.9018,-4.9018,-4.9018,-4.9018,-4.9018,-4.9018,-4.9018,-4.9018,-4.9018,-4.9018,-4.9018,-4.9018,-4.9018,-4.9018,-4.8659,-4.8187,-4.7768,-4.7193,-4.6658,-4.6374,-4.5841,-4.5275,-4.4716,-4.4615,-4.4615,-4.4615,-4.4384,-4.403,-4.3588,-4.3287,-4.28,-4.1689,-4.1492,-4.126,-4.0578,-4.0505,-4.0505,-4.0505,-4.0505,-4.0505,-4.0505,-4.0505,-4.0505,-4.0505,-4.0505,-4.0817,-4.1555,-4.1588,-4.1916,-4.2555,-4.2586,-4.2586,-4.2586,-4.2586,-4.2586,-4.2586,-4.2586,-4.2586,-4.2586,-4.246,-4.2397,0.0,-5.6156,-5.5615,-5.5581,-5.5512,-5.5512,-5.5477,-5.4374,0.0,-5.2227,-5.0902,-4.963,-4.8769,-4.9189,-4.9897,-5.0574,-5.1251,-5.1929,-5.2606,-5.2698,-5.2698,-5.2698,-5.4902,-5.6113,-5.5393,-5.6844,-5.7811,-5.7814,-5.7171,-5.6461,-5.5683,-5.4972,-5.4262,-5.3518,-5.3518,-5.3518,-5.3518,-5.3518,-5.3518,-5.3518,-5.3518,-5.3518,-5.3518,-5.3518,-5.2672,0.0,0.0,0.0,0.0,-4.9018,-4.9018,-4.9018,-4.9018,-4.9018,-4.9018,-4.9018,-4.9018,-4.9018,-4.9018,-4.9018,-4.9018,-4.9018,-4.9018,-4.9018,-4.9018,-4.8602,-4.818,-4.8387,-4.7277,-4.6175,-4.6821,-4.5852,-4.4682,-4.4615,-4.4615,-4.4587,-4.4525,-4.3972,-4.3466,-4.3376,-4.2862,-4.2205,-4.1558,-4.1426,-4.1225,-4.0578,-4.0505,-4.0505,-4.0505,-4.0505,-4.0505,-4.0505,-4.0505,-4.0505,-4.0505,-4.0505,-4.0783,-4.1522,-4.1555,-4.1883,-4.2523,-4.2555,-4.2555,-4.2586,-4.2586,-4.2586,-4.2586,-4.2555,-4.2555,-4.2555,-4.2206,-4.2077,-5.5277,0.0,-5.4735,-5.416,-5.4025,-5.3854,0.0,-5.2848,-5.2141,-5.0717,-5.0153,-4.963,-4.8769,-4.9189,-4.9897,-5.0574,-5.1251,-5.1929,-5.2606,-5.2698,-5.2698,-5.2698,-5.3836,-5.4819,-5.5271,-5.627,-5.6947,-5.7067,-5.69,-5.6224,-5.4938,-5.4668,-5.4262,-5.3518,-5.3518,-5.3518,-5.3518,-5.3518,-5.3518,-5.3518,-5.3518,-5.3518,-5.3518,-5.3518,-5.2672,0.0,0.0,0.0,-4.9018,-4.9018,-4.9018,-4.9018,-4.9018,-4.9018,-4.9018,-4.9018,-4.9018,-4.9018,-4.9018,-4.9018,-4.9018,-4.9018,-4.9018,-4.9018,-4.9018,-4.8914,-4.8809,-4.8839,-4.8165,-4.7323,-4.6946,-4.6138,-4.5297,-4.475,-4.4615,-4.444,-4.3885,-4.3617,-4.3196,-4.2173,-4.182,-4.1525,-4.082,-4.0749,-4.0681,-4.0509,-4.0505,-4.0505,-4.0505,-4.0505,-4.0505,-4.0505,-4.0505,-4.0505,-4.0505,-4.0505,-4.0681,-4.1189,-4.1223,-4.1522,-4.2206,-4.2206,-4.2333,-4.2586,-4.2586,-4.2586,-4.2586,-4.2333,-4.2206,-4.2206,-4.1883,-4.172,-5.4803,-5.4329,-5.3991,-5.3585,-5.3518,-5.328,-5.2485,-5.1987,-5.1401,-5.0182,-4.959,-4.9178,-4.8687,-4.8943,-4.9528,-5.0543,-5.1005,-5.159,-5.2575,-5.2698,-5.2698,-5.2698,-5.3477,-5.419,0.0,-5.5541,-5.6141,-5.6185,-5.5943,-5.5446,-5.4634,-5.4262,-5.3923,-5.3518,-5.3518,-5.3518,-5.3518,-5.3518,-5.3518,-5.3518,-5.3518,-5.3518,-5.3518,-5.3518,-5.2672,0.0,0.0,0.0,-4.9018,-4.9018,-4.9018,-4.9018,-4.9018,-4.9018,-4.9018,-4.9018,-4.9018,-4.9018,-4.9018,-4.9018,-4.9018,-4.9018,-4.9018,-4.9018,-4.9018,-4.9018,-4.9018,-4.9018,-4.824,-4.7293,-4.6887,-4.5736,-4.4682,-4.4598,-4.4121,-4.3588,-4.3529,-4.3015,-4.2363,-4.1656,-4.1227,-4.0922,-4.0543,-4.0505,-4.0505,-4.0505,-4.0505,-4.0505,-4.0505,-4.0505,-4.0505,-4.0505,-4.0505,-4.0505,-4.0505,-4.0505,-4.0646,-4.1055,-4.1088,-4.1323,-4.1851,-4.1883,-4.1948,-4.2142,-4.2142,-4.2142,-4.2142,-4.1948,-4.1883,-4.1851,-4.1522,-4.1357,-5.4668,-5.3889,-5.3314,-5.3314,-5.3314,-5.3041,-5.2164,-5.1438,-5.0691,-4.9868,-4.9138,-4.8604,-4.8604,-4.8604,-4.9066,-5.0482,-5.079,-5.1251,-5.239,-5.2575,-5.2606,-5.2698,-5.3346,-5.3816,-5.385,-5.464,-5.5084,-5.5,-5.4534,-5.4222,-5.4259,-5.3652,-5.3348,-5.3518,-5.3518,-5.3518,-5.3518,-5.3518,-5.3518,-5.3518,-5.3518,-5.3518,-5.3518,-5.3518,-5.2672,-5.1185,0.0,0.0,-4.9018,-4.9018,-4.9018,-4.9018,-4.9018,-4.9018,-4.9018,-4.9018,-4.9018,-4.9018,-4.9018,-4.9018,-4.9018,-4.9018,-4.9018,-4.9018,-4.9018,-4.9018,-4.8984,-4.8883,-4.7834,-4.6786,-4.6667,-4.5076,-4.3647,-4.415,-4.338,-4.2645,-4.3106,-4.23,-4.1459,-4.136,-4.0888,-4.0505,-4.0505,-4.0505,-4.0505,-4.0505,-4.0505,-4.0505,-4.0505,-4.0505,-4.0505,-4.0505,-4.0505,-4.0505,-4.0505,-4.0505,-4.0677,-4.0987,-4.0987,-4.1156,-4.1522,-4.1555,-4.1588,-4.1588,-4.1588,-4.1588,-4.1588,-4.1555,-4.1522,-4.1522,-4.1156,-4.0987,-5.4059,-5.3108,-5.2485,-5.2485,-5.2485,-5.2128,-5.0608,-5.0182,-4.9829,-4.8975,-4.8687,-4.8604,-4.8604,-4.8604,-4.9066,-5.0482,-5.119,-5.1621,-5.1836,-5.1867,-5.2082,-5.2637,-5.2833,-5.2953,-5.3144,-5.3289,-5.3198,-5.2752,-5.2612,-5.2557,-5.2649,-5.2551,-5.2799,-5.3484,-5.3518,-5.3518,-5.3518,-5.3518,-5.3518,-5.3518,-5.3518,-5.3518,-5.3518,-5.3518,-5.2672,-5.1185,0.0,-5.0371,-4.9018,-4.9018,-4.9018,-4.9018,-4.9018,-4.9018,-4.9018,-4.9018,-4.9018,-4.9018,-4.9018,-4.9018,-4.9018,-4.9018,-4.9018,-4.9018,-4.9018,-4.9018,-4.8883,-4.821,-4.7462,-4.6667,-4.6088,-4.4713,-4.3376,-4.2923,-4.2645,-4.2363,-4.1885,-4.1656,-4.1327,-4.0783,-4.0578,-4.0505,-4.0505,-4.0505,-4.0505,-4.0505,-4.0505,-4.0505,-4.0505,-4.0505,-4.0505,-4.0505,-4.0505,-4.0505,-4.0505,-4.0505,-4.0539,-4.0608,-4.0608,-4.0749,-4.1156,-4.1456,-4.1588,-4.1588,-4.1588,-4.1588,-4.1588,-4.1323,-4.1156,-4.1156,-4.0749,-4.0608,-5.3923,-5.2903,-5.22,-5.1769,-5.1659,-5.1331,-5.0182,-4.9908,-4.963,-4.8769,-4.8604,-4.8604,-4.8604,-4.8604,-4.8943,-4.9989,-5.1036,-5.1559,-5.1221,-5.1467,-5.1805,-5.2144,-5.2175,-5.2198,-5.2293,-5.2052,-5.1738,-5.1541,-5.1553,-5.1615,-5.1659,-5.2059,-5.2449,-5.2834,-5.2868,-5.3041,-5.3518,-5.3075,-5.3075,-5.3518,-5.3518,-5.3518,-5.3484,-5.3044,-5.2266,-5.1151,0.0,-4.9999,-4.9018,-4.9018,-4.9018,-4.9018,-4.9018,-4.9018,-4.9018,-4.9018,-4.9018,-4.9018,-4.9018,-4.9018,-4.9018,-4.9018,-4.9018,-4.9018,-4.9018,-4.8714,-4.825,-4.7572,-4.6843,-4.6112,-4.5407,-4.3802,-4.2426,-4.2489,-4.1949,-4.1426,-4.1492,-4.1225,-4.0885,-4.0543,-4.0505,-4.0505,-4.0505,-4.0505,-4.0505,-4.0505,-4.0505,-4.0505,-4.0505,-4.0505,-4.0505,-4.0505,-4.0505,-4.0505,-4.0505,-4.0505,-4.0505,-4.0505,-4.0505,-4.0608,-4.0749,-4.0919,-4.0987,-4.0987,-4.0987,-4.0987,-4.0987,-4.0851,-4.0749,-4.0749,-4.0608,-4.0505,-5.3923,-5.2799,-5.1878,-5.1257,-5.0957,-5.0615,-4.9789,-4.959,-4.939,-4.8728,-4.8604,-4.8604,-4.8604,-4.8881,-4.9147,-4.9362,-5.0488,-5.1133,-5.0457,-5.0752,-5.1151,-5.126,-5.1304,-5.1318,-5.1133,-5.0829,-5.0524,-5.0367,-5.0469,-5.0615,-5.0805,-5.1401,-5.1806,-5.1987,-5.2023,-5.2414,-5.3212,-5.2624,-5.2729,-5.3518,-5.3518,-5.3518,-5.3484,-5.2672,-5.1894,-5.1183,-5.0405,-4.9661,-4.9018,-4.9018,-4.9018,-4.9018,-4.9018,-4.9018,-4.9018,-4.9018,-4.9018,-4.9018,-4.9018,-4.8892,-4.8767,-4.8923,-4.8892,-4.8767,-4.8956,-4.8477,-4.7717,-4.6862,-4.6015,-4.5133,-4.4417,-4.288,-4.1591,-4.1949,-4.1258,-4.0646,-4.1158,-4.0854,-4.0505,-4.0505,-4.0505,-4.0505,-4.0505,-4.0505,-4.0505,-4.0505,-4.0505,-4.0505,-4.0505,-4.0505,-4.0505,-4.0505,-4.0505,-4.0505,-4.0505,-4.0505,-4.0505,-4.0505,-4.0505,-4.0505,-4.0505,-4.0505,-4.0505,-4.0505,-4.0505,-4.0505,-4.0505,-4.0505,-4.0505,-4.0505,-4.0505,-4.0505,-5.3923,-5.2378,-5.1182,-5.1107,-5.0538,-4.9749,-4.8893,-4.8687,-4.8687,-4.8604,-4.8604,-4.8604,-4.8604,-4.9682,-5.01,-4.863,-4.9537,-5.0179,-4.9506,-4.9273,-4.9417,-5.0056,-5.0293,-5.0179,-4.9537,-4.967,-4.9489,-4.881,-4.8759,-4.9107,-4.9947,-5.0026,-5.0384,-5.1145,-5.1182,-5.1586,-5.2378,-5.2307,-5.2729,-5.3518,-5.3518,-5.3518,-5.3484,-5.2672,-5.1894,-5.1183,-5.0405,-4.9661,-4.9018,-4.9018,-4.9018,-4.9018,-4.9018,-4.9018,-4.9018,-4.9018,-4.9018,-4.9018,-4.9018,-4.8545,-4.8096,-4.8798,-4.8545,-4.8096,-4.8798,-4.8477,-4.7615,-4.6262,-4.491,-4.3686,-4.3034,-4.2195,-4.136,-4.0783,-4.0578,-4.0539,-4.0543,-4.0509,-4.0505,-4.0505,-4.0505,-4.0505,-4.0505,-4.0505,-4.0505,-4.0505,-4.0505,-4.0505,-4.0505,-4.0505,-4.0505,-4.0505,-4.0505,-4.0505,-4.0505,-4.0505,-4.0505,-4.0505,-4.0505,-4.0505,-4.0505,-4.0505,-4.0505,-4.0505,-4.0505,-4.0505,-4.0505,-4.0505,-4.0505,-4.0505,-4.0505,-4.0505,-5.3788,-5.231,-5.1107,-5.1107,-5.0073,-4.9015,-4.8687,-4.8604,-4.8604,-4.8604,-4.8604,-4.8563,-4.8469,-4.9433,-4.9761,-4.8347,-4.9217,-4.9735,-4.8651,-4.8779,-4.9101,-4.9344,-4.9548,-4.9585,-4.931,-4.9124,-4.8912,-4.8635,-4.8604,-4.8728,-4.9097,-4.959,-5.0026,-5.0345,-5.0345,-5.0957,-5.2272,-5.1327,-5.1733,-5.3518,-5.3518,-5.3246,-5.2731,-5.1933,-5.1488,-5.1117,-4.9932,-4.9255,-4.9018,-4.9018,-4.9018,-4.9018,-4.9018,-4.9018,-4.9018,-4.9018,-4.9018,-4.9018,-4.9018,-4.8513,-4.7967,-4.8225,-4.8129,-4.7967,-4.8225,-4.7519,-4.6393,-4.5436,-4.3816,-4.2267,-4.2036,-4.1413,-4.0817,-4.0543,-4.0505,-4.0505,-4.0505,-4.0505,-4.0505,-4.0505,-4.0505,-4.0505,-4.0505,-4.0505,-4.0505,-4.0505,-4.0505,-4.0505,-4.0505,-4.0505,-4.0505,-4.0505,-4.0505,-4.0505,-4.0505,-4.0505,-4.0505,-4.0505,-4.0505,-4.0505,-4.0505,-4.0505,-4.0505,-4.0505,-4.0505,-4.0505,-4.0505,-4.0505,-4.0505,-4.0505,-4.0505,-4.0505,-5.3414,-5.2131,-5.1032,-5.0767,-4.967,-4.8604,-4.8604,-4.8604,-4.8604,-4.8604,-4.8521,-4.8438,-4.826,-4.9035,-4.93,-4.8061,-4.8849,-4.9139,-4.8031,-4.8188,-4.849,-4.849,-4.8632,-4.8761,-4.8761,-4.8546,-4.8469,-4.848,-4.851,-4.8521,-4.8604,-4.9178,-4.947,-4.947,-4.947,-5.0182,-5.1549,-5.0454,-5.0843,-5.2731,-5.3007,-5.2838,-5.226,-5.1562,-5.1082,-5.0777,-4.956,-4.9018,-4.9018,-4.9018,-4.9018,-4.9018,-4.9018,-4.8849,-4.8646,-4.8646,-4.8511,-4.8311,-4.8298,-4.7828,-4.7243,-4.7473,-4.7406,-4.7305,-4.7737,-4.6746,-4.5369,-4.4919,-4.3199,-4.1459,-4.1227,-4.082,-4.0505,-4.0505,-4.0505,-4.0505,-4.0505,-4.0505,-4.0505,-4.0505,-4.0505,-4.0505,-4.0505,-4.0505,-4.0505,-4.0505,-4.0505,-4.0505,-4.0505,-4.0505,-4.0505,-4.0505,-4.0505,-4.0505,-4.0505,-4.0505,-4.0505,-4.0505,-4.0505,-4.0505,-4.0505,-4.0505,-4.0505,-4.0505,-4.0505,-4.0505,-4.0505,-4.0505,-4.0505,-4.0505,-4.0505,-4.0505,-5.2755,-5.1733,-5.0919,-5.0104,-4.9228,-4.8604,-4.8604,-4.8604,-4.8604,-4.8604,-4.8438,-4.826,-4.8049,-4.8554,-4.8711,-4.7744,-4.8153,-4.8334,-4.7671,-4.7439,-4.7309,-4.7309,-4.7452,-4.7581,-4.7581,-4.7837,-4.8091,-4.8301,-4.8301,-4.8385,0.0,-4.8604,-4.8604,-4.8604,-4.8604,-4.9015,-4.9868,-4.9868,-5.0299,-5.1107,-5.1915,-5.2295,-5.2266,-5.1523,-5.0811,-5.0067,-4.9323,-4.9018,-4.9018,-4.8984,-4.8984,-4.9018,-4.8984,-4.8514,-4.7906,-4.7872,-4.7428,-4.6798,-4.6766,-4.6323,-4.5822,-4.6534,-4.6304,-4.5985,-4.7439,-4.6422,-4.4723,-4.4789,-4.3199,-4.1358,-4.0681,-4.0505,-4.0505,-4.0505,-4.0505,-4.0505,-4.0505,-4.0505,-4.0505,-4.0505,-4.0505,-4.0505,-4.0505,-4.0505,-4.0505,-4.0505,-4.0505,-4.0505,-4.0505,-4.0505,-4.0505,-4.0505,-4.0505,-4.0505,-4.0505,-4.0505,-4.0505,-4.0505,-4.0505,-4.0505,-4.0505,-4.0505,-4.0505,-4.0505,-4.0505,-4.0505,-4.0505,-4.0505,-4.0505,-4.0505,-4.0505,-4.0505,-5.328,-5.2131,-5.1032,-5.0805,-4.9638,-4.8604,-4.8604,-4.8604,-4.8604,-4.8604,-4.8438,-4.826,-4.8049,-4.8382,-4.8451,-4.7529,-4.7935,-4.8145,-4.7486,-4.7352,-4.7309,-4.7309,-4.7452,-4.7581,-4.7581,-4.7837,-4.8091,-4.8301,-4.8301,-4.8385,0.0,-4.8604,-4.8604,-4.8604,-4.8604,-4.9015,-4.9868,-4.9269,-4.971,-5.1107,-5.0774,-5.0922,-5.1426,-5.126,-5.0811,-5.0067,-4.9323,-4.9018,-4.8954,-4.845,-4.8513,-4.8889,-4.7849,-4.7642,-4.7774,-4.6776,-4.6596,-4.6739,-4.6288,-4.5927,-4.5755,-4.5975,-4.5877,-4.5877,-4.683,-4.5977,-4.4729,-4.4754,-4.3216,-4.1434,-4.0697,-4.0505,-4.0505,-4.0505,-4.0505,-4.0505,-4.0505,-4.0505,-4.0505,-4.0505,-4.0505,-4.0505,-4.0505,-4.0505,-4.0505,-4.0505,-4.0505,-4.0505,-4.0505,-4.0505,-4.0505,-4.0505,-4.0505,-4.0505,-4.0505,-4.0505,-4.0505,-4.0505,-4.0505,-4.0505,-4.0505,-4.0505,-4.0505,-4.0505,-4.0505,-4.0505,-4.0505,-4.0505,-4.0505,-4.0505,-4.0505,-4.0505,-5.3144,-5.2059,-5.1032,-5.0691,-4.963,-4.8604,-4.8604,-4.8604,-4.8604,-4.8604,-4.8438,-4.826,-4.8133,-4.817,-4.8019,-4.7499,-4.7682,-4.7758,-4.7369,-4.7309,-4.7309,-4.7309,-4.7439,-4.7452,-4.7452,-4.7624,-4.7794,-4.8007,-4.8133,0.0,0.0,-4.8563,-4.8604,-4.8604,-4.8604,-4.8852,-4.9349,-4.8852,-4.9269,-5.0615,-5.0139,-5.017,-5.0649,-5.0724,-5.0371,-4.9627,-4.9187,-4.8829,-4.8513,-4.8096,-4.8161,-4.8446,-4.7266,-4.6928,-4.6938,-4.5768,-4.5241,-4.5081,-4.4949,-4.49,-4.4923,-4.5164,-4.5253,-4.5473,-4.6515,-4.5617,-4.435,-4.4685,-4.3239,-4.1432,-4.0689,-4.0505,-4.0505,-4.0505,-4.0505,-4.0505,-4.0505,-4.0505,-4.0505,-4.0505,-4.0505,-4.0505,-4.0505,-4.0505,-4.0505,-4.0505,-4.0505,-4.0505,-4.0505,-4.0505,-4.0505,-4.0505,-4.0505,-4.0505,-4.0505,-4.0505,-4.0505,-4.0505,-4.0505,-4.0505,-4.0505,-4.0505,-4.0505,-4.0505,-4.0505,-4.0505,-4.0505,-4.0505,-4.0505,-4.0505,-4.0505,-4.0505,-5.2696,-5.1769,-5.0919,-5.0182,-4.9269,-4.8604,-4.8604,-4.8604,-4.8604,-4.8604,-4.8438,-4.8343,-4.8301,-4.7922,-4.7624,-4.7581,-4.7439,-4.7309,-4.7309,-4.7309,-4.7309,-4.7309,-4.7309,-4.7309,-4.7309,-4.7309,-4.7396,-4.7581,0.0,0.0,0.0,-4.848,-4.8604,-4.8604,-4.8604,-4.8604,-4.8604,-4.8604,-4.9025,-4.9813,-4.978,-4.9805,-4.9819,-4.9954,-4.9601,-4.8892,-4.8829,-4.845,-4.7901,-4.7737,-4.7737,-4.7736,-4.6911,-4.6215,-4.558,-4.4823,-4.3635,-4.2589,-4.321,-4.3507,-4.3689,-4.431,-4.4579,-4.4874,-4.6269,-4.529,-4.3826,-4.4581,-4.3266,-4.1524,-4.0782,-4.0536,-4.0505,-4.0505,-4.0505,-4.0505,-4.0505,-4.0505,-4.0505,-4.0505,-4.0505,-4.0505,-4.0505,-4.0505,-4.0505,-4.0505,-4.0505,-4.0505,-4.0505,-4.0505,-4.0505,-4.0505,-4.0505,-4.0505,-4.0505,-4.0505,-4.0505,-4.0505,-4.0505,-4.0505,-4.0505,-4.0505,-4.0505,-4.0505,-4.0505,-4.0505,-4.0505,-4.0505,-4.0505,-4.0505,-4.0505,-4.0505,-5.3382,-5.2203,-5.107,-5.0881,-4.9678,-4.8604,-4.8604,-4.8604,-4.8604,-4.8604,-4.8593,-4.848,-4.8343,-4.8091,-4.7837,-4.7624,-4.7439,-4.7309,-4.7309,-4.7309,-4.7309,-4.7309,-4.7309,-4.7309,-4.7309,-4.7309,-4.7396,-4.7581,0.0,0.0,-4.8301,-4.848,-4.8604,-4.8604,-4.8604,-4.8604,-4.8604,-4.8604,-4.8736,0.0,-4.9005,-4.8771,-4.8302,-4.896,-4.8827,-4.8096,-4.7539,-4.7506,-4.7803,-4.6657,-4.6505,-4.691,-4.5604,-4.5013,-4.479,-4.3446,-4.2775,-4.2461,-4.216,-4.2712,-4.3626,-4.3784,-4.4178,-4.4761,-4.566,-4.5201,-4.4427,-4.4658,-4.3604,-4.2232,-4.1555,-4.0905,-4.0505,-4.0505,-4.0505,-4.0505,-4.0505,-4.0505,-4.0505,-4.0505,-4.0505,-4.0505,-4.0505,-4.0505,-4.0505,-4.0505,-4.0505,-4.0505,-4.0505,-4.0505,-4.0505,-4.0505,-4.0505,-4.0505,-4.0505,-4.0505,-4.0505,-4.0505,-4.0505,-4.0505,-4.0505,-4.0505,-4.0505,-4.0505,-4.0505,-4.0505,-4.0505,-4.0505,-4.0505,-4.0505,-4.0505,-4.0505,-5.3584,-5.259,-5.1512,-5.0729,-4.955,-4.8604,-4.8604,-4.8604,-4.8604,-4.8604,-4.8604,-4.8563,-4.8438,-4.8218,-4.7964,-4.7794,-4.7525,-4.7309,-4.7309,-4.7309,-4.7309,-4.7309,-4.7309,-4.7309,-4.7309,-4.7309,-4.7352,0.0,0.0,-4.8049,-4.8175,-4.8469,-4.8604,-4.8604,-4.8604,-4.8604,-4.8604,-4.8296,-4.813,-4.8159,-4.7902,-4.7449,-4.6849,-4.7588,-4.7766,-4.7339,-4.6999,-4.6795,-4.6795,-4.602,-4.5748,-4.5662,-4.4547,-4.3974,-4.3621,-4.2462,-4.182,-4.1554,-4.1585,-4.2266,-4.3167,-4.3488,-4.4055,-4.4761,-4.551,-4.5179,-4.4606,-4.4697,-4.368,-4.2448,-4.1771,-4.1309,-4.1032,-4.1032,-4.0751,-4.0597,-4.0935,-4.1032,-4.1124,-4.1427,-4.1489,-4.1432,-4.1093,-4.072,-4.0505,-4.0505,-4.0505,-4.0505,-4.0505,-4.0505,-4.0505,-4.0505,-4.0505,-4.0505,-4.0505,-4.0505,-4.0505,-4.0505,-4.0505,-4.0505,-4.0505,-4.0505,-4.0505,-4.0505,-4.0505,-4.0505,-4.0505,-4.0505,-4.0505,-4.0505,-4.0505,-4.0505,-5.3584,-5.2903,-5.1951,-5.0493,-4.947,-4.8811,-4.8811,-4.8687,-4.8604,-4.8604,-4.8604,-4.8604,-4.8604,-4.8301,-4.8049,-4.8007,-4.7654,-4.7352,-4.7309,-4.7309,-4.7309,-4.7309,-4.7309,-4.7309,-4.7309,-4.7309,-4.7309,0.0,0.0,-4.7964,-4.8007,-4.8343,-4.8563,-4.8604,-4.8604,-4.8543,-4.845,-4.7896,-4.7577,-4.7419,-4.6843,-4.6266,-4.5697,-4.6198,-4.6515,-4.662,-4.648,-4.6163,-4.5697,-4.5551,-4.5115,-4.4433,-4.3829,-4.3137,-4.2414,-4.1746,-4.1091,-4.0566,-4.1217,-4.1863,-4.254,-4.3223,-4.3901,-4.4569,-4.5264,-4.5067,-4.46,-4.4673,-4.3759,-4.2633,-4.2078,-4.1863,-4.1771,-4.1771,-4.1309,-4.1028,-4.1648,-4.1771,-4.1955,-4.2509,-4.2602,-4.2417,-4.1863,-4.1278,-4.0812,-4.0689,-4.0689,-4.0628,-4.0505,-4.0505,-4.0505,-4.0505,-4.0505,-4.0505,-4.0505,-4.0505,-4.0505,-4.0505,-4.0505,-4.0505,-4.0505,-4.0505,-4.0505,-4.0505,-4.0505,-4.0505,-4.0505,-4.0505,-4.0505,-4.0505,-4.0505,-4.0505,-5.3584,-5.2903,-5.2092,-5.1145,-5.0306,-4.971,-4.971,-4.9138,-4.8604,-4.8604,-4.8604,-4.8604,-4.8604,-4.8396,-4.8218,-4.8049,-4.7752,-4.7495,-4.7309,-4.7309,-4.7309,-4.7309,-4.7309,-4.7309,-4.7309,-4.7309,0.0,0.0,-4.7495,-4.7752,-4.7964,-4.8218,-4.8427,-4.8563,-4.8604,-4.8327,-4.7742,-4.765,-4.7362,-4.6805,-4.6129,-4.5792,-4.566,-4.5142,-4.5253,-4.5805,-4.5179,-4.5216,-4.566,-4.4993,-4.4356,-4.3734,-4.3636,-4.2819,-4.1652,-4.1524,-4.1091,-4.0505,-4.0597,-4.1124,-4.1832,-4.2509,-4.3187,-4.384,-4.4538,-4.4685,-4.461,-4.46,-4.4068,-4.347,-4.3377,-4.2879,-4.2479,-4.2479,-4.2386,-4.2355,-4.2448,-4.2479,-4.2509,-4.2602,-4.2602,-4.2571,-4.2479,-4.2386,-4.214,-4.1555,-4.1463,-4.1247,-4.0566,-4.0505,-4.0505,-4.0505,-4.0505,-4.0505,-4.0505,-4.0505,-4.0505,-4.0505,-4.0505,-4.0505,-4.0505,-4.0505,-4.0505,-4.0505,-4.0505,-4.0505,-4.0505,-4.0505,-4.0505,-4.0505,-4.0505,-4.0505,-5.372,-5.2903,-5.2236,-5.1842,-5.0805,-4.9908,-4.9908,-4.9259,-4.8604,-4.8604,-4.8604,-4.8604,-4.8604,-4.8469,-4.826,-4.8175,-4.7837,-4.7581,-4.7452,-4.7396,-4.7309,-4.7309,-4.7309,-4.7309,-4.7309,-4.7309,0.0,0.0,-4.7495,-4.7709,-4.7964,-4.8175,-4.8385,-4.8563,-4.8604,-4.8296,-4.7619,-4.7219,-4.6554,-4.5503,-4.5223,-4.5067,-4.5067,-4.4761,-4.4799,-4.5067,-4.4761,-4.4799,-4.5067,-4.4723,-4.3957,-4.3038,-4.3038,-4.2167,-4.0922,-4.0922,-4.0749,-4.0505,-4.0505,-4.1001,-4.1648,-4.1955,-4.2725,-4.3655,-4.3963,-4.4302,-4.461,-4.461,-4.4117,-4.3593,-4.3593,-4.3408,-4.3156,-4.3156,-4.3433,-4.371,-4.371,-4.3402,-4.3248,-4.3648,-4.3402,-4.3156,-4.3156,-4.2848,-4.2509,-4.2202,-4.2171,-4.2048,-4.174,-4.137,-4.1124,-4.1124,-4.0751,-4.0505,-4.0505,-4.0505,-4.0505,-4.0505,-4.0505,-4.0505,-4.0505,-4.0505,-4.0505,-4.0505,-4.0505,-4.0505,-4.0505,-4.0505,-4.0505,-4.0505,-4.0505,-4.0505,-5.3754,-5.3076,-5.259,-5.259,-5.1549,-5.0454,-5.026,-4.955,-4.8852,-4.8646,-4.8604,-4.8604,-4.8604,-4.848,-4.8385,-4.8301,-4.8007,-4.7752,-4.7624,-4.7452,-4.7352,-4.7309,-4.7309,-4.7309,-4.7309,-4.7309,0.0,0.0,-4.7409,-4.7666,-4.7964,-4.8133,-4.8343,-4.8563,-4.845,-4.8019,-4.7342,-4.6511,-4.5588,-4.461,-4.461,-4.461,-4.461,-4.461,-4.461,-4.461,-4.461,-4.461,-4.461,-4.461,-4.3802,-4.2602,-4.2602,-4.174,-4.0505,-4.0505,-4.0505,-4.0505,-4.0505,-4.0843,-4.137,-4.1555,-4.2386,-4.3377,-4.3562,-4.4086,-4.461,-4.461,-4.424,-4.387,-4.387,-4.387,-4.387,-4.387,-4.424,-4.461,-4.461,-4.4209,-4.4024,-4.4517,-4.4209,-4.387,-4.387,-4.3433,-4.3033,-4.2879,-4.2848,-4.2786,-4.2633,-4.2171,-4.1863,-4.1863,-4.137,-4.0935,-4.0782,-4.0751,-4.0689,-4.0505,-4.0505,-4.0505,-4.0505,-4.0505,-4.0505,-4.0505,-4.0505,-4.0505,-4.0505,-4.0505,-4.0505,-4.0505,-4.0505,-4.0505,-5.3717,-5.3584,-5.3416,-5.3416,-5.2799,-5.1984,-5.122,-5.0384,-4.959,-4.8769,-4.8604,-4.8604,-4.8604,-4.8563,-4.8521,-4.8343,-4.8301,-4.8133,-4.7666,-4.7581,-4.7495,-4.7309,-4.7309,-4.7309,-4.7309,-4.7309,0.0,0.0,-4.7309,-4.7525,-4.7964,-4.8007,-4.8218,-4.8563,-4.7989,-4.7342,-4.6665,-4.5341,-4.4702,-4.461,-4.461,-4.461,-4.461,-4.461,-4.461,-4.461,-4.461,-4.461,-4.461,-4.461,-4.3802,-4.2602,-4.2602,-4.174,-4.0505,-4.0505,-4.0505,-4.0505,-4.0505,-4.0536,-4.0659,-4.137,-4.2078,-4.2786,-4.3439,-4.4086,-4.461,-4.461,-4.4579,-4.4579,-4.4579,-4.4579,-4.4579,-4.4579,-4.4579,-4.461,-4.461,-4.4579,-4.4579,-4.461,-4.4579,-4.4579,-4.4579,-4.4548,-4.4302,-4.3655,-4.3562,-4.3347,-4.2694,-4.2571,-4.2571,-4.2571,-4.2509,-4.2232,-4.1586,-4.1555,-4.1247,-4.0536,-4.0505,-4.0505,-4.0505,-4.0505,-4.0505,-4.0505,-4.0505,-4.0505,-4.0505,-4.0505,-4.0505,-4.0505,-4.0505,-4.0505,-5.3915,-5.375,-5.3617,-5.3617,-5.2939,-5.2092,-5.1294,-5.0461,-4.963,-4.8769,-4.8604,-4.8604,-4.8604,-4.8604,-4.8563,-4.848,-4.8355,-4.826,-4.8091,-4.7794,-4.7581,-4.7495,-4.7396,-4.7309,-4.7309,0.0,0.0,0.0,0.0,-4.7525,-4.7964,-4.8007,-4.7962,-4.7989,-4.7742,-4.7065,-4.5957,-4.5033,-4.461,-4.461,-4.461,-4.461,-4.461,-4.461,-4.461,-4.461,-4.461,-4.461,-4.461,-4.461,-4.3802,-4.2602,-4.2602,-4.174,-4.0505,-4.0505,-4.0505,-4.0505,-4.0505,-4.0505,-4.0536,-4.0816,-4.1401,-4.2078,-4.2756,-4.3402,-4.4055,-4.4486,-4.461,-4.461,-4.461,-4.461,-4.461,-4.461,-4.461,-4.461,-4.461,-4.461,-4.461,-4.461,-4.461,-4.461,-4.461,-4.461,-4.4517,-4.4302,-4.424,-4.4178,-4.3895,-4.3494,-4.3217,-4.3217,-4.2848,-4.2509,-4.2263,-4.2232,-4.1955,-4.1247,-4.1217,-4.1001,-4.0505,-4.0505,-4.0505,-4.0505,-4.0505,-4.0505,-4.0505,-4.0505,-4.0505,-4.0505,-4.0505,-4.0505,-5.3983,-5.375,-5.3617,-5.3617,-5.3179,-5.2485,-5.1696,-5.0881,-5.0065,-4.9188,-4.8811,-4.8604,-4.8604,-4.8604,-4.8604,-4.8604,-4.848,-4.8385,-4.8301,-4.8049,-4.7794,-4.7624,-4.7452,-4.7396,-4.7309,0.0,0.0,0.0,0.0,0.0,-4.7837,-4.7964,-4.7749,-4.7281,-4.7065,-4.6388,-4.5249,-4.4787,-4.461,-4.461,-4.461,-4.461,-4.461,-4.461,-4.461,-4.461,-4.461,-4.461,-4.461,-4.4363,-4.3587,-4.2571,-4.2355,-4.1555,-4.0505,-4.0505,-4.0505,-4.0505,-4.0505,-4.0505,-4.0505,-4.0505,-4.1001,-4.1678,-4.214,-4.2879,-4.3685,-4.4148,-4.4456,-4.461,-4.461,-4.461,-4.461,-4.461,-4.461,-4.461,-4.461,-4.461,-4.461,-4.461,-4.461,-4.461,-4.461,-4.461,-4.461,-4.461,-4.461,-4.461,-4.461,-4.4209,-4.3963,-4.3963,-4.3525,-4.3187,-4.294,-4.294,-4.2663,-4.1986,-4.1955,-4.1617,-4.0909,-4.0843,-4.0751,-4.0505,-4.0505,-4.0505,-4.0505,-4.0505,-4.0505,-4.0505,-4.0505,-4.0505,0.0,0.0,0.0,-5.3518,-5.3518,-5.328,-5.2485,-5.1696,-5.0881,-5.0065,-4.9259,-4.8604,-4.8604,-4.8604,-4.8573,-4.8573,-4.8604,-4.8521,-4.8343,-4.8301,-4.8133,-4.7666,-4.7624,-4.7538,-4.7352,0.0,0.0,0.0,-4.7309,-4.7396,-4.7581,-4.7849,-4.7546,-4.6634,-4.5926,-4.5249,-4.4641,-4.461,-4.461,-4.461,-4.461,-4.461,-4.461,-4.461,-4.461,-4.461,-4.461,-4.461,-4.4579,-4.3901,-4.3187,-4.254,-4.1863,-4.1155,-4.0505,-4.0505,-4.0505,-4.0505,-4.0505,-4.0505,-4.0505,-4.0505,-4.1001,-4.1586,-4.1586,-4.2509,-4.3562,-4.3593,-4.4086,-4.461,-4.461,-4.461,-4.461,-4.461,-4.461,-4.461,-4.461,-4.461,-4.461,-4.461,-4.461,-4.461,-4.461,-4.461,-4.461,-4.461,-4.461,-4.461,-4.461,-4.461,-4.461,-4.461,-4.461,-4.4363,-4.3685,-4.3624,-4.3347,-4.2663,-4.2633,-4.2325,-4.1648,-4.1617,-4.1309,-4.0566,-4.0566,-4.0536,-4.0536,-4.0505,-4.0505,-4.0505,-4.0505,-4.0505,-5.412,0.0,0.0,0.0,0.0,0.0,-5.2485,-5.2128,-5.1586,-5.0182,-4.971,-4.9349,-4.8728,-4.8204,-4.7896,-4.7896,-4.8296,-4.8563,-4.8521,-4.8385,-4.826,-4.8133,-4.7964,-4.7794,0.0,0.0,0.0,0.0,-4.7309,-4.7482,-4.788,-4.7343,-4.6852,-4.6603,-4.5464,-4.4795,-4.461,-4.461,-4.461,-4.461,-4.461,-4.461,-4.461,-4.461,-4.461,-4.461,-4.461,-4.461,-4.4579,-4.3901,-4.3187,-4.254,-4.1863,-4.1155,-4.0505,-4.0505,-4.0505,-4.0505,-4.0505,-4.0505,-4.0505,-4.0505,-4.0628,-4.0909,-4.1432,-4.2202,-4.2971,-4.347,-4.4086,-4.461,-4.461,-4.461,-4.461,-4.461,-4.461,-4.461,-4.461,-4.461,-4.461,-4.461,-4.461,-4.461,-4.461,-4.461,-4.461,-4.461,-4.461,-4.461,-4.461,-4.461,-4.461,-4.461,-4.461,-4.4548,-4.4363,-4.4332,-4.4055,-4.3377,-4.331,-4.3002,-4.2355,-4.2325,-4.2232,-4.2048,-4.2048,-4.1801,-4.1309,-4.0751,-4.0505,-4.0505,-4.0505,-4.0505,-5.4056,-5.3718,-5.3618,-5.3618,0.0,0.0,-5.2903,-5.252,-5.2056,-5.1102,-5.0122,-4.9308,-4.8792,-4.7862,-4.7188,-4.7188,-4.7527,-4.7865,-4.8142,-4.8326,-4.8396,-4.8301,-4.8218,-4.8049,0.0,-4.7666,-4.7538,-4.7409,-4.7352,-4.7332,-4.7413,-4.6702,-4.6242,-4.6054,-4.5087,-4.461,-4.461,-4.461,-4.461,-4.461,-4.461,-4.461,-4.461,-4.461,-4.461,-4.461,-4.461,-4.461,-4.4579,-4.3901,-4.3187,-4.254,-4.1863,-4.1155,-4.0505,-4.0505,-4.0505,-4.0505,-4.0505,-4.0505,-4.0505,-4.0505,-4.0505,-4.0566,-4.1032,-4.1832,-4.2694,-4.3063,-4.3864,-4.461,-4.461,-4.461,-4.461,-4.461,-4.461,-4.461,-4.461,-4.461,-4.461,-4.461,-4.461,-4.461,-4.461,-4.461,-4.461,-4.461,-4.461,-4.461,-4.461,-4.461,-4.461,-4.461,-4.461,-4.461,-4.461,-4.461,-4.4456,-4.4055,-4.4024,-4.3747,-4.3033,-4.3002,-4.2879,-4.2602,-4.2602,-4.2417,-4.2017,-4.1309,-4.0782,-4.0505,-4.0505,-4.0505,-5.3923,-5.3518,-5.3518,-5.3518,-5.3518,0.0,-5.3518,-5.2938,-5.2414,-5.2307,-5.0561,-4.9031,-4.8916,-4.7653,-4.6638,-4.6638,-4.6559,-4.6726,-4.7404,-4.8081,-4.8429,-4.8263,-4.8282,-4.826,-4.8049,-4.7794,-4.7666,-4.7581,-4.7349,-4.7019,-4.6539,-4.604,-4.5677,-4.5306,-4.4826,-4.4572,-4.461,-4.461,-4.461,-4.461,-4.461,-4.461,-4.461,-4.461,-4.461,-4.461,-4.461,-4.461,-4.4579,-4.3963,-4.3248,-4.254,-4.1863,-4.1155,-4.0505,-4.0505,-4.0505,-4.0505,-4.0505,-4.0505,-4.0505,-4.0505,-4.0505,-4.0505,-4.0505,-4.1458,-4.2633,-4.2786,-4.3679,-4.461,-4.461,-4.461,-4.461,-4.461,-4.461,-4.461,-4.461,-4.461,-4.461,-4.461,-4.461,-4.461,-4.461,-4.461,-4.461,-4.461,-4.461,-4.461,-4.461,-4.461,-4.461,-4.461,-4.461,-4.461,-4.461,-4.461,-4.461,-4.461,-4.461,-4.4332,-4.3747,-4.3716,-4.3439,-4.2848,-4.2756,-4.2725,-4.2725,-4.2048,-4.137,-4.072,-4.0659,-4.0597,-5.3923,-5.3518,-5.3518,-5.3518,-5.3518,0.0,-5.3518,-5.3382,-5.3109,-5.2414,-5.143,-5.0442,-4.9821,-4.8014,-4.6699,-4.6699,-4.6167,-4.6018,-4.6696,-4.7373,-4.7763,-4.7722,-4.8214,0.0,-4.826,-4.8218,-4.8007,-4.7624,-4.7069,-4.6467,-4.5917,-4.5415,-4.523,-4.5275,-4.4672,-4.4419,-4.461,-4.461,-4.461,-4.461,-4.461,-4.461,-4.461,-4.461,-4.461,-4.461,-4.461,-4.461,-4.461,-4.4486,-4.3679,-4.254,-4.1863,-4.1155,-4.0505,-4.0505,-4.0505,-4.0505,-4.0505,-4.0505,-4.0505,-4.0505,-4.0505,-4.0505,-4.0505,-4.1458,-4.2848,-4.3895,-4.4425,-4.461,-4.461,-4.461,-4.461,-4.461,-4.461,-4.461,-4.461,-4.461,-4.461,-4.461,-4.461,-4.461,-4.461,-4.461,-4.461,-4.461,-4.461,-4.461,-4.461,-4.461,-4.461,-4.461,-4.461,-4.461,-4.461,-4.461,-4.461,-4.461,-4.461,-4.4548,-4.4425,-4.4425,-4.4363,-4.4202,-4.3685,-4.3408,-4.3408,-4.2725,-4.2325,-4.2202,-4.1648,-4.1401,-5.3788,-5.3518,-5.3518,-5.3518,-5.3518,0.0,0.0,-5.3518,-5.3382,-5.2972,-5.1691,-5.0481,-5.0096,-4.8214,-4.6745,-4.6745,-4.6129,-4.5765,-4.6109,-4.6686,-4.7096,-4.7096,-4.7404,0.0,-4.7456,-4.7375,-4.7128,-4.6629,-4.6297,-4.5815,-4.5182,-4.5092,-4.4917,-4.463,-4.4527,-4.4458,-4.4458,-4.4534,-4.461,-4.461,-4.461,-4.461,-4.461,-4.461,-4.461,-4.461,-4.461,-4.461,-4.461,-4.461,-4.3802,-4.2571,-4.2232,-4.1463,-4.0505,-4.0505,-4.0505,-4.0505,-4.0505,-4.0505,-4.0505,-4.0505,-4.0505,-4.0505,-4.0505,-4.1458,-4.2879,-4.4202,-4.461,-4.461,-4.461,-4.461,-4.461,-4.461,-4.461,-4.461,-4.461,-4.461,-4.461,-4.461,-4.461,-4.461,-4.461,-4.461,-4.461,-4.461,-4.461,-4.461,-4.461,-4.461,-4.461,-4.461,-4.461,-4.461,-4.461,-4.461,-4.461,-4.461,-4.461,-4.461,-4.461,-4.461,-4.461,-4.461,-4.4271,-4.4117,-4.4117,-4.3741,-4.3248,-4.2602,-4.2263,-4.2109,-5.3687,-5.3518,-5.3518,-5.3518,-5.3518,-5.3518,0.0,0.0,0.0,-5.3518,-5.1799,-5.0292,-5.0292,0.0,0.0,-4.7001,0.0,0.0,0.0,-4.5995,0.0,-4.6388,-4.6511,0.0,-4.6603,-4.6404,-4.6102,-4.5586,-4.5505,-4.5162,-4.4499,-4.4698,-4.4534,-4.3988,-4.4343,-4.4458,-4.4297,-4.4458,-4.4572,-4.461,-4.4572,-4.4572,-4.461,-4.461,-4.461,-4.461,-4.461,-4.461,-4.461,-4.461,-4.3802,-4.2602,-4.2602,-4.174,-4.0505,-4.0505,-4.0505,-4.0505,-4.0505,-4.0505,-4.0505,-4.0505,-4.0505,-4.0536,-4.0812,-4.1709,-4.2879,-4.4202,-4.461,-4.461,-4.461,-4.461,-4.461,-4.461,-4.461,-4.461,-4.461,-4.461,-4.461,-4.461,-4.461,-4.461,-4.461,-4.461,-4.461,-4.461,-4.461,-4.461,-4.461,-4.461,-4.461,-4.461,-4.461,-4.461,-4.461,-4.4723,-4.4761,-4.461,-4.4874,-4.4911,-4.461,-4.461,-4.461,-4.461,-4.461,-4.461,-4.461,-4.461,-4.4018,-4.2971,-4.2848,-4.2786,-5.3687,-5.3518,-5.3518,-5.3518,-5.3518,-5.3518,-5.3518,0.0,-5.3518,-5.3518,0.0,0.0,0.0,0.0,0.0,0.0,0.0,0.0,-4.5697,-4.5192,-4.5033,-4.5618,-4.6234,0.0,0.0,-4.6404,-4.6039,-4.5388,-4.516,-4.4807,-4.407,-4.4109,-4.4048,-4.3988,-4.422,-4.4305,-4.4297,-4.4305,-4.4419,-4.461,-4.4419,-4.4419,-4.461,-4.461,-4.461,-4.461,-4.461,-4.461,-4.461,-4.461,-4.3802,-4.2602,-4.2602,-4.174,-4.0505,-4.0505,-4.0505,-4.0505,-4.0505,-4.0505,-4.0505,-4.0505,-4.0505,-4.072,-4.1986,-4.2479,-4.2879,-4.4202,-4.461,-4.461,-4.461,-4.461,-4.461,-4.461,-4.461,-4.461,-4.461,-4.461,-4.461,-4.461,-4.461,-4.461,-4.461,-4.461,-4.461,-4.461,-4.461,-4.461,-4.461,-4.461,-4.461,-4.461,-4.461,-4.461,-4.461,-4.5216,-4.529,-4.4648,-4.5841,-4.5985,-4.4648,-4.461,-4.461,-4.461,-4.461,-4.461,-4.461,-4.461,-4.4548,-4.4356,-4.3778,-4.3501,0.0,0.0,0.0,0.0,0.0,0.0,-5.3518,0.0,-5.3518,0.0,0.0,0.0,0.0,0.0,0.0,0.0,-4.7638,0.0,0.0,0.0,-4.5161,0.0,0.0,0.0,0.0,0.0,0.0,0.0,-4.4616,-4.4456,-4.4181,-4.4181,-4.4181,-4.4181,-4.4343,-4.4419,-4.4297,-4.445,-4.4496,-4.461,-4.4496,-4.4496,-4.461,-4.461,-4.461,-4.461,-4.461,-4.461,-4.461,-4.461,-4.4018,-4.3125,-4.2756,-4.174,-4.0505,-4.0505,-4.0505,-4.0505,-4.0505,-4.0505,-4.0505,-4.0505,-4.0505,-4.0751,-4.2171,-4.2602,-4.2879,-4.4202,-4.461,-4.461,-4.461,-4.461,-4.461,-4.461,-4.461,-4.461,-4.461,-4.461,-4.461,-4.461,-4.461,-4.461,-4.461,-4.461,-4.461,-4.461,-4.461,-4.4761,-4.5179,-4.5253,-4.5405,-4.5841,-4.5877,-4.5697,-4.529,-4.5515,-4.54,-4.4648,-4.5179,-4.5253,-4.461,-4.461,-4.461,-4.461,-4.461,-4.461,-4.461,-4.461,-4.461,-4.461,-4.4332,-4.4178,-5.3518,0.0,0.0,0.0,0.0,0.0,0.0,0.0,0.0,0.0,0.0,0.0,0.0,0.0,0.0,-4.912,0.0,-4.7704,0.0,-4.6448,0.0,0.0,0.0,0.0,0.0,0.0,0.0,0.0,0.0,-4.4381,-4.4381,-4.4381,-4.4343,-4.4297,-4.4419,-4.4419,-4.422,-4.4335,-4.4381,-4.4496,-4.4458,-4.4496,-4.461,-4.461,-4.461,-4.461,-4.4534,-4.4496,-4.4496,-4.4496,-4.4096,-4.3488,-4.2811,-4.1827,-4.0681,-4.0566,-4.0505,-4.0505,-4.0505,-4.0505,-4.0505,-4.0505,-4.0505,-4.0751,-4.2171,-4.2602,-4.2879,-4.4202,-4.461,-4.461,-4.461,-4.461,-4.461,-4.461,-4.461,-4.461,-4.461,-4.461,-4.461,-4.461,-4.461,-4.461,-4.461,-4.461,-4.461,-4.461,-4.461,-4.4799,-4.5326,-4.54,-4.566,-4.6445,-4.634,-4.6056,-4.5733,-4.5697,-4.5551,-4.5216,-4.4805,-4.4685,-4.488,-4.4723,-4.461,-4.461,-4.461,-4.461,-4.461,-4.461,-4.461,-4.461,-4.461,-4.461,0.0,0.0,0.0,-5.3518,0.0,0.0,0.0,0.0,-5.3518,0.0,0.0,0.0,0.0,0.0,-4.9864,-4.912,-4.8386,0.0,0.0,0.0,0.0,0.0,0.0,0.0,0.0,0.0,0.0,0.0,0.0,0.0,-4.4572,-4.4572,-4.4496,-4.4335,-4.4335,-4.422,-4.4026,-4.3832,-4.391,-4.4335,-4.4104,-4.4189,-4.461,-4.461,-4.461,-4.4572,-4.4381,-4.4335,-4.4335,-4.4335,-4.3907,-4.3234,-4.2775,-4.2063,-4.1184,-4.0716,-4.0505,-4.0505,-4.0505,-4.0505,-4.0505,-4.0505,-4.0505,-4.0751,-4.2171,-4.2602,-4.2879,-4.4202,-4.461,-4.461,-4.461,-4.461,-4.461,-4.461,-4.461,-4.461,-4.461,-4.461,-4.461,-4.461,-4.461,-4.461,-4.461,-4.461,-4.461,-4.461,-4.461,-4.461,-4.4648,-4.4648,-4.4918,-4.566,-4.5104,-4.4955,-4.5624,-4.5697,-4.5985,-4.6689,-4.5369,-4.4918,-4.5624,-4.4955,-4.461,-4.461,-4.461,-4.461,-4.461,-4.461,-4.461,-4.461,-4.461,-4.461,0.0,0.0,-5.3518,-5.3518,0.0,0.0,0.0,0.0,0.0,0.0,0.0,0.0,0.0,0.0,-5.0439,-4.9221,-4.8798,-4.845,0.0,0.0,0.0,0.0,0.0,0.0,0.0,0.0,0.0,0.0,-4.461,0.0,0.0,-4.461,-4.4572,-4.4496,-4.4343,-4.4297,-4.422,-4.3988,-4.3988,-4.4104,-4.4181,-4.4297,-4.4381,-4.4534,-4.461,-4.4572,-4.4381,-4.4297,-4.4266,-4.4181,-4.3952,-4.3678,-4.3114,-4.2406,-4.1675,-4.0725,-4.0366,-4.0366,-4.047,-4.0505,-4.0505,-4.0505,-4.0505,-4.0751,-4.2171,-4.2602,-4.2879,-4.4202,-4.461,-4.461,-4.461,-4.461,-4.461,-4.461,-4.461,-4.461,-4.461,-4.461,-4.461,-4.461,-4.461,-4.461,-4.461,-4.461,-4.461,-4.461,-4.461,-4.4799,-4.529,-4.5326,-4.5588,-4.6375,-4.6198,-4.5985,-4.5733,-4.5253,-4.5067,-4.5326,-4.4874,-4.4723,-4.4955,-4.4723,-4.461,-4.461,-4.461,-4.461,-4.461,-4.461,-4.461,-4.461,-4.461,-4.461,-5.3518,-5.3518,0.0,-5.3518,-5.3518,0.0,-5.3518,0.0,0.0,0.0,0.0,0.0,0.0,0.0,0.0,-4.9255,-4.9018,0.0,0.0,-4.7238,0.0,0.0,0.0,-4.461,0.0,0.0,0.0,-4.461,-4.461,0.0,0.0,0.0,-4.4572,-4.4496,-4.4297,-4.4181,-4.4104,-4.3871,-4.3793,-4.391,-4.4026,-4.4181,-4.4305,-4.4419,-4.4496,-4.4458,-4.4297,-4.4143,-4.4065,-4.3949,-4.391,-4.3849,-4.3221,-4.2705,-4.2122,-4.0938,-4.0405,-4.0222,-4.0366,-4.0436,-4.0436,-4.0505,-4.0505,-4.0751,-4.2171,-4.2602,-4.2848,-4.3925,-4.4425,-4.4579,-4.4332,-4.4425,-4.461,-4.461,-4.461,-4.461,-4.461,-4.461,-4.461,-4.461,-4.461,-4.461,-4.461,-4.461,-4.461,-4.461,-4.461,-4.4761,-4.5253,-4.5326,-4.5588,-4.634,-4.6198,-4.5949,-4.5733,-4.529,-4.5104,-4.5363,-4.5142,-4.4993,-4.4993,-4.4761,-4.461,-4.461,-4.461,-4.461,-4.461,-4.461,-4.461,-4.461,-4.461,-4.461]},{"header":{"parameterUnit":"m.s-1","parameterCategory":1,"la1":30.6,"la2":29.2853,"lo1":-89.7004,"lo2":-87.6739,"dy":0.0162,"dx":0.0183,"nx":112,"ny":82,"refTime":"2024-05-02T00:00:00:Z","depth":0,"parameterNumber":3,"parameterNumberName":"V-component_of_WINDS"},"data":[0.0,0.0,0.0,0.0,0.0,0.0,0.0,0.0,0.0,0.0,0.0,0.0,0.0,0.0,0.0,0.0,0.0,0.0,0.0,0.0,0.0,0.0,0.0,0.0,0.0,0.0,0.0,0.0,0.0,0.0,0.0,0.0,0.0,0.0,0.0,0.0,0.0,0.0,0.0,0.0,0.0,0.0,0.0,0.0,0.0,0.0,0.0,0.0,0.0,0.0,0.0,0.0,0.0,0.0,0.0,0.0,0.0,0.0,0.0,0.0,0.0,0.0,0.0,0.0,0.0,0.0,0.0,0.0,0.0,0.0,0.0,0.0,0.0,0.0,0.0,0.0,0.0,0.0,0.0,0.0,0.0,0.0,0.0,0.0,0.0,0.0,0.0,0.0,0.0,0.0,0.7872,0.7872,0.6888,0.5659,0.4306,0.4183,0.3569,0.2096,0.0,0.0,0.0,0.0,0.0,0.0,0.0,0.0,0.0,0.0,0.0,0.0,0.0,0.0,0.0,0.0,0.0,0.0,0.0,0.0,0.0,0.0,0.0,0.0,0.0,0.0,0.0,0.0,0.0,0.0,0.0,0.0,0.0,0.0,0.0,0.0,0.0,0.0,0.0,0.0,0.0,0.0,0.0,0.0,0.0,0.0,0.0,0.0,0.0,0.0,0.0,0.0,0.0,0.0,0.0,0.0,0.0,0.0,0.0,0.0,0.0,0.0,0.0,0.0,0.0,0.0,0.0,0.0,0.0,0.0,0.0,0.0,0.0,0.0,0.0,0.0,0.0,0.0,0.0,0.0,0.0,0.0,0.0,0.0,0.0,0.0,0.0,0.0,0.0,0.0,0.0,0.0,0.0,0.0,0.0,0.0,0.0,0.0,0.0,0.0,0.0,0.0,0.0,0.0,0.7872,0.7872,0.775,0.7072,0.572,0.5598,0.4555,0.2157,0.0,0.0,0.0,0.0,0.0,0.0,0.0,0.0,0.0,0.0,0.0,0.0,0.0,0.0,0.0,0.0,0.0,0.0,0.0,0.0,0.0,0.0,0.0,0.0,0.0,0.0,0.0,0.0,0.0,0.0,0.0,0.0,0.0,0.0,0.0,0.0,0.0,0.0,0.0,0.0,0.0,0.0,0.0,0.0,0.0,0.0,0.0,0.0,0.0,0.0,0.0,0.0,0.0,0.0,0.0,0.0,0.0,0.0,0.0,0.0,0.0,0.0,0.0,0.0,0.0,0.0,0.0,0.0,0.0,0.0,0.0,0.0,0.0,0.0,0.0,0.0,0.0,0.0,0.0,0.0,0.0,0.0,0.0,0.0,0.0,0.0,0.0,0.0,0.0,0.0,0.0,0.0,0.0,0.0,0.0,0.0,0.0,0.0,0.0,0.0,0.0,0.0,0.0,0.7872,0.7872,0.7872,0.7872,0.7622,0.7011,0.7011,0.6149,0.4247,0.3262,0.0,0.0,0.0,0.0,0.0,0.0,0.0,0.0,0.0,0.0,0.0,0.0,0.0,0.0,0.0,0.0,0.0,0.0,0.0,0.0,0.0,0.0,0.0,0.0,0.0,0.0,0.0,0.0,0.0,0.0,0.0,0.0,0.0,0.0,0.0,0.0,0.0,0.0,0.0,0.0,0.0,0.0,0.0,0.0,0.0,0.0,0.0,0.0,0.0,0.0,0.0,0.0,0.0,0.0,0.0,0.0,0.0,0.0,0.0,0.0,0.0,0.0,0.0,0.0,0.0,0.0,0.0,0.0,0.0,0.0,0.0,0.0,0.0,0.0,0.0,0.0,0.0,0.0,0.0,0.0,0.0,0.0,0.0,0.0,0.0,0.0,0.0,0.0,0.0,0.0,0.0,0.0,0.0,0.0,0.0,0.0,0.0,0.0,0.0,0.0,0.0,0.0,0.7872,0.7872,0.7872,0.7872,0.7872,0.7872,0.7872,0.7317,0.597,0.4923,0.0,0.0,0.0,0.0,0.0,0.0,0.0,0.0,0.0,0.0,0.0,0.0,0.0,0.0,0.0,0.0,0.0,0.0,0.0,0.0,0.0,0.0,0.0,0.0,0.0,0.0,0.0,0.0,0.0,0.0,0.0,0.0,0.0,0.0,0.0,0.0,0.0,0.0,0.0,0.0,0.0,0.0,0.0,0.0,0.0,0.0,0.0,0.0,0.0,0.0,0.0,0.0,0.0,0.0,0.0,0.0,0.0,0.0,0.0,0.0,0.0,0.0,0.0,0.0,0.0,0.0,0.0,0.0,0.0,0.0,0.0,0.0,0.0,0.0,0.0,0.0,0.0,0.0,0.0,0.0,0.0,0.0,0.0,0.0,0.0,0.0,0.0,0.0,0.0,0.0,0.0,0.0,0.0,0.0,0.0,0.0,0.0,0.0,0.0,0.0,0.0,0.0,0.7872,0.7872,0.7872,0.7872,0.7872,0.7872,0.7872,0.7317,0.597,0.5782,0.0,0.0,0.0,0.0,0.0,0.0,0.0,0.0,0.0,0.0,0.0,0.0,0.0,0.0,0.0,0.0,0.0,0.0,0.0,0.0,0.0,0.0,0.0,0.0,0.0,0.0,0.0,0.0,0.0,0.0,0.0,0.0,0.0,0.0,0.0,0.0,0.0,0.0,0.0,0.0,0.0,0.0,0.0,0.0,0.0,0.0,0.0,0.0,0.0,0.0,0.0,0.0,0.0,0.0,0.0,0.0,0.0,0.0,0.0,0.0,0.0,0.0,0.0,0.0,0.0,0.0,0.0,0.0,0.0,0.0,0.0,0.0,0.0,0.0,0.0,0.0,0.0,0.0,0.0,0.0,0.0,0.0,0.0,0.0,0.0,0.0,0.0,0.0,0.0,0.0,0.0,0.0,0.0,0.0,0.0,0.0,0.0,0.0,0.0,0.0,0.0,0.0,0.8366,0.8149,0.8076,0.795,0.7845,0.7769,0.7828,0.7689,0.7194,0.0,0.0,0.0,0.0,0.0,0.0,0.0,0.0,0.0,0.0,0.0,0.0,0.0,0.0,0.0,0.0,0.0,0.0,0.0,0.0,0.0,0.0,0.0,0.0,0.0,0.0,0.0,0.0,0.0,0.0,0.0,0.0,0.0,0.0,0.0,0.0,0.0,0.0,0.0,0.0,0.0,0.0,0.0,0.0,0.0,0.0,0.0,0.0,0.0,0.0,0.0,0.0,0.0,0.0,0.0,0.0,0.0,0.0,0.0,0.0,0.0,0.0,0.0,0.0,0.0,0.0,0.0,0.0,0.0,0.0,0.0,0.0,0.0,0.0,0.0,0.0,0.0,0.0,0.0,0.0,0.0,0.0,0.0,0.0,0.0,0.0,0.0,0.0,0.0,0.0,0.0,0.0,0.0,0.0,0.0,0.0,0.0,0.0,0.0,0.0,0.0,0.0,0.8732,0.8552,0.8336,0.8183,0.8047,0.7906,0.7709,0.7807,0.7872,0.7872,0.0,0.0,0.0,0.0,0.0,0.0,0.0,0.0,0.0,0.0,0.0,0.0,0.0,0.0,0.0,0.0,0.0,0.0,0.0,0.0,0.0,0.0,0.0,0.0,0.0,0.0,0.0,0.0,0.0,0.0,0.0,0.0,0.0,0.0,0.0,0.0,0.0,0.0,0.0,0.0,0.0,0.0,0.0,0.0,0.0,0.0,0.0,0.0,0.0,0.0,0.0,0.0,0.0,0.0,0.0,0.0,0.0,0.0,0.0,0.0,0.0,0.0,0.0,0.0,0.0,0.0,0.0,0.0,0.0,0.0,0.0,0.0,0.0,0.0,0.0,0.0,0.0,0.0,0.0,0.0,0.0,0.0,0.0,0.0,0.0,0.0,0.0,0.0,0.0,0.0,0.0,0.0,0.0,0.0,0.0,0.0,0.0,0.0,0.0,0.0,0.0,0.0,0.8469,0.8457,0.8335,0.8038,0.8095,0.7991,0.7698,0.7801,0.7928,0.0,0.0,0.0,0.0,0.0,0.0,0.0,0.0,0.0,0.0,0.0,0.0,0.0,0.0,0.0,0.0,0.0,0.0,0.0,0.0,0.0,0.0,0.0,0.0,0.0,0.0,0.0,0.0,0.0,0.0,0.0,0.0,0.0,0.0,0.0,0.0,0.0,0.0,0.0,0.0,0.0,0.0,0.0,0.0,0.0,0.0,0.0,0.0,0.0,0.0,0.0,0.0,0.0,0.0,0.0,0.0,0.0,0.0,0.0,0.0,0.0,0.0,0.0,0.0,0.0,0.0,0.0,0.0,0.0,0.0,0.0,0.0,0.0,0.0,0.0,0.0,0.0,0.0,0.0,0.0,0.0,0.0,0.0,0.0,0.0,0.0,0.0,0.0,0.0,0.0,0.0,0.0,0.0,0.0,0.0,0.0,0.0,0.0,0.0,0.0,0.0,0.0,0.0,1.1553,1.0632,0.9896,0.9788,0.8891,0.8178,0.7795,0.7903,0.7858,0.7622,0.0,0.0,0.0,0.0,0.0,0.0,0.0,0.0,0.0,0.0,0.0,0.0,0.0,0.0,0.0,0.0,0.0,0.0,0.0,0.0,0.0,0.0,0.0,0.0,0.0,0.0,0.0,0.0,0.0,0.0,0.0,0.0,0.0,0.0,0.0,0.0,0.0,0.0,0.0,0.0,0.0,0.0,0.0,0.0,0.0,0.0,0.0,0.0,0.0,0.0,0.0,0.0,0.0,0.0,0.0,0.0,0.0,0.0,0.0,0.0,0.0,0.0,0.0,0.0,0.0,0.0,0.0,0.0,0.0,0.0,0.0,0.0,0.0,0.0,0.0,0.0,0.0,0.0,0.0,0.0,0.0,0.0,0.0,0.0,0.0,0.0,0.0,0.0,0.0,0.0,0.0,0.0,0.0,0.0,0.0,0.0,0.0,0.0,0.0,0.0,0.0,0.0,1.2683,1.1889,1.1285,1.112,1.0375,0.9753,0.9363,0.9502,0.9476,0.9245,0.0,0.0,0.0,0.0,0.0,0.0,0.0,0.0,0.0,0.0,0.0,0.0,0.0,0.0,0.0,0.0,0.0,0.0,0.0,0.0,0.0,0.0,0.0,0.0,0.0,0.0,0.0,0.0,0.0,0.0,0.0,0.0,0.0,0.0,0.0,0.0,0.0,0.0,0.0,0.0,0.0,0.0,0.0,0.0,0.0,0.0,0.0,0.0,0.0,0.0,0.0,0.0,0.0,0.0,0.0,0.0,0.0,0.0,0.0,0.0,0.0,0.0,0.0,0.0,0.0,0.0,0.0,0.0,0.0,0.0,0.0,0.0,0.0,0.0,0.0,0.0,0.0,0.0,0.0,0.0,0.0,0.0,0.0,0.0,0.0,0.0,0.0,0.0,0.0,0.0,0.0,0.0,0.0,0.0,0.0,0.0,0.0,0.0,0.0,0.0,0.0,0.0,1.2762,1.2635,1.2472,1.2254,1.2192,1.2071,1.1737,1.1838,1.1885,1.1885,0.0,0.0,0.0,0.0,0.0,0.0,0.0,0.0,0.0,0.0,0.0,0.0,0.0,0.0,0.0,0.0,0.0,0.0,0.0,0.0,0.0,0.0,0.0,0.0,0.0,0.0,0.0,0.0,0.0,0.0,0.0,0.0,0.0,0.0,0.0,0.0,0.0,0.0,0.0,0.0,0.0,0.0,0.0,0.0,0.0,0.0,0.0,0.0,0.0,0.0,0.0,0.0,0.0,0.0,0.0,0.0,0.0,0.0,0.0,0.0,2.2274,0.0,0.0,0.0,0.0,0.0,0.0,0.0,0.0,0.0,0.0,0.0,0.0,0.0,0.0,0.0,0.0,0.0,0.0,0.0,0.0,0.0,0.0,0.0,0.0,0.0,0.0,0.0,0.0,0.0,0.0,0.0,0.0,0.0,0.0,0.0,0.0,0.0,0.0,0.0,0.0,0.0,1.5137,1.4374,1.3781,1.3727,1.2891,1.2256,1.1982,1.1973,1.1881,1.1588,1.1278,0.0,0.0,0.0,0.0,0.0,0.0,0.0,0.0,0.0,0.0,0.0,0.0,0.0,0.0,0.0,0.0,0.0,0.0,0.0,0.0,0.0,0.0,0.0,0.0,0.0,0.0,0.0,0.0,0.0,0.0,0.0,0.0,0.0,0.0,0.0,0.0,0.0,0.0,0.0,0.0,0.0,0.0,0.0,0.0,0.0,0.0,0.0,0.0,0.0,0.0,0.0,0.0,0.0,0.0,0.0,0.0,0.0,0.0,0.0,0.0,2.2023,0.0,0.0,0.0,0.0,0.0,0.0,0.0,0.0,0.0,0.0,0.0,0.0,0.0,0.0,0.0,0.0,0.0,0.0,0.0,0.0,0.0,0.0,0.0,0.0,0.0,0.0,0.0,0.0,0.0,0.0,0.0,0.0,0.0,0.0,0.0,0.0,0.0,0.0,0.0,0.0,1.5885,1.5405,1.503,1.503,1.4482,1.404,1.3879,1.3879,1.3825,1.3642,1.294,0.0,0.0,0.0,0.0,0.0,0.0,0.0,0.0,0.0,0.0,0.0,0.0,0.0,0.0,0.0,0.0,0.0,0.0,0.0,0.0,0.0,0.0,0.0,0.0,0.0,0.0,0.0,0.0,0.0,0.0,0.0,0.0,0.0,0.0,0.0,0.0,0.0,0.0,0.0,0.0,0.0,0.0,0.0,0.0,0.0,0.0,0.0,0.0,0.0,0.0,0.0,0.0,0.0,2.7555,2.7311,2.6777,2.6777,2.6584,2.6025,2.3591,2.2866,2.3298,2.1582,0.0,0.0,0.0,0.0,0.0,0.0,0.0,0.0,0.0,0.0,0.0,0.0,0.0,0.0,0.0,0.0,0.0,0.0,0.0,0.0,0.0,0.0,0.0,0.0,1.7307,1.7141,0.0,0.0,0.0,0.0,0.0,0.0,0.0,0.0,0.0,0.0,0.0,0.0,1.5885,1.5885,1.5885,1.5885,1.5885,1.5885,1.5885,1.5885,1.5885,1.5885,1.4739,1.403,0.0,0.0,0.0,0.0,0.0,0.0,0.0,0.0,0.0,0.0,0.0,0.0,0.0,0.0,0.0,0.0,0.0,0.0,0.0,0.0,0.0,0.0,0.0,0.0,0.0,0.0,0.0,0.0,0.0,0.0,0.0,0.0,2.6855,2.6855,0.0,0.0,0.0,0.0,0.0,0.0,0.0,0.0,0.0,0.0,0.0,0.0,0.0,2.6922,2.7105,2.8013,2.8463,2.8527,2.9348,2.9091,2.7887,2.7887,2.7684,2.7221,2.5691,0.0,2.3349,2.2885,0.0,0.0,0.0,0.0,0.0,0.0,0.0,0.0,0.0,0.0,0.0,0.0,0.0,0.0,0.0,0.0,0.0,0.0,0.0,0.0,0.0,0.0,1.791,1.765,1.7346,1.7044,0.0,1.6779,1.6754,1.6754,1.6525,0.0,0.0,0.0,0.0,0.0,0.0,0.0,1.5885,1.5885,1.5885,1.5885,1.5885,1.5885,1.5885,1.5885,1.5885,1.5885,1.5725,1.5405,1.4869,1.4761,0.0,0.0,0.0,0.0,0.0,0.0,0.0,0.0,0.0,0.0,0.0,0.0,0.0,0.0,0.0,0.0,0.0,0.0,0.0,0.0,0.0,0.0,0.0,0.0,0.0,0.0,0.0,0.0,0.0,2.7652,2.7387,2.8262,2.6337,2.533,0.0,0.0,0.0,0.0,0.0,0.0,0.0,0.0,0.0,2.7965,2.7749,2.8037,2.8823,2.932,2.9564,2.9564,2.9966,2.9748,2.8959,2.8959,2.8745,2.825,2.6956,2.5993,2.536,2.4251,2.3015,2.1765,0.0,0.0,0.0,0.0,2.1622,2.1019,2.1145,2.0624,0.0,1.9738,0.0,0.0,0.0,0.0,0.0,0.0,0.0,0.0,0.0,0.0,1.7893,1.7604,1.7316,1.7067,1.6944,1.6795,1.6666,0.0,1.6247,1.6066,1.6066,0.0,0.0,0.0,0.0,1.5885,1.5885,1.5885,1.5885,1.5885,1.5885,1.5885,1.5885,1.5885,1.5885,1.5885,1.5885,1.5779,1.5523,1.5512,1.5512,0.0,0.0,0.0,0.0,0.0,0.0,0.0,0.0,0.0,0.0,0.0,0.0,0.0,0.0,0.0,0.0,0.0,0.0,0.0,0.0,0.0,0.0,0.0,0.0,0.0,0.0,0.0,0.0,2.9117,2.8772,2.9722,2.7734,2.6588,0.0,0.0,0.0,0.0,0.0,0.0,2.7522,2.7117,2.7584,2.9026,2.8811,2.9172,3.0204,3.0094,3.0039,3.0039,2.9929,2.9727,2.9415,2.9415,2.9269,2.8916,2.7942,2.7504,2.7383,2.5818,2.4348,2.3325,2.4286,2.3854,2.2812,2.3777,2.3484,2.2572,2.2635,2.1644,2.0301,2.0235,0.0,1.9107,1.9246,0.0,0.0,0.0,0.0,1.9273,1.9172,1.8781,1.8381,1.841,1.7952,1.7523,1.7445,1.7303,1.7,0.0,1.6233,1.6099,1.5992,0.0,0.0,0.0,0.0,1.5885,1.5885,1.5885,1.5885,1.5885,1.5885,1.5885,1.5885,1.5885,1.5885,1.5885,1.5885,1.5885,1.5885,1.5885,1.5885,1.5885,0.0,0.0,0.0,0.0,0.0,0.0,0.0,0.0,0.0,0.0,0.0,0.0,0.0,0.0,0.0,0.0,0.0,0.0,0.0,0.0,0.0,0.0,0.0,0.0,0.0,0.0,0.0,0.0,0.0,3.1377,3.0242,0.0,0.0,0.0,0.0,2.7105,2.6753,2.7166,2.8558,2.8247,2.8689,3.0098,3.008,3.0142,3.0204,2.98,2.9599,2.9659,2.9214,2.903,2.9012,2.9012,2.9012,2.8975,2.8916,2.8916,2.8797,2.7444,2.6095,2.4994,2.5956,2.5574,2.4394,2.4455,2.4192,2.3868,2.417,2.3247,2.1857,2.1627,2.0316,1.914,2.0256,2.0357,0.0,0.0,2.2035,2.1788,2.2104,2.0868,1.974,2.0529,1.9696,1.8652,1.8373,1.8304,1.7975,0.0,1.6683,1.6577,1.6324,0.0,1.6164,1.5939,1.5885,1.5885,1.5885,1.5885,1.5885,1.5885,1.5885,1.5885,1.5885,1.5885,1.5885,1.5885,1.5885,1.5885,1.5885,1.5885,1.5885,1.5885,1.5885,0.0,0.0,0.0,0.0,0.0,0.0,0.0,0.0,0.0,0.0,0.0,0.0,0.0,0.0,0.0,0.0,0.0,0.0,0.0,0.0,0.0,0.0,0.0,0.0,0.0,0.0,0.0,0.0,3.2083,3.089,0.0,3.0926,2.9431,2.8759,2.9421,2.9136,2.9116,2.9637,2.9261,2.9292,2.98,2.9544,2.9415,2.9415,2.9269,2.9195,2.9195,2.9048,2.8975,2.8975,2.8975,2.8975,2.8975,2.8975,2.8975,2.8975,2.848,2.7504,2.6399,2.7624,2.7323,2.6167,2.679,2.6364,2.5499,2.5326,2.4252,2.2871,2.259,2.2048,2.1616,2.2055,2.1902,2.1719,2.2276,2.2151,2.1836,2.1723,2.1192,2.0757,2.0888,2.0535,2.0141,2.0019,2.0004,1.9901,1.9487,1.7923,1.6683,1.6577,1.6577,1.6789,1.7397,1.6882,1.6935,1.838,1.7147,1.6418,1.7147,1.6471,1.6152,1.667,1.6205,1.6365,1.7424,1.7041,1.6988,1.7477,1.7529,1.7529,1.7529,1.7529,1.7687,0.0,0.0,0.0,0.0,0.0,0.0,0.0,0.0,0.0,0.0,0.0,0.0,0.0,0.0,0.0,0.0,0.0,0.0,0.0,0.0,0.0,0.0,0.0,0.0,0.0,3.2676,3.2676,3.2422,3.168,3.135,3.1851,3.081,3.032,3.084,3.0532,3.023,3.0187,2.9781,2.9481,2.9379,2.9122,2.8975,2.8975,2.8975,2.8975,2.8975,2.8975,2.8975,2.8975,2.8975,2.8975,2.8975,2.8975,2.8975,2.8975,2.8975,2.8498,2.7762,2.8677,2.8349,2.7533,2.8187,2.7665,2.6533,2.5749,2.4775,2.3788,2.3167,2.2974,2.3071,2.3334,2.3233,2.3075,2.334,2.3095,2.2761,2.2511,2.2103,2.1732,2.1962,2.1709,2.1454,2.1454,2.1454,2.1353,2.0979,1.9383,1.808,1.7975,1.7962,1.8067,1.8342,1.808,1.8224,1.9317,1.8342,1.7818,1.8603,1.7871,1.7503,1.8119,1.745,1.7555,1.8878,1.8094,1.7937,1.8617,1.8527,1.8422,1.8422,1.8684,1.8684,1.8422,0.0,0.0,0.0,0.0,0.0,0.0,0.0,0.0,0.0,0.0,0.0,0.0,0.0,0.0,0.0,0.0,0.0,0.0,0.0,0.0,0.0,0.0,0.0,3.2975,3.3165,3.3165,3.2485,3.2721,3.2612,3.1916,3.1797,3.1607,3.1129,3.0694,3.0347,3.0125,2.9733,2.9331,2.8975,2.8975,2.8975,2.8975,2.8975,2.8975,2.8975,2.8975,2.8975,2.8975,2.8975,2.8975,2.8975,2.8975,2.8975,2.8975,2.8975,2.8975,2.8975,2.8975,2.8737,2.8388,2.837,2.7856,2.6938,2.5415,2.4834,2.4667,2.348,2.3087,2.3231,2.4027,2.4233,2.4362,2.5193,2.5069,2.4757,2.4757,2.369,2.2837,2.3954,2.3338,2.2535,2.2535,2.2535,2.2266,2.1183,2.0979,2.0877,2.0487,2.0436,1.9973,1.8693,1.9369,0.0,1.8693,1.942,2.0025,2.0076,2.0025,2.0025,2.0025,1.9524,1.9472,2.0025,1.9072,1.8722,1.928,1.8774,1.8475,1.8475,1.9309,1.9309,1.8475,0.0,0.0,0.0,0.0,0.0,0.0,0.0,0.0,0.0,0.0,0.0,0.0,0.0,0.0,0.0,0.0,0.0,0.0,0.0,0.0,0.0,3.3418,3.3355,3.3292,3.3355,3.3355,3.3165,3.2956,3.268,3.2191,3.1616,3.1073,3.0717,3.026,2.9974,2.9677,2.9565,2.9331,2.8975,2.8975,2.8975,2.8975,2.8975,2.8975,2.8975,2.8975,2.8975,2.8975,2.8975,2.8975,2.8975,2.8975,2.8975,2.8957,2.8682,2.8553,2.8553,2.8553,2.8498,2.8315,2.7728,2.7196,2.6683,2.6281,2.6136,2.6081,2.5734,2.5429,2.5218,2.5433,2.5126,2.4657,2.4926,2.4698,2.4367,2.4367,2.4045,2.3786,2.4152,2.3954,2.3737,2.3737,2.3737,2.3637,2.3338,2.3288,2.2769,2.103,2.0775,2.0928,2.1336,2.0979,0.0,2.245,2.1253,2.059,2.1422,2.059,2.0246,2.0861,2.0246,2.0349,2.1743,2.0979,2.0826,2.154,2.1097,2.0601,2.0241,2.0447,2.0447,0.0,0.0,0.0,0.0,0.0,0.0,0.0,0.0,0.0,0.0,0.0,0.0,0.0,0.0,0.0,0.0,0.0,0.0,0.0,0.0,0.0,0.0,3.3418,3.3418,3.3418,3.3418,3.3418,3.3418,3.3047,3.2672,3.2312,3.1593,3.1069,3.0717,3.0581,3.0424,3.0168,3.0279,3.0212,2.973,2.973,2.961,2.9489,2.9324,2.9232,2.9232,2.9067,2.8975,2.8975,2.8975,2.8975,2.8975,2.8975,2.8975,2.8957,2.8553,2.8388,0.0,0.0,0.0,0.0,0.0,2.6793,2.6591,2.6591,2.6481,2.6334,2.6334,2.6094,2.5727,2.5561,2.5142,2.4739,2.4624,2.4385,2.4202,2.4202,2.4202,2.4202,2.4202,2.4202,2.4202,2.4202,2.4202,2.4202,2.4202,2.4202,0.0,2.2518,2.2266,2.2316,2.2485,2.2367,2.2568,2.3388,2.2601,2.2232,2.2902,2.2249,2.1929,2.245,2.1844,0.0,0.0,0.0,2.2013,2.2485,2.2182,0.0,0.0,0.0,2.1573,2.1573,0.0,0.0,0.0,2.0189,2.0189,0.0,0.0,0.0,0.0,0.0,0.0,0.0,0.0,0.0,0.0,0.0,0.0,0.0,0.0,0.0,0.0,3.3418,3.3418,3.3418,3.3418,3.3398,3.3359,3.2988,3.2578,3.2207,3.1777,3.1387,3.1055,3.1387,3.1403,3.1084,0.0,0.0,0.0,0.0,3.0618,3.0266,2.9898,2.9678,2.9623,2.9214,2.903,2.8975,2.8975,2.8975,2.8975,2.8975,2.8975,2.8957,2.8517,2.8278,2.815,2.782,2.7509,2.7068,2.6719,2.6591,2.6591,2.6591,0.0,0.0,2.6021,2.5708,2.5286,2.4886,2.4757,2.4629,2.4312,2.4202,2.4202,2.4202,2.4202,2.4202,2.4202,2.4202,2.4202,2.4202,2.4202,2.4202,2.4202,2.4202,2.4202,2.4202,2.4202,2.3854,2.2837,2.3538,2.3836,2.2837,2.3587,2.4202,2.4202,0.0,0.0,2.4202,2.3687,2.3637,2.4152,2.3238,2.2669,2.2568,2.2568,2.2585,2.2485,2.2485,2.2485,2.2485,2.2485,2.2485,2.2485,2.1522,2.1078,0.0,0.0,0.0,0.0,0.0,0.0,0.0,0.0,0.0,0.0,0.0,0.0,0.0,0.0,0.0,3.3418,3.3418,3.3418,3.3418,3.3418,3.3301,3.2949,3.2539,3.2266,3.2229,3.1777,3.1621,3.1894,3.1992,3.193,3.1546,3.1642,3.1497,3.111,3.111,3.0926,3.0618,3.0544,3.0198,2.9562,0.0,0.0,2.8975,2.8975,2.8975,2.8975,2.8975,2.8975,2.892,2.8244,2.7508,2.6958,2.7196,2.705,2.6701,2.6609,2.6591,2.6591,2.6591,2.637,2.6021,2.6021,2.5525,2.4886,2.4812,2.4537,0.0,2.422,2.4202,2.4202,2.4202,2.4202,2.4202,2.4202,2.4202,2.4202,2.4202,2.4202,2.4202,2.4202,2.4202,2.4202,2.4202,2.4202,2.4152,2.3904,2.4053,2.4102,2.3904,2.4053,2.4202,2.4202,2.4202,2.4202,2.4202,2.4102,2.4102,2.4202,2.4003,2.3637,2.3188,2.3138,2.292,2.2535,2.2485,2.2485,2.2485,2.2485,2.2485,2.2485,2.2283,2.2182,0.0,0.0,0.0,0.0,0.0,0.0,0.0,0.0,0.0,0.0,0.0,3.3418,3.3418,0.0,3.3418,3.3418,3.3418,3.3418,3.3418,3.3418,3.334,3.3125,3.2734,3.248,3.248,3.209,3.1934,3.2148,3.2363,3.2419,3.2235,3.2428,3.242,3.2047,3.2047,3.1797,3.1295,3.109,3.0649,2.9892,2.9672,2.936,2.8975,2.8975,2.8975,2.8975,2.8975,2.8975,2.892,2.8095,2.7362,2.6609,2.6811,2.6756,2.6591,2.6591,2.6591,2.6591,2.6591,2.637,2.6021,2.6021,2.547,2.4776,2.4776,2.4532,2.4202,2.4202,2.4202,2.4202,2.4202,2.4202,2.4202,2.4202,2.4202,2.4202,2.4202,2.4202,2.4202,2.4202,2.4202,2.4202,2.4202,2.4202,2.4202,2.4202,2.4202,2.4202,2.4202,2.4202,2.4202,2.4202,2.4202,2.4202,2.4202,2.4202,2.4202,2.4202,2.4202,2.4053,2.3737,2.3737,2.3637,2.3338,2.3338,2.3338,2.3338,2.3338,2.3338,2.3338,2.3338,2.3038,0.0,0.0,0.0,0.0,0.0,0.0,0.0,3.3418,3.3418,3.3418,3.3418,3.3418,3.3418,3.3418,3.3418,3.3418,3.3418,3.3418,3.3418,3.3418,3.3418,3.3418,3.3047,3.2793,3.2793,3.248,3.2324,3.2402,3.2734,3.291,3.291,3.3242,3.3292,3.2994,3.2975,3.274,3.2102,3.1701,3.1102,3.0309,2.9917,2.9434,2.8975,2.8975,2.8975,2.8975,2.8975,2.8902,2.87,2.8097,2.7362,2.6591,2.6591,2.6591,2.6591,2.6591,2.6591,2.6591,2.6591,2.637,2.6021,2.6021,2.547,2.4776,2.4776,2.4532,2.4202,2.4202,2.4202,2.4202,2.4202,2.4202,2.4202,2.4202,2.4202,2.4202,2.4202,2.4202,2.4202,2.4202,2.4202,2.4202,2.4202,2.4202,2.4202,2.4202,2.4202,2.4202,2.4202,2.4202,2.4202,2.4202,2.4202,2.4202,2.4202,2.4202,2.4202,2.4202,2.4202,2.4202,2.4202,2.4202,2.4202,2.4202,2.4202,2.4202,2.4202,2.4202,2.4202,2.4202,2.4202,2.3687,3.3418,3.3418,3.3418,3.3418,3.3418,3.3418,0.0,3.3418,3.3418,3.3418,3.3418,3.3418,3.3418,3.3418,3.3418,3.3418,3.3418,3.3418,3.3418,3.3418,3.3418,3.3418,3.3047,3.2793,3.2793,3.2754,3.2871,3.3242,3.332,3.3359,3.3359,3.3398,3.3355,3.3355,3.3355,3.3165,3.2785,3.2428,3.1696,3.0618,3.0272,2.9727,2.8975,2.8975,2.8975,2.8975,2.8975,2.8572,2.795,2.7858,2.7362,2.6591,2.6591,2.6591,2.6591,2.6591,2.6591,2.6591,2.6591,2.637,2.6021,2.6021,2.547,2.4776,2.4776,2.4532,2.4202,2.4202,2.4202,2.4202,2.4202,2.4202,2.4202,2.4202,2.4202,2.4202,2.4202,2.4202,2.4202,2.4202,2.4202,2.4202,2.4202,2.4202,2.4202,2.4202,2.4202,2.4202,2.4202,2.4202,2.4202,2.4202,2.4202,2.4202,2.4202,2.4202,2.4202,2.4202,2.4202,2.4202,2.4202,2.4202,2.4202,2.4202,2.4202,2.4202,2.4202,2.4202,2.4202,2.4202,2.4202,2.4152,3.3418,3.3965,3.4403,3.3607,3.3418,3.3418,3.3418,3.3418,3.3418,3.3418,3.3418,3.3418,3.3418,3.3418,3.3418,3.3418,3.3418,3.3418,3.3418,3.3418,3.3418,3.3418,3.3262,3.3164,3.3164,3.3164,3.3242,3.3418,3.3418,3.3418,3.3418,3.3418,3.3418,3.3418,3.3418,3.3228,3.2912,3.2555,3.1759,3.068,3.0499,3.0009,2.9272,2.9272,2.9153,2.8975,2.8737,2.8315,2.7803,2.7583,2.7086,2.6591,2.6591,2.6591,2.6591,2.6591,2.6591,2.6591,2.6591,2.6481,2.6334,2.6334,2.5784,2.5124,2.5124,2.4716,2.4202,2.4202,2.4202,2.4202,2.4202,2.4202,2.4202,2.4202,2.4202,2.4202,2.4202,2.4202,2.4202,2.4202,2.4202,2.4202,2.4202,2.4202,2.4202,2.4202,2.4202,2.4202,2.4202,2.4202,2.4202,2.4202,2.4202,2.4202,2.4202,2.4202,2.4202,2.4202,2.4202,2.4202,2.4202,2.4202,2.4202,2.4202,2.4202,2.4202,2.4202,2.4202,2.4449,2.4824,2.4824,2.5118,3.4403,3.4632,3.4694,3.409,3.367,3.3418,3.3418,3.3418,3.3418,3.3418,3.3418,3.3418,3.3418,3.3418,3.3418,3.3418,3.3418,3.3418,3.3418,3.3418,3.3418,3.3418,3.3418,3.3418,3.3418,3.3418,3.3418,3.3418,3.3418,3.3418,3.3418,3.3418,3.3418,3.3418,3.3418,3.3292,3.3038,3.257,3.1837,3.0987,3.0676,3.02,2.9627,2.9509,2.9331,2.8957,2.8572,2.815,2.7785,2.7399,2.694,2.6591,2.6591,2.6591,2.6591,2.6591,2.6591,2.6591,2.6591,2.6591,2.6591,2.6591,2.6041,2.5414,2.5414,2.4845,2.4202,2.4202,2.4202,2.4202,2.4202,2.4202,2.4202,2.4202,2.4202,2.4202,2.4202,2.4202,2.4202,2.4202,2.4202,2.4202,2.4202,2.4202,2.4202,2.4202,2.4202,2.4202,2.4202,2.4202,2.4202,2.4202,2.4202,2.4202,2.4202,2.4202,2.4202,2.4202,2.4202,2.4202,2.4202,2.4202,2.4202,2.4202,2.4202,2.4301,2.448,2.448,2.4873,2.5635,2.5635,2.6071,3.6824,3.5355,3.3776,3.5005,3.434,3.3418,3.3418,3.3418,3.3418,3.3418,3.3418,3.3418,3.3418,3.3418,3.3418,3.3418,3.3418,3.3418,3.3418,3.3418,3.3418,3.3418,3.3418,3.3418,3.3418,3.3418,3.3418,3.3418,3.3418,3.3418,3.3418,3.3418,3.3418,3.3418,3.3418,3.3418,3.3355,3.2633,3.2104,3.168,3.0857,3.026,2.9863,2.9627,2.9331,2.8957,2.8572,2.815,2.7785,2.7399,2.694,2.6591,2.6591,2.6591,2.6591,2.6591,2.6591,2.6591,2.6591,2.6591,2.6591,2.6591,2.6041,2.5414,2.5414,2.4845,2.4202,2.4202,2.4202,2.4202,2.4202,2.4202,2.4202,2.4202,2.4202,2.4202,2.4202,2.4202,2.4202,2.4202,2.4202,2.4202,2.4202,2.4202,2.4202,2.4202,2.4202,2.4202,2.4202,2.4202,2.4202,2.4202,2.4202,2.4202,2.4202,2.4202,2.4202,2.4202,2.4202,2.4202,2.4202,2.4202,2.4202,2.4202,2.4202,2.4529,2.5294,2.5294,2.5684,2.6456,2.6456,2.6887,3.6399,3.6032,3.5664,3.4403,3.3733,3.3418,3.3418,3.3418,3.3418,3.3418,3.3418,3.3418,3.3418,3.3418,3.3418,3.3418,3.3418,3.3418,3.3418,3.3418,3.3418,3.3418,3.3418,3.3418,3.3418,3.3418,3.3418,3.3418,3.3418,3.3418,3.3418,3.3418,3.3418,3.3418,3.3418,3.3418,3.3418,3.2611,3.206,3.168,3.083,3.035,3.0216,2.9922,2.9627,2.9294,2.8376,2.795,2.7767,2.7068,2.6701,2.6591,2.6591,2.6591,2.6591,2.6591,2.6591,2.6591,2.6591,2.6591,2.6591,2.6591,2.6041,2.5414,2.5414,2.4845,2.4202,2.4202,2.4202,2.4202,2.4202,2.4202,2.4202,2.4202,2.4202,2.4202,2.4202,2.4202,2.4202,2.4202,2.4202,2.4202,2.4202,2.4202,2.4202,2.4202,2.4202,2.4202,2.4202,2.4202,2.4202,2.4202,2.4202,2.4202,2.4202,2.4202,2.4202,2.4202,2.4202,2.4202,2.4202,2.4202,2.4202,2.4202,2.4677,2.505,2.5294,2.5829,2.6504,2.722,2.722,2.7647,3.652,3.5971,3.5602,3.4403,3.3733,3.3418,3.3418,3.3418,3.3418,3.3418,3.3418,3.3418,3.3418,3.3418,3.3418,3.3418,3.3418,3.3418,3.3418,3.3418,3.3418,3.3418,3.3418,3.3418,3.3418,3.3418,3.3418,3.3418,3.3418,3.3418,3.3418,3.3418,3.3418,3.3418,3.3418,3.334,3.3203,3.2519,3.1951,3.1399,3.0838,3.0509,3.0392,3.0157,2.9787,2.9189,2.8346,2.7805,2.7508,2.6848,2.6591,2.6591,2.6591,2.6591,2.6591,2.6591,2.6591,2.6591,2.6591,2.6591,2.6591,2.6591,2.6041,2.5414,2.5414,2.4845,2.4202,2.4202,2.4202,2.4202,2.4202,2.4202,2.4202,2.4202,2.4202,2.4202,2.4202,2.4202,2.4202,2.4202,2.4202,2.4202,2.4202,2.4202,2.4202,2.4202,2.4202,2.4202,2.4202,2.4202,2.4202,2.4202,2.4202,2.4202,2.4202,2.4202,2.4202,2.4202,2.4202,2.4202,2.4202,2.4202,2.435,2.4578,2.505,2.5586,2.6099,2.6648,2.7268,2.8023,2.8023,2.8326,3.7248,3.5355,3.3796,3.5005,3.434,3.3418,3.3418,3.3418,3.3418,3.3418,3.3418,3.3418,3.3418,3.3418,3.3418,3.3418,3.3418,3.3418,3.3418,3.3418,3.3418,3.3418,3.3418,3.3418,3.3418,3.3418,3.3418,3.3418,0.0,3.3418,3.3418,3.3418,3.3418,3.3418,3.3418,3.3223,3.2793,3.2363,3.1719,3.0898,3.0898,3.0704,3.045,3.0392,2.9792,2.8797,2.8406,2.7827,2.7141,2.6756,2.6591,2.6591,2.6591,2.6591,2.6591,2.6591,2.6591,2.6591,2.6591,2.6591,2.6591,2.6591,2.6041,2.5414,2.5414,2.4845,2.4202,2.4202,2.4202,2.4202,2.4202,2.4202,2.4202,2.4202,2.4202,2.4202,2.4202,2.4202,2.4202,2.4202,2.4202,2.4202,2.4202,2.4202,2.4202,2.4251,2.4202,2.4202,2.4202,2.4202,2.4202,2.4202,2.4202,2.4202,2.4202,2.4202,2.4202,2.4202,2.4202,2.4202,2.4251,2.4251,2.4578,2.5343,2.5392,2.6147,2.76,2.7647,2.8023,2.8792,2.8792,2.8792,3.6154,3.5376,3.4694,3.409,3.367,3.3418,3.3418,3.3418,3.3418,3.3418,3.3418,3.3418,3.3418,3.3418,3.3418,3.3418,3.3418,3.3418,3.3418,3.3418,3.3418,3.3418,3.3418,3.3418,3.3418,3.3418,3.3418,3.3418,3.3418,3.3418,3.3418,3.3418,3.3418,3.3418,3.3418,3.3223,3.2793,3.2051,3.1426,3.0898,3.0898,3.084,3.0762,3.0509,2.9967,2.9144,2.8463,2.7827,2.7141,2.6756,2.6591,2.6591,2.6591,2.6591,2.6591,2.6591,2.6591,2.6591,2.6591,2.6591,2.6591,2.6591,2.6041,2.5414,2.5414,2.4845,2.4202,2.4202,2.4202,2.4202,2.4202,2.4202,2.4202,2.4202,2.4202,2.4202,2.4202,2.4202,2.4202,2.4202,2.4202,2.4251,2.4399,2.443,2.448,2.4695,2.4548,2.4399,2.4202,2.4202,2.4202,2.4202,2.4202,2.4202,2.4202,2.4202,2.4202,2.4202,2.4202,2.443,2.5001,2.5001,2.5392,2.6167,2.6723,2.72,2.76,2.8211,2.8606,2.8792,2.8792,2.8792,3.4881,3.4528,3.434,3.3607,3.3418,3.3418,3.3418,3.3418,3.3418,3.3418,3.3418,3.3418,3.3418,3.3418,3.3418,3.3418,3.3418,3.3418,3.3418,3.3418,3.3418,3.3418,3.3418,3.3418,3.3418,3.3418,3.3418,3.3418,3.3418,3.3418,3.3418,3.3418,3.3418,3.3418,3.3242,3.2851,3.2246,3.1582,3.1133,3.0898,3.0898,3.0898,3.0898,3.0704,3.0065,2.8994,0.0,2.7959,2.6958,2.6828,2.6682,2.6591,2.6591,2.6591,2.6591,2.6591,2.6591,2.6591,2.6591,2.6591,2.6591,2.6591,2.6041,2.5414,2.5414,2.4845,2.4202,2.4202,2.4202,2.4202,2.4202,2.4202,2.4202,2.4202,2.4202,2.4202,2.4202,2.4202,2.4202,2.4202,2.4251,2.4399,2.448,2.4578,2.4745,2.4892,2.4775,2.4627,2.4548,2.435,2.4202,2.4202,2.4202,2.4202,2.4202,2.4202,2.435,2.4677,2.4677,2.502,2.5781,2.5829,2.6215,2.6982,2.7389,2.7788,2.8117,2.856,2.8792,2.8792,2.8792,2.8792,3.3733,3.3418,3.3418,3.3418,3.3418,3.3418,3.3418,3.3418,3.3418,3.3418,3.3418,3.3418,3.3418,3.3418,3.3481,3.367,3.3544,3.3481,3.367,3.3481,3.3418,3.3418,3.3418,3.3418,3.3418,3.3418,3.3418,3.3418,3.3418,3.3418,3.3418,3.3418,3.3398,3.334,3.293,3.2324,3.1523,3.1094,3.0898,3.0898,3.0898,3.0898,3.0898,3.0898,3.0122,2.8785,2.901,0.0,2.6755,2.6954,2.6899,2.6646,2.6646,2.6646,2.6591,2.6591,2.6591,2.6591,2.6591,2.6591,2.6591,2.6591,2.6078,2.5488,2.5433,2.49,2.4275,2.422,2.4202,2.4202,2.4202,2.4202,2.4202,2.4202,2.4202,2.4251,2.4251,2.4251,2.4301,2.4301,2.4399,2.4529,2.4578,2.4794,2.4941,2.499,2.499,2.4941,2.4941,2.4548,2.4251,2.4251,2.4202,2.4251,2.435,2.435,2.4677,2.5392,2.5441,2.5829,2.66,2.6648,2.6982,2.7741,2.7741,2.8117,2.8792,2.8792,2.8792,2.8792,2.8792,2.8792,3.3481,3.3418,3.3418,3.3418,3.3418,3.3418,3.3418,3.3418,3.3418,3.3418,3.3418,3.3418,3.3418,3.3418,3.3776,3.4881,3.409,3.3796,3.4881,3.409,3.3418,3.3418,3.3418,3.3418,3.3418,3.3418,3.3418,3.3418,3.3418,3.3418,3.3418,3.3418,3.3262,3.291,3.25,3.2031,3.1523,3.1094,3.0898,3.0898,3.0898,3.0898,3.0898,3.0898,3.0238,2.901,2.9066,0.0,2.726,2.7314,2.7152,2.6935,2.6935,2.6791,2.6591,2.6591,2.6591,2.6591,2.6591,2.6591,2.6591,2.6591,2.6261,2.5855,2.5525,2.5051,2.4643,2.4293,2.4202,2.4202,2.4202,2.4202,2.4202,2.4202,2.435,2.443,2.443,2.4646,2.4794,2.4794,2.4627,2.4627,2.5088,2.5039,2.5039,2.5479,2.5382,2.5235,2.5235,2.4794,2.443,2.443,2.4301,2.443,2.505,2.5099,2.5441,2.6264,2.6312,2.6648,2.741,2.741,2.7788,2.856,2.8606,2.8653,2.8792,2.8792,2.8792,2.8792,2.8792,2.8792,3.3418,3.3418,3.3418,3.3418,3.3418,3.3418,3.3418,3.3418,3.3418,3.3418,3.3418,3.3418,3.3418,3.3418,3.3607,3.4278,3.3859,3.3607,3.4278,3.3796,3.3418,3.3418,3.3418,3.3418,3.3418,3.3418,3.3418,3.3418,3.3418,3.3418,3.3418,3.3418,3.3125,3.248,3.2266,3.1855,3.1191,3.0996,3.0898,3.0898,3.0898,3.0898,3.0898,3.0898,3.0238,2.9122,2.929,0.0,2.7422,2.7584,2.7476,2.7206,2.7206,2.7098,2.7008,2.6845,2.6791,2.6791,2.6646,2.6591,2.6591,2.6591,2.6298,2.5929,2.5543,2.5139,2.4753,2.433,2.4202,2.4202,2.4202,2.4202,2.4251,2.435,2.4529,2.4677,2.4677,2.4794,2.4892,2.4892,2.4892,2.499,2.5235,2.5284,2.5382,2.5645,2.5577,2.5499,2.5499,2.5606,2.5392,2.4578,2.4854,2.5275,2.5615,2.6051,2.6628,2.7389,2.72,2.741,2.8164,2.8211,2.842,2.8792,2.8792,2.8792,2.8792,2.8792,2.8792,2.8792,2.8792,2.8792,3.3418,3.3418,3.3418,3.3418,3.3418,3.3418,3.3418,3.3418,3.3418,3.3418,3.3418,3.3481,3.3796,3.3607,3.3607,3.4153,3.3796,3.3481,3.3796,3.3607,3.3418,3.3418,3.3418,3.3418,3.3418,3.3418,3.3418,3.3418,3.3418,3.3418,3.3418,3.334,3.2949,3.2187,3.207,3.166,3.0898,3.0898,3.0898,3.0898,3.0898,3.0898,3.0898,3.0898,3.0295,2.9234,2.9514,0.0,0.0,2.7853,2.7799,2.7476,2.7476,2.7476,2.7368,2.7098,2.6989,2.6935,2.6682,2.6646,2.67,2.67,2.6407,2.6058,2.558,2.5161,2.4845,2.4349,2.4202,2.4202,2.4202,2.4251,2.435,2.4578,2.4824,2.499,2.5088,2.5088,2.5088,2.5088,2.5186,2.5333,2.5382,2.5479,2.5723,2.5965,2.582,2.5868,2.6284,2.66,2.6408,2.5441,2.5983,2.6491,2.6655,2.7132,2.7746,2.8516,2.8096,2.8117,2.8746,2.8792,2.8792,2.8792,2.8792,2.8792,2.8792,2.8792,2.8792,2.8792,2.8792,2.8792,3.3418,3.3418,3.3418,3.3418,3.3418,3.3418,3.3418,3.3418,3.3418,3.3418,3.3418,3.3796,3.5005,3.4215,3.4215,3.6581,3.4943,3.3859,3.5067,3.4153,3.3418,3.3418,3.3418,3.3418,3.3418,3.3418,3.3418,3.3418,3.3418,3.3418,3.3418,3.3066,3.2637,3.2187,3.1777,3.1348,3.0898,3.0898,3.0898,3.0898,3.0898,3.0898,3.0898,3.0898,3.041,2.957,2.957,0.0,0.0,2.8247,2.8121,2.7853,2.7853,2.7691,2.7368,2.7098,2.6989,2.6935,2.6682,2.6736,2.6935,2.6935,2.6754,2.6389,2.5601,2.5396,2.5212,2.4422,2.4202,2.4202,2.4202,2.435,2.4578,2.5088,2.5235,2.5333,2.5577,2.5645,2.5645,2.5645,2.543,2.5382,2.5645,2.5479,2.5703,2.6867,2.6284,2.638,2.8168,2.7484,2.7105,2.7861,2.784,2.8028,2.8749,2.847,2.8563,2.9347,2.8932,2.8699,2.8792,2.8792,2.8792,2.8792,2.8792,2.8792,2.8792,2.8792,2.8792,2.8792,2.8792,2.8792,3.3418,3.3418,3.3418,3.3418,3.3418,3.3418,3.3418,3.3418,3.3418,3.3418,3.4027,3.4757,3.5314,3.5602,3.6093,3.7127,3.646,3.5664,3.5438,3.4943,3.4278,3.3481,3.3418,3.3418,3.3418,3.3418,3.3418,3.3418,3.3418,3.332,3.3066,3.2891,3.2598,3.2187,3.1738,3.1328,3.0898,3.0898,3.0898,3.0898,3.0898,3.0898,3.0898,3.0898,3.041,2.9626,2.9626,0.0,0.0,2.8301,2.8228,2.8121,2.8121,2.8067,2.7926,2.7638,2.753,2.7476,2.7171,2.7171,2.726,2.726,2.7152,2.695,2.6212,2.5721,2.5304,2.4735,2.4404,2.4202,2.4202,2.4498,2.4843,2.5235,2.543,2.5577,2.5693,2.5693,2.5693,2.5693,2.5577,2.5771,2.6456,2.6504,2.6819,2.7934,2.7746,2.7814,2.8588,2.8773,2.9004,2.9372,2.9189,2.9143,2.9486,2.9715,2.9875,2.9943,2.9485,2.9071,2.8792,2.8792,2.8792,2.8792,2.8792,2.8792,2.8792,2.8792,2.8792,2.8792,2.8792,2.8792,3.3418,3.3418,3.3418,3.3418,3.3418,3.3418,3.3418,3.332,3.3305,3.3661,3.441,3.5206,3.5933,3.6643,3.721,3.7569,3.744,3.7006,3.6093,3.5971,3.55,3.4153,3.434,3.4278,3.3481,3.3418,3.3418,3.3418,3.3418,3.3242,3.2812,3.2676,3.2422,3.1992,3.1562,3.1191,3.0898,3.0898,3.0898,3.0898,3.0898,3.0898,3.0898,3.0898,3.041,2.9626,2.9626,0.0,0.0,2.8301,2.8301,2.8301,2.8301,2.8301,2.8301,2.8014,2.7906,2.7853,2.753,2.7476,2.753,2.753,2.753,2.7473,2.6974,2.6206,2.5445,2.5039,2.4614,2.4319,2.4548,2.4789,2.5088,2.5333,2.5547,2.5693,2.5693,2.5693,2.5693,2.5693,2.5693,2.6014,2.701,2.7179,2.7652,2.8958,2.8912,2.8912,2.951,2.9943,3.0306,3.0599,3.0464,3.0374,3.0374,3.0713,3.0713,3.0216,2.976,2.9301,2.8792,2.8792,2.8792,2.8792,2.8792,2.8792,2.8792,2.8792,2.8792,2.8792,2.8792,2.8792,3.3418,3.3418,3.3418,3.3418,3.3418,3.3418,3.3418,3.3105,3.3164,3.4349,3.4221,3.4661,3.7178,3.7041,3.6942,3.8192,3.7755,3.7309,3.7309,3.7309,3.6824,3.5561,3.652,3.6276,3.367,3.3418,3.3418,3.3418,3.3418,0.0,3.2812,3.2402,3.1973,3.1543,3.1113,3.0898,3.0898,3.0898,3.0898,3.0898,3.0898,3.0898,3.0898,3.0898,3.041,2.9626,0.0,0.0,0.0,2.8301,2.8301,2.8301,2.8301,2.8301,2.8301,2.8014,2.7906,2.7853,2.753,2.7638,2.7906,2.7906,2.7906,2.7906,2.7906,2.6907,2.5703,2.5325,2.4846,2.4672,2.5333,2.5393,2.5333,2.5645,2.5693,2.5693,2.5693,2.5693,2.5693,2.5693,2.5693,2.6014,2.701,2.7179,2.7887,2.9875,2.9326,2.9418,3.1427,3.0824,3.0599,3.156,3.1673,3.1673,3.1673,3.1205,3.0713,3.0216,2.976,2.9301,2.8792,2.8792,2.8792,2.8792,2.8792,2.8792,2.8792,2.8792,2.8792,2.8792,2.8792,2.8792,3.3066,3.2988,3.293,3.2637,3.2559,3.2559,3.2559,3.2461,3.271,3.3878,3.4707,3.5773,3.7406,3.8503,3.9309,3.9675,3.987,3.965,3.8744,3.8625,3.8149,3.6824,3.6276,3.5684,3.4819,3.3902,3.3418,3.3418,3.3418,3.3105,3.2402,3.2246,3.1973,3.1523,3.1113,3.0898,3.0898,3.0898,3.0898,3.0898,3.0898,3.0898,3.0898,3.0898,3.041,0.0,0.0,0.0,0.0,2.8301,2.8301,2.8301,2.8301,2.8301,2.8301,2.8174,2.8174,2.8174,2.8033,2.8067,2.8174,2.8174,2.8174,2.8174,2.8174,2.7362,2.6375,2.5994,2.5786,2.5686,2.5805,2.5822,2.5748,2.5703,2.5693,2.5693,2.5693,2.5693,2.5917,2.66,2.6744,2.7247,2.8958,2.9235,2.9692,3.1003,3.0958,3.0958,3.1605,3.1427,3.1339,3.1673,3.1717,3.1717,3.1717,3.154,3.1071,3.0261,3.008,2.9623,2.8839,2.8792,2.8792,2.8792,2.8792,2.8792,2.8792,2.8792,2.8792,2.8792,2.8792,2.8792,3.2871,3.2676,3.25,3.2226,3.2229,3.2229,3.2229,3.2394,3.2973,3.4114,3.5244,3.6365,3.7562,3.8919,3.9874,4.0066,4.0547,4.0645,4.0059,3.9966,3.965,3.8862,3.6764,3.5623,3.6093,3.4465,3.3418,3.3418,3.3281,3.2891,3.2207,3.2012,3.1719,3.1289,3.1035,3.0898,3.0898,3.0898,3.0898,3.0898,3.0898,3.0898,3.0898,3.0898,3.041,0.0,0.0,0.0,0.0,2.8301,2.8301,2.8301,2.8301,2.8301,2.8301,2.8301,2.8301,2.8301,2.8301,2.8301,2.8301,2.8301,2.8301,2.8301,2.8301,2.767,2.6917,2.6546,2.6294,2.613,2.6237,2.6068,2.5877,2.5752,2.5693,2.5693,2.5693,2.6014,2.6456,2.7105,2.751,2.8262,2.9943,3.0215,3.0531,3.156,3.1717,3.1717,3.1717,3.1717,3.1717,3.1717,3.1717,3.1717,3.1717,3.1717,3.125,3.0261,3.0216,2.976,2.8839,2.8792,2.8792,2.8792,2.8792,2.8792,2.8792,2.8792,2.8792,2.8792,2.8978,2.9071,0.0,3.2422,3.2109,3.209,3.2131,3.2131,3.2191,3.2752,0.0,3.4897,3.5725,3.6557,3.7761,3.8431,3.8984,3.9513,4.0042,4.0571,4.11,4.1172,4.1172,4.1172,3.791,3.6093,3.7188,3.5005,3.3461,3.3379,3.3008,3.2598,3.2148,3.1738,3.1328,3.0898,3.0898,3.0898,3.0898,3.0898,3.0898,3.0898,3.0898,3.0898,3.0898,3.0898,3.041,0.0,0.0,0.0,0.0,2.8301,2.8301,2.8301,2.8301,2.8301,2.8301,2.8301,2.8301,2.8301,2.8301,2.8301,2.8301,2.8301,2.8301,2.8301,2.8301,2.7849,2.7328,2.6959,2.6544,2.6191,2.6557,2.6206,2.5732,2.5693,2.5693,2.5742,2.5771,2.6552,2.7226,2.7369,2.8168,2.9143,3.0125,3.0306,3.0644,3.156,3.1717,3.1717,3.1717,3.1717,3.1717,3.1717,3.1717,3.1717,3.1717,3.1717,3.1294,3.0306,3.0261,2.9806,2.8885,2.8839,2.8839,2.8792,2.8792,2.8792,2.8792,2.8839,2.8839,2.8839,2.9347,2.9531,3.1914,0.0,3.1601,3.1269,3.1191,3.1486,0.0,3.2703,3.3458,3.5512,3.6105,3.6557,3.7761,3.8431,3.8984,3.9513,4.0042,4.0571,4.11,4.1172,4.1172,4.1172,3.9474,3.8029,3.7369,3.5848,3.4386,3.3031,3.2851,3.2461,3.1719,3.1562,3.1328,3.0898,3.0898,3.0898,3.0898,3.0898,3.0898,3.0898,3.0898,3.0898,3.0898,3.0898,3.041,0.0,0.0,0.0,2.8301,2.8301,2.8301,2.8301,2.8301,2.8301,2.8301,2.8301,2.8301,2.8301,2.8301,2.8301,2.8301,2.8301,2.8301,2.8301,2.8301,2.8169,2.8038,2.7985,2.7668,2.7253,2.6968,2.6571,2.6152,2.5771,2.5693,2.5917,2.6696,2.7057,2.7652,2.9189,2.9692,3.017,3.1181,3.1339,3.1427,3.1649,3.1717,3.1717,3.1717,3.1717,3.1717,3.1717,3.1717,3.1717,3.1717,3.1717,3.1427,3.0758,3.0713,3.0306,2.9347,2.9347,2.9163,2.8792,2.8792,2.8792,2.8792,2.9163,2.9347,2.9347,2.9806,3.0034,3.1641,3.1367,3.1172,3.0937,3.0898,3.1228,3.2399,3.3119,3.4022,3.5795,3.6611,3.7227,3.7868,3.8238,3.8695,3.9489,3.985,4.0306,4.1076,4.1172,4.1172,4.1172,4.0024,3.8921,0.0,3.6328,3.4656,3.3759,3.2789,3.2012,3.1543,3.1328,3.1133,3.0898,3.0898,3.0898,3.0898,3.0898,3.0898,3.0898,3.0898,3.0898,3.0898,3.0898,3.041,0.0,0.0,0.0,2.8301,2.8301,2.8301,2.8301,2.8301,2.8301,2.8301,2.8301,2.8301,2.8301,2.8301,2.8301,2.8301,2.8301,2.8301,2.8301,2.8301,2.8301,2.8301,2.8301,2.7851,2.7305,2.707,2.6873,2.6583,2.5879,2.638,2.7105,2.72,2.7934,2.8912,2.9988,3.0576,3.1048,3.1605,3.1717,3.1717,3.1717,3.1717,3.1717,3.1717,3.1717,3.1717,3.1717,3.1717,3.1717,3.1717,3.1717,3.1472,3.0937,3.0892,3.0578,2.9852,2.9806,2.9715,2.9439,2.9439,2.9439,2.9439,2.9715,2.9806,2.9852,3.0306,3.0532,3.1562,3.127,3.117,3.117,3.117,3.1556,3.2913,3.3966,3.5002,3.6231,3.7281,3.7974,3.7974,3.7974,3.8334,3.9441,3.9681,4.0042,4.0932,4.1076,4.11,4.1172,4.0199,3.937,3.9124,3.6768,3.5092,3.4787,3.3092,3.1939,3.1722,3.1367,3.1112,3.0898,3.0898,3.0898,3.0898,3.0898,3.0898,3.0898,3.0898,3.0898,3.0898,3.0898,3.041,2.9626,0.0,0.0,2.8301,2.8301,2.8301,2.8301,2.8301,2.8301,2.8301,2.8301,2.8301,2.8301,2.8301,2.8301,2.8301,2.8301,2.8301,2.8301,2.8301,2.8301,2.8281,2.8223,2.7617,2.7012,2.7216,2.7218,2.701,2.6332,2.7437,2.8495,2.7793,2.9004,3.026,3.0396,3.1092,3.1717,3.1717,3.1717,3.1717,3.1717,3.1717,3.1717,3.1717,3.1717,3.1717,3.1717,3.1717,3.1717,3.1717,3.1717,3.1496,3.1026,3.1026,3.0802,3.0306,3.0261,3.0216,3.0216,3.0216,3.0216,3.0216,3.0261,3.0306,3.0306,3.0802,3.1026,3.1211,3.1674,3.2399,3.2399,3.2399,3.297,3.519,3.5795,3.6286,3.7495,3.7868,3.7974,3.7974,3.7974,3.8334,3.9441,3.9994,4.0331,4.0499,4.0523,4.0691,4.1124,4.1,4.0266,3.87,3.8099,3.7077,3.5165,3.474,3.3968,3.258,3.244,3.196,3.0957,3.0898,3.0898,3.0898,3.0898,3.0898,3.0898,3.0898,3.0898,3.0898,3.0898,3.041,2.9626,0.0,2.9082,2.8301,2.8301,2.8301,2.8301,2.8301,2.8301,2.8301,2.8301,2.8301,2.8301,2.8301,2.8301,2.8301,2.8301,2.8301,2.8301,2.8301,2.8301,2.8223,2.7904,2.7402,2.7216,2.8036,2.7737,2.7369,2.8075,2.8495,2.8912,2.9601,2.9988,3.0441,3.1294,3.156,3.1717,3.1717,3.1717,3.1717,3.1717,3.1717,3.1717,3.1717,3.1717,3.1717,3.1717,3.1717,3.1717,3.1717,3.1717,3.1673,3.1584,3.1584,3.1339,3.0802,3.0397,3.0216,3.0216,3.0216,3.0216,3.0216,3.0578,3.0802,3.0802,3.1339,3.1584,3.1133,3.1787,3.2856,3.3459,3.3628,3.4056,3.5795,3.6177,3.6557,3.7761,3.7974,3.7974,3.7974,3.7974,3.8238,3.9056,3.9874,4.0282,4.0018,4.021,4.0475,4.0739,4.0763,4.0416,3.9585,3.8341,3.7246,3.6174,3.5266,3.4406,3.3628,3.3006,3.2457,3.1903,3.1845,3.1556,3.0898,3.1576,3.1576,3.0898,3.0898,3.0898,3.0879,3.0625,3.0176,2.9607,0.0,2.8867,2.8301,2.8301,2.8301,2.8301,2.8301,2.8301,2.8301,2.8301,2.8301,2.8301,2.8301,2.8301,2.8301,2.8301,2.8301,2.8301,2.8301,2.8125,2.8068,2.8373,2.8146,2.7844,2.8099,2.8514,2.8819,2.8727,2.951,3.0306,3.0215,3.0644,3.116,3.1605,3.1717,3.1717,3.1717,3.1717,3.1717,3.1717,3.1717,3.1717,3.1717,3.1717,3.1717,3.1717,3.1717,3.1717,3.1717,3.1717,3.1717,3.1717,3.1717,3.1584,3.1339,3.1116,3.1026,3.1026,3.1026,3.1026,3.1026,3.1205,3.1339,3.1339,3.1584,3.1717,3.1133,3.196,3.3289,3.4168,3.4614,3.5113,3.634,3.6611,3.6881,3.7814,3.7974,3.7974,3.7974,3.819,3.8484,3.8653,3.9623,4.013,3.9599,3.992,4.0234,4.041,4.0354,4.0274,4.013,3.8477,3.7385,3.7269,3.5999,3.5113,3.4836,3.4022,3.3402,3.3119,3.3063,3.2514,3.1344,3.2248,3.2076,3.0898,3.0898,3.0898,3.0879,3.041,2.9961,2.9551,2.9101,2.8672,2.8301,2.8301,2.8301,2.8301,2.8301,2.8301,2.8301,2.8301,2.8301,2.8301,2.8301,2.8441,2.8654,2.8388,2.8441,2.8654,2.8408,2.7988,2.7897,2.8717,2.8823,2.8684,2.857,2.9402,3.0079,2.951,3.0599,3.1472,3.0734,3.1137,3.1717,3.1717,3.1717,3.1717,3.1717,3.1717,3.1717,3.1717,3.1717,3.1717,3.1717,3.1717,3.1717,3.1717,3.1717,3.1717,3.1717,3.1717,3.1717,3.1717,3.1717,3.1717,3.1717,3.1717,3.1717,3.1717,3.1717,3.1717,3.1717,3.1717,3.1717,3.1717,3.1717,3.1717,3.1133,3.2571,3.428,3.4391,3.5223,3.6394,3.7601,3.7868,3.7868,3.7974,3.7974,3.7974,3.7974,3.8815,3.9231,3.8509,3.9315,3.9825,3.9291,3.9458,3.9839,4.0354,4.0184,3.9825,3.9315,3.8894,3.8491,3.7964,3.7838,3.7257,3.6122,3.6013,3.5443,3.4336,3.428,3.3741,3.2571,3.2685,3.2076,3.0898,3.0898,3.0898,3.0879,3.041,2.9961,2.9551,2.9101,2.8672,2.8301,2.8301,2.8301,2.8301,2.8301,2.8301,2.8301,2.8301,2.8301,2.8301,2.8301,2.8953,2.9618,2.8601,2.8953,2.9618,2.8601,2.7988,2.7838,2.835,2.8887,2.9467,3.0343,3.0376,3.0396,3.1294,3.156,3.1673,3.1605,3.1649,3.1717,3.1717,3.1717,3.1717,3.1717,3.1717,3.1717,3.1717,3.1717,3.1717,3.1717,3.1717,3.1717,3.1717,3.1717,3.1717,3.1717,3.1717,3.1717,3.1717,3.1717,3.1717,3.1717,3.1717,3.1717,3.1717,3.1717,3.1717,3.1717,3.1717,3.1717,3.1717,3.1717,3.1717,3.1055,3.2607,3.4391,3.4391,3.5881,3.7441,3.7868,3.7974,3.7974,3.7974,3.7974,3.8027,3.821,3.932,3.9848,3.8802,3.9589,4.0006,3.9047,3.9324,3.9672,3.9869,3.9677,3.9442,3.9223,3.864,3.8214,3.7998,3.7974,3.7814,3.7334,3.6611,3.6013,3.5498,3.5498,3.4614,3.2742,3.4134,3.3515,3.0898,3.0898,3.1286,3.1998,3.0515,2.9726,2.9587,2.8828,2.8437,2.8301,2.8301,2.8301,2.8301,2.8301,2.8301,2.8301,2.8301,2.8301,2.8301,2.8301,2.9006,2.9828,2.9408,2.9565,2.9828,2.9408,2.8764,2.836,2.9225,2.9624,2.994,3.0331,3.0784,3.125,3.1605,3.1717,3.1717,3.1717,3.1717,3.1717,3.1717,3.1717,3.1717,3.1717,3.1717,3.1717,3.1717,3.1717,3.1717,3.1717,3.1717,3.1717,3.1717,3.1717,3.1717,3.1717,3.1717,3.1717,3.1717,3.1717,3.1717,3.1717,3.1717,3.1717,3.1717,3.1717,3.1717,3.1717,3.1717,3.1717,3.1717,3.1717,3.1717,3.1463,3.2892,3.4503,3.4891,3.6503,3.7974,3.7974,3.7974,3.7974,3.7974,3.808,3.8185,3.8473,3.9443,3.9922,3.9093,3.9734,4.0059,3.9069,3.9371,3.9618,3.9618,3.9382,3.9222,3.9222,3.8615,3.821,3.8133,3.8157,3.808,3.7974,3.7227,3.6773,3.6773,3.6773,3.5795,3.3797,3.5411,3.4781,3.1998,3.1614,3.1592,3.1869,3.0297,2.9492,2.9316,2.8613,2.8301,2.8301,2.8301,2.8301,2.8301,2.8301,2.8203,2.8086,2.8086,2.8008,2.7963,2.845,2.9309,3.0242,3.039,3.0639,3.0794,3.012,2.9495,2.9112,2.9802,3.0108,3.026,3.0576,3.1181,3.1717,3.1717,3.1717,3.1717,3.1717,3.1717,3.1717,3.1717,3.1717,3.1717,3.1717,3.1717,3.1717,3.1717,3.1717,3.1717,3.1717,3.1717,3.1717,3.1717,3.1717,3.1717,3.1717,3.1717,3.1717,3.1717,3.1717,3.1717,3.1717,3.1717,3.1717,3.1717,3.1717,3.1717,3.1717,3.1717,3.1717,3.1717,3.1717,3.1717,3.2407,3.3515,3.467,3.5904,3.7096,3.7974,3.7974,3.7974,3.7974,3.7974,3.8185,3.8473,3.8736,3.923,3.9533,3.9357,3.9783,3.9932,3.9384,3.9542,3.9697,3.9697,3.9465,3.931,3.931,3.8998,3.8684,3.8421,3.8421,3.8315,0.0,3.7974,3.7974,3.7974,3.7974,3.7441,3.6231,3.6231,3.563,3.4391,3.3233,3.1812,3.0176,2.9822,2.9336,2.8906,2.8476,2.8301,2.8301,2.8281,2.8281,2.8301,2.8281,2.808,2.7728,2.7708,2.7383,2.7224,2.8799,3.0011,3.098,3.1462,3.2348,3.2801,3.0587,3.0003,3.0095,2.9998,3.0108,3.0464,3.1427,3.1717,3.1717,3.1717,3.1717,3.1717,3.1717,3.1717,3.1717,3.1717,3.1717,3.1717,3.1717,3.1717,3.1717,3.1717,3.1717,3.1717,3.1717,3.1717,3.1717,3.1717,3.1717,3.1717,3.1717,3.1717,3.1717,3.1717,3.1717,3.1717,3.1717,3.1717,3.1717,3.1717,3.1717,3.1717,3.1717,3.1717,3.1717,3.1717,3.1717,3.1717,3.1306,3.2892,3.4503,3.4836,3.648,3.7974,3.7974,3.7974,3.7974,3.7974,3.8185,3.8473,3.8736,3.9442,3.9851,3.9617,4.0045,4.022,3.9669,3.9645,3.9697,3.9697,3.9465,3.931,3.931,3.8998,3.8684,3.8421,3.8421,3.8315,0.0,3.7974,3.7974,3.7974,3.7974,3.7441,3.6231,3.7042,3.6449,3.4391,3.3766,3.2754,3.1437,3.0194,2.9336,2.8906,2.8476,2.8301,2.8335,2.9112,2.9006,2.8368,2.8822,2.8485,2.7721,2.8106,2.7722,2.7326,2.956,3.0615,3.108,3.2342,3.2951,3.2951,3.1513,3.1378,3.1465,3.0329,3.0897,3.1793,3.1725,3.1717,3.1717,3.1717,3.1717,3.1717,3.1717,3.1717,3.1717,3.1717,3.1717,3.1717,3.1717,3.1717,3.1717,3.1717,3.1717,3.1717,3.1717,3.1717,3.1717,3.1717,3.1717,3.1717,3.1717,3.1717,3.1717,3.1717,3.1717,3.1717,3.1717,3.1717,3.1717,3.1717,3.1717,3.1717,3.1717,3.1717,3.1717,3.1717,3.1717,3.1717,3.1383,3.3006,3.4503,3.5002,3.6557,3.7974,3.7974,3.7974,3.7974,3.7974,3.8185,3.8473,3.8631,3.9269,3.976,3.9592,3.9921,4.0074,3.9747,3.9697,3.9697,3.9697,3.9542,3.9465,3.9465,3.9258,3.905,3.8788,3.8631,0.0,0.0,3.8027,3.7974,3.7974,3.7974,3.7655,3.6935,3.7655,3.7042,3.5113,3.4219,3.305,3.1726,3.0103,2.9082,2.8652,2.8398,2.8548,2.9006,2.9618,2.9513,2.8966,2.9178,2.8758,2.8064,2.8184,2.7996,2.8033,3.039,3.1221,3.1528,3.3267,3.3869,3.3572,3.2044,3.2239,3.2593,3.0568,3.1199,3.237,3.1862,3.1717,3.1717,3.1717,3.1717,3.1717,3.1717,3.1717,3.1717,3.1717,3.1717,3.1717,3.1717,3.1717,3.1717,3.1717,3.1717,3.1717,3.1717,3.1717,3.1717,3.1717,3.1717,3.1717,3.1717,3.1717,3.1717,3.1717,3.1717,3.1717,3.1717,3.1717,3.1717,3.1717,3.1717,3.1717,3.1717,3.1717,3.1717,3.1717,3.1717,3.1717,3.2055,3.3459,3.467,3.5795,3.7042,3.7974,3.7974,3.7974,3.7974,3.7974,3.8185,3.8368,3.8421,3.8893,3.9258,3.931,3.9542,3.9697,3.9697,3.9697,3.9697,3.9697,3.9697,3.9697,3.9697,3.9697,3.9594,3.931,0.0,0.0,0.0,3.8133,3.7974,3.7974,3.7974,3.7974,3.7974,3.7974,3.7364,3.6108,3.4534,3.2965,3.1433,2.9793,2.8854,2.8441,2.8548,2.9112,2.9932,3.012,3.0047,2.9829,2.9527,2.9019,2.8413,2.8077,2.8269,2.8998,3.1107,3.1828,3.2108,3.4077,3.4751,3.4433,3.2398,3.283,3.3553,3.0927,3.1363,3.2442,3.1934,3.1741,3.1717,3.1717,3.1717,3.1717,3.1717,3.1717,3.1717,3.1717,3.1717,3.1717,3.1717,3.1717,3.1717,3.1717,3.1717,3.1717,3.1717,3.1717,3.1717,3.1717,3.1717,3.1717,3.1717,3.1717,3.1717,3.1717,3.1717,3.1717,3.1717,3.1717,3.1717,3.1717,3.1717,3.1717,3.1717,3.1717,3.1717,3.1717,3.1717,3.1717,3.1054,3.2778,3.4447,3.4725,3.6426,3.7974,3.7974,3.7974,3.7974,3.7974,3.8051,3.8133,3.8368,3.8684,3.8998,3.9258,3.9542,3.9697,3.9697,3.9697,3.9697,3.9697,3.9697,3.9697,3.9697,3.9697,3.9594,3.931,0.0,0.0,3.8421,3.8133,3.7974,3.7974,3.7974,3.7974,3.7974,3.7974,3.7228,0.0,3.4075,3.2896,3.2122,3.0817,2.9995,2.9618,3.0505,3.0484,3.0016,3.1768,3.1295,2.9455,2.9899,2.9232,2.8056,2.8417,2.8581,2.9046,3.1482,3.2113,3.2061,3.3672,3.4438,3.458,3.325,3.3677,3.4245,3.2371,3.2486,3.2996,3.2466,3.203,3.1717,3.1717,3.1717,3.1717,3.1717,3.1717,3.1717,3.1717,3.1717,3.1717,3.1717,3.1717,3.1717,3.1717,3.1717,3.1717,3.1717,3.1717,3.1717,3.1717,3.1717,3.1717,3.1717,3.1717,3.1717,3.1717,3.1717,3.1717,3.1717,3.1717,3.1717,3.1717,3.1717,3.1717,3.1717,3.1717,3.1717,3.1717,3.1717,3.1717,3.0704,3.2227,3.3853,3.4947,3.6665,3.7974,3.7974,3.7974,3.7974,3.7974,3.7974,3.8027,3.8185,3.8526,3.8841,3.905,3.9438,3.9697,3.9697,3.9697,3.9697,3.9697,3.9697,3.9697,3.9697,3.9697,3.9645,0.0,0.0,3.8736,3.8579,3.821,3.7974,3.7974,3.7974,3.7974,3.7974,3.7733,3.7183,3.6373,3.4484,3.3301,3.2728,3.1573,3.0945,3.0742,3.133,3.1564,3.1564,3.275,3.2257,3.0799,3.0975,3.0293,2.9284,2.9389,2.9692,3.0329,3.1982,3.2505,3.2677,3.3672,3.4342,3.458,3.3522,3.3967,3.446,3.2848,3.2841,3.3164,3.2635,3.2274,3.2058,3.2058,3.191,3.1789,3.2054,3.2058,3.213,3.244,3.2488,3.237,3.2106,3.1886,3.1717,3.1717,3.1717,3.1717,3.1717,3.1717,3.1717,3.1717,3.1717,3.1717,3.1717,3.1717,3.1717,3.1717,3.1717,3.1717,3.1717,3.1717,3.1717,3.1717,3.1717,3.1717,3.1717,3.1717,3.1717,3.1717,3.1717,3.1717,3.0704,3.1787,3.3176,3.5356,3.6773,3.7708,3.7708,3.7868,3.7974,3.7974,3.7974,3.7974,3.7974,3.8421,3.8736,3.8788,3.9283,3.9645,3.9697,3.9697,3.9697,3.9697,3.9697,3.9697,3.9697,3.9697,3.9697,0.0,0.0,3.8841,3.8788,3.8368,3.8027,3.7974,3.7974,3.7926,3.7853,3.7421,3.7004,3.6633,3.4741,3.3614,3.3201,3.2499,3.2044,3.1891,3.2095,3.2549,3.3201,3.34,3.3004,3.2282,3.1917,3.1341,3.0674,3.0331,3.0824,3.1765,3.2202,3.2707,3.3236,3.3694,3.4222,3.4509,3.3723,3.4115,3.4533,3.3208,3.3125,3.3308,3.2875,3.2707,3.2635,3.2635,3.2274,3.2126,3.2539,3.2635,3.2779,3.3212,3.3284,3.314,3.2707,3.225,3.1958,3.1862,3.1862,3.1813,3.1717,3.1717,3.1717,3.1717,3.1717,3.1717,3.1717,3.1717,3.1717,3.1717,3.1717,3.1717,3.1717,3.1717,3.1717,3.1717,3.1717,3.1717,3.1717,3.1717,3.1717,3.1717,3.1717,3.1717,3.0704,3.1787,3.3027,3.4336,3.5553,3.6449,3.6449,3.7281,3.7974,3.7974,3.7974,3.7974,3.7974,3.8238,3.8526,3.8736,3.9102,3.9413,3.9697,3.9697,3.9697,3.9697,3.9697,3.9697,3.9697,3.9697,0.0,0.0,3.9413,3.9102,3.8841,3.8526,3.8262,3.8027,3.7974,3.7757,3.73,3.7228,3.626,3.4398,3.3669,3.3269,3.325,3.4017,3.3869,3.3051,3.3967,3.3918,3.325,3.4213,3.3501,3.1848,3.1849,3.1181,3.0262,3.0238,3.0824,3.1717,3.1789,3.213,3.2683,3.3212,3.3741,3.4174,3.4485,3.4677,3.4775,3.4533,3.4198,3.3886,3.3814,3.3501,3.3188,3.3188,3.3116,3.3092,3.3164,3.3188,3.3212,3.3284,3.3284,3.326,3.3188,3.3116,3.2923,3.2466,3.2394,3.2226,3.1765,3.1717,3.1717,3.1717,3.1717,3.1717,3.1717,3.1717,3.1717,3.1717,3.1717,3.1717,3.1717,3.1717,3.1717,3.1717,3.1717,3.1717,3.1717,3.1717,3.1717,3.1717,3.1717,3.1717,3.0781,3.1787,3.2799,3.3346,3.4836,3.6177,3.6177,3.712,3.7974,3.7974,3.7974,3.7974,3.7974,3.821,3.8473,3.8579,3.8998,3.931,3.9465,3.9594,3.9697,3.9697,3.9697,3.9697,3.9697,3.9697,0.0,0.0,3.9413,3.9154,3.8841,3.8579,3.8315,3.8027,3.7974,3.7733,3.7204,3.6892,3.5965,3.4445,3.4233,3.4115,3.4115,3.458,3.4531,3.4115,3.458,3.4531,3.4115,3.4628,3.3959,3.2653,3.2653,3.1992,3.1048,3.1048,3.1339,3.1717,3.1717,3.2034,3.2539,3.2779,3.338,3.403,3.427,3.4534,3.4775,3.4775,3.439,3.3982,3.3982,3.3838,3.3717,3.3717,3.3933,3.415,3.415,3.3909,3.3789,3.4102,3.3909,3.3717,3.3717,3.3477,3.3212,3.2971,3.2947,3.2851,3.2611,3.2322,3.213,3.213,3.191,3.1717,3.1717,3.1717,3.1717,3.1717,3.1717,3.1717,3.1717,3.1717,3.1717,3.1717,3.1717,3.1717,3.1717,3.1717,3.1717,3.1717,3.1717,3.1717,3.0723,3.1498,3.2227,3.2227,3.3797,3.5411,3.5685,3.6665,3.7655,3.7921,3.7974,3.7974,3.7974,3.8133,3.8315,3.8421,3.8788,3.9102,3.9258,3.9465,3.9645,3.9697,3.9697,3.9697,3.9697,3.9697,0.0,0.0,3.9517,3.9206,3.8841,3.8631,3.8368,3.8027,3.7853,3.7517,3.6988,3.6338,3.5617,3.4775,3.4775,3.4775,3.4775,3.4775,3.4775,3.4775,3.4775,3.4775,3.4775,3.4775,3.4222,3.3284,3.3284,3.2611,3.1717,3.1717,3.1717,3.1717,3.1717,3.1982,3.2322,3.2466,3.3116,3.3814,3.3958,3.4366,3.4775,3.4775,3.4486,3.4198,3.4198,3.4198,3.4198,3.4198,3.4486,3.4775,3.4775,3.4462,3.4318,3.4703,3.4462,3.4198,3.4198,3.3933,3.3621,3.3501,3.3477,3.3428,3.3308,3.2947,3.2707,3.2707,3.2322,3.2054,3.1934,3.191,3.1862,3.1717,3.1717,3.1717,3.1717,3.1717,3.1717,3.1717,3.1717,3.1717,3.1717,3.1717,3.1717,3.1717,3.1717,3.1717,3.0392,3.0704,3.0995,3.0995,3.196,3.3197,3.4224,3.5443,3.6611,3.7761,3.7974,3.7974,3.7974,3.8027,3.808,3.8368,3.8421,3.8631,3.9206,3.931,3.9413,3.9697,3.9697,3.9697,3.9697,3.9697,0.0,0.0,3.9697,3.9438,3.8841,3.8788,3.8526,3.8027,3.7493,3.6988,3.6459,3.5425,3.4847,3.4775,3.4775,3.4775,3.4775,3.4775,3.4775,3.4775,3.4775,3.4775,3.4775,3.4775,3.4222,3.3284,3.3284,3.2611,3.1717,3.1717,3.1717,3.1717,3.1717,3.1741,3.1837,3.2322,3.2875,3.3428,3.3862,3.4366,3.4775,3.4775,3.4751,3.4751,3.4751,3.4751,3.4751,3.4751,3.4751,3.4775,3.4775,3.4751,3.4751,3.4775,3.4751,3.4751,3.4751,3.4727,3.4534,3.403,3.3958,3.379,3.3356,3.326,3.326,3.326,3.3212,3.2996,3.2491,3.2466,3.2226,3.1741,3.1717,3.1717,3.1717,3.1717,3.1717,3.1717,3.1717,3.1717,3.1717,3.1717,3.1717,3.1717,3.1717,3.1717,3.0039,3.0333,3.0567,3.0567,3.1652,3.3027,3.4112,3.5333,3.6557,3.7761,3.7974,3.7974,3.7974,3.7974,3.8027,3.8133,3.8291,3.8473,3.8684,3.905,3.931,3.9413,3.9594,3.9697,3.9697,0.0,0.0,0.0,0.0,3.9438,3.8841,3.8788,3.8408,3.7493,3.73,3.6771,3.5905,3.5184,3.4775,3.4775,3.4775,3.4775,3.4775,3.4775,3.4775,3.4775,3.4775,3.4775,3.4775,3.4775,3.4222,3.3284,3.3284,3.2611,3.1717,3.1717,3.1717,3.1717,3.1717,3.1717,3.1741,3.1889,3.2346,3.2875,3.3404,3.3909,3.4342,3.4679,3.4775,3.4775,3.4775,3.4775,3.4775,3.4775,3.4775,3.4775,3.4775,3.4775,3.4775,3.4775,3.4775,3.4775,3.4775,3.4775,3.4703,3.4534,3.4486,3.4438,3.4294,3.3982,3.3765,3.3765,3.3477,3.3212,3.302,3.2996,3.2779,3.2226,3.2202,3.2034,3.1717,3.1717,3.1717,3.1717,3.1717,3.1717,3.1717,3.1717,3.1717,3.1717,3.1717,3.1717,3.0077,3.0333,3.0567,3.0567,3.1325,3.2399,3.3572,3.4725,3.5959,3.715,3.7708,3.7974,3.7974,3.7974,3.7974,3.7974,3.8133,3.8315,3.8421,3.8736,3.905,3.9258,3.9465,3.9594,3.9697,0.0,0.0,0.0,0.0,0.0,3.8998,3.8841,3.8237,3.694,3.6771,3.6242,3.5352,3.4992,3.4775,3.4775,3.4775,3.4775,3.4775,3.4775,3.4775,3.4775,3.4775,3.4775,3.4775,3.4583,3.4054,3.326,3.3092,3.2466,3.1717,3.1717,3.1717,3.1717,3.1717,3.1717,3.1717,3.1717,3.2034,3.2563,3.2923,3.3501,3.4054,3.4414,3.4655,3.4775,3.4775,3.4775,3.4775,3.4775,3.4775,3.4775,3.4775,3.4775,3.4775,3.4775,3.4775,3.4775,3.4775,3.4775,3.4775,3.4775,3.4775,3.4775,3.4775,3.4462,3.427,3.427,3.4006,3.3741,3.3549,3.3549,3.3332,3.2803,3.2779,3.2515,3.1961,3.1982,3.191,3.1717,3.1717,3.1717,3.1717,3.1717,3.1717,3.1717,3.1717,3.1717,0.0,0.0,0.0,3.0898,3.0898,3.1228,3.2399,3.3572,3.4725,3.5959,3.712,3.7974,3.7974,3.7974,3.795,3.795,3.7974,3.808,3.8368,3.8421,3.8631,3.9206,3.9258,3.9362,3.9645,0.0,0.0,0.0,3.9697,3.9594,3.931,3.8921,3.799,3.6435,3.5881,3.5352,3.4799,3.4775,3.4775,3.4775,3.4775,3.4775,3.4775,3.4775,3.4775,3.4775,3.4775,3.4775,3.4751,3.4222,3.3741,3.3236,3.2707,3.2154,3.1717,3.1717,3.1717,3.1717,3.1717,3.1717,3.1717,3.1717,3.2034,3.2491,3.2491,3.3212,3.3958,3.3982,3.4366,3.4775,3.4775,3.4775,3.4775,3.4775,3.4775,3.4775,3.4775,3.4775,3.4775,3.4775,3.4775,3.4775,3.4775,3.4775,3.4775,3.4775,3.4775,3.4775,3.4775,3.4775,3.4775,3.4775,3.4775,3.4583,3.4054,3.4006,3.379,3.3332,3.3308,3.3068,3.2539,3.2515,3.2274,3.1765,3.1765,3.1741,3.1741,3.1717,3.1717,3.1717,3.1717,3.1717,3.0154,0.0,0.0,0.0,0.0,0.0,3.2399,3.297,3.3741,3.5795,3.6449,3.6935,3.7814,3.7661,3.7421,3.7421,3.7733,3.8027,3.808,3.8315,3.8473,3.8631,3.8841,3.905,0.0,0.0,0.0,0.0,3.9697,3.949,3.8945,3.7743,3.6853,3.6411,3.5521,3.4919,3.4775,3.4775,3.4775,3.4775,3.4775,3.4775,3.4775,3.4775,3.4775,3.4775,3.4775,3.4775,3.4751,3.4222,3.3741,3.3236,3.2707,3.2154,3.1717,3.1717,3.1717,3.1717,3.1717,3.1717,3.1717,3.1717,3.1813,3.1961,3.237,3.2971,3.3573,3.3886,3.4366,3.4775,3.4775,3.4775,3.4775,3.4775,3.4775,3.4775,3.4775,3.4775,3.4775,3.4775,3.4775,3.4775,3.4775,3.4775,3.4775,3.4775,3.4775,3.4775,3.4775,3.4775,3.4775,3.4775,3.4775,3.4727,3.4583,3.4558,3.4342,3.3814,3.3837,3.3597,3.3092,3.3068,3.2996,3.2851,3.2851,3.2659,3.2274,3.191,3.1717,3.1717,3.1717,3.1717,3.0506,3.047,3.0645,3.0645,0.0,0.0,3.1787,3.2342,3.3084,3.4469,3.534,3.6071,3.6767,3.6892,3.6867,3.6867,3.7132,3.7397,3.7613,3.8012,3.8238,3.8421,3.8526,3.8736,0.0,3.9206,3.9362,3.9517,3.9645,3.9365,3.8652,3.7482,3.6618,3.6225,3.5305,3.4775,3.4775,3.4775,3.4775,3.4775,3.4775,3.4775,3.4775,3.4775,3.4775,3.4775,3.4775,3.4775,3.4751,3.4222,3.3741,3.3236,3.2707,3.2154,3.1717,3.1717,3.1717,3.1717,3.1717,3.1717,3.1717,3.1717,3.1717,3.1765,3.2058,3.2683,3.3356,3.3645,3.427,3.4775,3.4775,3.4775,3.4775,3.4775,3.4775,3.4775,3.4775,3.4775,3.4775,3.4775,3.4775,3.4775,3.4775,3.4775,3.4775,3.4775,3.4775,3.4775,3.4775,3.4775,3.4775,3.4775,3.4775,3.4775,3.4775,3.4775,3.4655,3.4342,3.4318,3.4102,3.3621,3.3597,3.3501,3.3284,3.3284,3.314,3.2827,3.2274,3.1934,3.1717,3.1717,3.1717,3.1133,3.0898,3.0898,3.0898,3.0898,0.0,3.0898,3.173,3.2514,3.2685,3.3944,3.5054,3.5215,3.5746,3.6111,3.6111,3.6213,3.6507,3.7036,3.7565,3.8007,3.8218,3.8319,3.8473,3.8736,3.905,3.9206,3.931,3.9467,3.9192,3.8363,3.7616,3.6824,3.6038,3.5259,3.4823,3.4775,3.4775,3.4775,3.4775,3.4775,3.4775,3.4775,3.4775,3.4775,3.4775,3.4775,3.4775,3.4751,3.427,3.3789,3.3236,3.2707,3.2154,3.1717,3.1717,3.1717,3.1717,3.1717,3.1717,3.1717,3.1717,3.1717,3.1717,3.1717,3.2464,3.3308,3.3428,3.4126,3.4775,3.4775,3.4775,3.4775,3.4775,3.4775,3.4775,3.4775,3.4775,3.4775,3.4775,3.4775,3.4775,3.4775,3.4775,3.4775,3.4775,3.4775,3.4775,3.4775,3.4775,3.4775,3.4775,3.4775,3.4775,3.4775,3.4775,3.4775,3.4775,3.4775,3.4558,3.4102,3.4078,3.3862,3.3477,3.3404,3.338,3.338,3.2851,3.2322,3.1886,3.1837,3.1789,3.1133,3.0898,3.0898,3.0898,3.0898,0.0,3.0898,3.1054,3.1518,3.2514,3.2686,3.2992,3.3922,3.4327,3.4477,3.4477,3.5186,3.5954,3.6483,3.7012,3.7401,3.7453,3.7839,0.0,3.8473,3.8526,3.8788,3.9258,3.8887,3.8389,3.7767,3.7023,3.6382,3.6013,3.5454,3.5017,3.4775,3.4775,3.4775,3.4775,3.4775,3.4775,3.4775,3.4775,3.4775,3.4775,3.4775,3.4775,3.4775,3.4679,3.4126,3.3236,3.2707,3.2154,3.1717,3.1717,3.1717,3.1717,3.1717,3.1717,3.1717,3.1717,3.1717,3.1717,3.1717,3.2464,3.3477,3.4294,3.4631,3.4775,3.4775,3.4775,3.4775,3.4775,3.4775,3.4775,3.4775,3.4775,3.4775,3.4775,3.4775,3.4775,3.4775,3.4775,3.4775,3.4775,3.4775,3.4775,3.4775,3.4775,3.4775,3.4775,3.4775,3.4775,3.4775,3.4775,3.4775,3.4775,3.4775,3.4727,3.4631,3.4631,3.4583,3.4535,3.4054,3.3838,3.3838,3.338,3.3068,3.2971,3.2539,3.2346,3.1055,3.0898,3.0898,3.0898,3.0898,0.0,0.0,3.0898,3.1054,3.1672,3.1676,3.1774,3.2378,3.2674,3.2808,3.2808,3.3669,3.4487,3.4745,3.5985,3.6795,3.6795,3.7036,0.0,3.7412,3.7515,3.7824,3.8438,3.8165,3.7767,3.7245,3.6678,3.6211,3.5819,3.526,3.4969,3.4969,3.4872,3.4775,3.4775,3.4775,3.4775,3.4775,3.4775,3.4775,3.4775,3.4775,3.4775,3.4775,3.4775,3.4222,3.326,3.2996,3.2394,3.1717,3.1717,3.1717,3.1717,3.1717,3.1717,3.1717,3.1717,3.1717,3.1717,3.1717,3.2464,3.3501,3.4535,3.4775,3.4775,3.4775,3.4775,3.4775,3.4775,3.4775,3.4775,3.4775,3.4775,3.4775,3.4775,3.4775,3.4775,3.4775,3.4775,3.4775,3.4775,3.4775,3.4775,3.4775,3.4775,3.4775,3.4775,3.4775,3.4775,3.4775,3.4775,3.4775,3.4775,3.4775,3.4775,3.4775,3.4775,3.4775,3.4775,3.451,3.439,3.439,3.4174,3.3789,3.3284,3.302,3.2899,3.0996,3.0898,3.0898,3.0898,3.0898,3.0898,0.0,0.0,0.0,3.0898,3.0894,3.0894,3.0894,0.0,0.0,3.1257,0.0,0.0,0.0,3.4896,0.0,3.6242,3.6338,0.0,3.6411,3.6664,3.6918,3.7245,3.7345,3.7146,3.66,3.6357,3.6063,3.562,3.5114,3.4969,3.5235,3.4969,3.4823,3.4775,3.4823,3.4823,3.4775,3.4775,3.4775,3.4775,3.4775,3.4775,3.4775,3.4775,3.4222,3.3284,3.3284,3.2611,3.1717,3.1717,3.1717,3.1717,3.1717,3.1717,3.1717,3.1717,3.1717,3.1741,3.1958,3.2587,3.3501,3.4535,3.4775,3.4775,3.4775,3.4775,3.4775,3.4775,3.4775,3.4775,3.4775,3.4775,3.4775,3.4775,3.4775,3.4775,3.4775,3.4775,3.4775,3.4775,3.4775,3.4775,3.4775,3.4775,3.4775,3.4775,3.4775,3.4775,3.4775,3.4628,3.458,3.4775,3.4433,3.4384,3.4775,3.4775,3.4775,3.4775,3.4775,3.4775,3.4775,3.4775,3.439,3.3573,3.3477,3.3428,3.0996,3.0898,3.0898,3.0898,3.0898,3.0898,3.0898,0.0,3.0898,3.0898,0.0,0.0,0.0,0.0,0.0,0.0,0.0,0.0,3.3201,3.4209,3.5184,3.5641,3.6122,0.0,0.0,3.6664,3.6621,3.6184,3.6407,3.6284,3.5767,3.5719,3.567,3.562,3.5332,3.5163,3.5235,3.5163,3.5017,3.4775,3.5017,3.5017,3.4775,3.4775,3.4775,3.4775,3.4775,3.4775,3.4775,3.4775,3.4222,3.3284,3.3284,3.2611,3.1717,3.1717,3.1717,3.1717,3.1717,3.1717,3.1717,3.1717,3.1717,3.1886,3.2803,3.3188,3.3501,3.4535,3.4775,3.4775,3.4775,3.4775,3.4775,3.4775,3.4775,3.4775,3.4775,3.4775,3.4775,3.4775,3.4775,3.4775,3.4775,3.4775,3.4775,3.4775,3.4775,3.4775,3.4775,3.4775,3.4775,3.4775,3.4775,3.4775,3.4775,3.3918,3.3819,3.4726,3.3001,3.2801,3.4726,3.4775,3.4775,3.4775,3.4775,3.4775,3.4775,3.4775,3.4727,3.4655,3.4126,3.391,0.0,0.0,0.0,0.0,0.0,0.0,3.0898,0.0,3.0898,0.0,0.0,0.0,0.0,0.0,0.0,0.0,3.0276,0.0,0.0,0.0,3.4186,0.0,0.0,0.0,0.0,0.0,0.0,0.0,3.5649,3.56,3.538,3.538,3.538,3.538,3.5114,3.5017,3.5235,3.5042,3.492,3.4775,3.492,3.492,3.4775,3.4775,3.4775,3.4775,3.4775,3.4775,3.4775,3.4775,3.439,3.3693,3.3404,3.2611,3.1717,3.1717,3.1717,3.1717,3.1717,3.1717,3.1717,3.1717,3.1717,3.191,3.2947,3.3284,3.3501,3.4535,3.4775,3.4775,3.4775,3.4775,3.4775,3.4775,3.4775,3.4775,3.4775,3.4775,3.4775,3.4775,3.4775,3.4775,3.4775,3.4775,3.4775,3.4775,3.4775,3.458,3.3967,3.3869,3.3598,3.3001,3.2951,3.3201,3.3819,3.3449,3.3671,3.4726,3.3967,3.3869,3.4775,3.4775,3.4775,3.4775,3.4775,3.4775,3.4775,3.4775,3.4775,3.4775,3.4558,3.4438,3.0898,0.0,0.0,0.0,0.0,0.0,0.0,0.0,0.0,0.0,0.0,0.0,0.0,0.0,0.0,2.8359,0.0,3.0172,0.0,3.2072,0.0,0.0,0.0,0.0,0.0,0.0,0.0,0.0,0.0,3.5066,3.5066,3.5066,3.5114,3.5235,3.5017,3.5017,3.5332,3.5187,3.5066,3.492,3.4969,3.492,3.4775,3.4775,3.4775,3.4775,3.4872,3.492,3.492,3.492,3.4607,3.4053,3.3523,3.2753,3.1999,3.1765,3.1717,3.1717,3.1717,3.1717,3.1717,3.1717,3.1717,3.191,3.2947,3.3284,3.3501,3.4535,3.4775,3.4775,3.4775,3.4775,3.4775,3.4775,3.4775,3.4775,3.4775,3.4775,3.4775,3.4775,3.4775,3.4775,3.4775,3.4775,3.4775,3.4775,3.4775,3.4531,3.377,3.3671,3.325,3.2145,3.2297,3.27,3.3151,3.3201,3.34,3.3918,3.4458,3.4677,3.436,3.4628,3.4775,3.4775,3.4775,3.4775,3.4775,3.4775,3.4775,3.4775,3.4775,3.4775,0.0,0.0,0.0,3.0898,0.0,0.0,0.0,0.0,3.0898,0.0,0.0,0.0,0.0,0.0,2.8789,2.8359,2.9217,0.0,0.0,0.0,0.0,0.0,0.0,0.0,0.0,0.0,0.0,0.0,0.0,0.0,3.4823,3.4823,3.492,3.5187,3.5187,3.5332,3.5572,3.5812,3.5716,3.5187,3.5476,3.5307,3.4775,3.4775,3.4775,3.4823,3.5066,3.5187,3.5187,3.5187,3.4847,3.4313,3.357,3.3085,3.2686,3.1954,3.1717,3.1717,3.1717,3.1717,3.1717,3.1717,3.1717,3.191,3.2947,3.3284,3.3501,3.4535,3.4775,3.4775,3.4775,3.4775,3.4775,3.4775,3.4775,3.4775,3.4775,3.4775,3.4775,3.4775,3.4775,3.4775,3.4775,3.4775,3.4775,3.4775,3.4775,3.4775,3.4726,3.4726,3.4311,3.325,3.4066,3.4262,3.33,3.3201,3.2801,3.179,3.3648,3.4311,3.33,3.4262,3.4775,3.4775,3.4775,3.4775,3.4775,3.4775,3.4775,3.4775,3.4775,3.4775,0.0,0.0,3.0898,3.0898,0.0,0.0,0.0,0.0,0.0,0.0,0.0,0.0,0.0,0.0,2.9121,2.8418,2.8601,2.9112,0.0,0.0,0.0,0.0,0.0,0.0,0.0,0.0,0.0,0.0,3.4775,0.0,0.0,3.4775,3.4823,3.492,3.5114,3.5235,3.5332,3.562,3.562,3.5476,3.538,3.5235,3.5066,3.4872,3.4775,3.4823,3.5066,3.5235,3.5211,3.538,3.5354,3.5134,3.4525,3.4035,3.3448,3.2321,3.1893,3.1893,3.1761,3.1717,3.1717,3.1717,3.1717,3.191,3.2947,3.3284,3.3501,3.4535,3.4775,3.4775,3.4775,3.4775,3.4775,3.4775,3.4775,3.4775,3.4775,3.4775,3.4775,3.4775,3.4775,3.4775,3.4775,3.4775,3.4775,3.4775,3.4775,3.4531,3.3819,3.377,3.335,3.2246,3.2499,3.2801,3.3151,3.3869,3.4115,3.377,3.4433,3.4628,3.4262,3.4628,3.4775,3.4775,3.4775,3.4775,3.4775,3.4775,3.4775,3.4775,3.4775,3.4775,3.0898,3.0898,0.0,3.0898,3.0898,0.0,3.0898,0.0,0.0,0.0,0.0,0.0,0.0,0.0,0.0,2.8437,2.8301,0.0,0.0,3.0897,0.0,0.0,0.0,3.4775,0.0,0.0,0.0,3.4775,3.4775,0.0,0.0,0.0,3.4823,3.492,3.5235,3.538,3.5476,3.5764,3.586,3.5716,3.5572,3.538,3.5163,3.5017,3.492,3.4969,3.5235,3.5428,3.5524,3.5668,3.5716,3.5667,3.5078,3.4659,3.4262,3.293,3.2284,3.2138,3.1893,3.1805,3.1805,3.1717,3.1717,3.191,3.2947,3.3284,3.3477,3.4318,3.4631,3.4751,3.4558,3.4631,3.4775,3.4775,3.4775,3.4775,3.4775,3.4775,3.4775,3.4775,3.4775,3.4775,3.4775,3.4775,3.4775,3.4775,3.4775,3.458,3.3869,3.377,3.335,3.2297,3.2499,3.2851,3.3151,3.3819,3.4066,3.372,3.4017,3.4213,3.4213,3.458,3.4775,3.4775,3.4775,3.4775,3.4775,3.4775,3.4775,3.4775,3.4775,3.4775]}]]